[[{"header":{"parameterUnit":"m.s-1","parameterCategory":1,"la1":31.0,"la2":29.5877,"lo1":-88.7671,"lo2":-86.6584,"dy":0.0162,"dx":0.0185,"nx":115,"ny":88,"refTime":"2024-06-01T12:00:00:Z","depth":0,"parameterNumber":2,"parameterNumberName":"U-component_of_WINDS"},"data":[0.0,0.0,0.0,0.0,0.0,0.0,0.0,0.0,0.0,0.0,0.0,0.0,0.0,0.0,0.0,0.0,0.0,0.0,0.0,0.0,0.0,0.0,0.0,0.0,0.0,0.0,0.0,0.0,0.0,0.0,0.0,0.0,0.0,0.0,0.0,0.0,0.0,0.0,0.0,0.0,0.0,0.0,0.0,0.0,0.0,0.0,0.0,0.0,0.0,0.0,0.0,0.0,0.0,0.0,0.0,0.0,0.0,0.0,0.0,0.0,0.0,0.0,0.0,0.0,0.0,0.0,0.0,0.0,0.0,0.0,0.0,0.0,0.0,0.0,0.0,0.0,0.0,0.0,0.0,0.0,0.0,0.0,0.0,0.0,0.0,0.0,0.0,0.0,0.0,0.0,0.0,0.0,0.0,0.0,0.0,0.0,0.0,0.0,0.0,0.0,0.0,0.0,0.0,0.0,0.0,0.0,0.0,0.0,0.0,0.0,0.0,0.0,0.0,0.0,0.0,0.0,0.0,0.0,0.0,0.0,0.0,0.0,0.0,0.0,0.0,0.0,0.0,0.0,0.0,0.0,0.0,0.0,0.0,0.0,0.0,0.0,0.0,0.0,0.0,0.0,0.0,0.0,0.0,0.0,0.0,0.0,0.0,0.0,0.0,0.0,0.0,0.0,0.0,0.0,0.0,0.0,0.0,0.0,0.0,0.0,0.0,0.0,0.0,0.0,0.0,0.0,0.0,0.0,0.0,0.0,0.0,0.0,0.0,0.0,0.0,0.0,0.0,0.0,0.0,0.0,0.0,0.0,0.0,0.0,0.0,0.0,0.0,0.0,0.0,0.0,0.0,0.0,0.0,0.0,0.0,0.0,0.0,0.0,0.0,0.0,0.0,0.0,0.0,0.0,0.0,0.0,0.0,0.0,0.0,0.0,0.0,0.0,0.0,0.0,0.0,0.0,0.0,0.0,0.0,0.0,0.0,0.0,0.0,0.0,0.0,0.0,0.0,0.0,0.0,0.0,0.0,0.0,0.0,0.0,0.0,0.0,0.0,0.0,0.0,0.0,0.0,0.0,0.0,0.0,0.0,0.0,0.0,0.0,0.0,0.0,0.0,0.0,0.0,0.0,0.0,0.0,0.0,0.0,0.0,0.0,0.0,0.0,0.0,0.0,0.0,0.0,0.0,0.0,0.0,0.0,0.0,0.0,0.0,0.0,0.0,0.0,0.0,0.0,0.0,0.0,0.0,0.0,0.0,0.0,0.0,0.0,0.0,0.0,0.0,0.0,0.0,0.0,0.0,0.0,0.0,0.0,0.0,0.0,0.0,0.0,0.0,0.0,0.0,0.0,0.0,0.0,0.0,0.0,0.0,0.0,0.0,0.0,0.0,0.0,0.0,0.0,0.0,0.0,0.0,0.0,0.0,0.0,0.0,0.0,0.0,0.0,0.0,0.0,0.0,0.0,0.0,0.0,0.0,0.0,0.0,0.0,0.0,0.0,0.0,0.0,0.0,0.0,0.0,0.0,0.0,0.0,0.0,0.0,0.0,0.0,0.0,0.0,0.0,0.0,0.0,0.0,0.0,0.0,0.0,0.0,0.0,0.0,0.0,0.0,0.0,0.0,0.0,0.0,0.0,0.0,0.0,0.0,0.0,0.0,0.0,0.0,0.0,0.0,0.0,0.0,0.0,0.0,0.0,0.0,0.0,0.0,0.0,0.0,0.0,0.0,0.0,0.0,0.0,0.0,0.0,0.0,0.0,0.0,0.0,0.0,0.0,0.0,0.0,0.0,0.0,0.0,0.0,0.0,0.0,0.0,0.0,0.0,0.0,0.0,0.0,0.0,0.0,0.0,0.0,0.0,0.0,0.0,0.0,0.0,0.0,0.0,0.0,0.0,0.0,0.0,0.0,0.0,0.0,0.0,0.0,0.0,0.0,0.0,0.0,0.0,0.0,0.0,0.0,0.0,0.0,0.0,0.0,0.0,0.0,0.0,0.0,0.0,0.0,0.0,0.0,0.0,0.0,0.0,0.0,0.0,0.0,0.0,0.0,0.0,0.0,0.0,0.0,0.0,0.0,0.0,0.0,0.0,0.0,0.0,0.0,0.0,0.0,0.0,0.0,0.0,0.0,0.0,0.0,0.0,0.0,0.0,0.0,0.0,0.0,0.0,0.0,0.0,0.0,0.0,0.0,0.0,0.0,0.0,0.0,0.0,0.0,0.0,0.0,0.0,0.0,0.0,0.0,0.0,0.0,0.0,0.0,0.0,0.0,0.0,0.0,0.0,0.0,0.0,0.0,0.0,0.0,0.0,0.0,0.0,0.0,0.0,0.0,0.0,0.0,0.0,0.0,0.0,0.0,0.0,0.0,0.0,0.0,0.0,0.0,0.0,0.0,0.0,0.0,0.0,0.0,0.0,0.0,0.0,0.0,0.0,0.0,0.0,0.0,0.0,0.0,0.0,0.0,0.0,0.0,0.0,0.0,0.0,0.0,0.0,0.0,0.0,0.0,0.0,0.0,0.0,0.0,0.0,0.0,0.0,0.0,0.0,0.0,0.0,0.0,0.0,0.0,0.0,0.0,0.0,0.0,0.0,0.0,0.0,0.0,0.0,0.0,0.0,0.0,0.0,0.0,0.0,0.0,0.0,0.0,0.0,0.0,0.0,0.0,0.0,0.0,0.0,0.0,0.0,0.0,0.0,0.0,0.0,0.0,0.0,0.0,0.0,0.0,0.0,0.0,0.0,0.0,0.0,0.0,0.0,0.0,0.0,0.0,0.0,0.0,0.0,0.0,0.0,0.0,0.0,0.0,0.0,0.0,0.0,0.0,0.0,0.0,0.0,0.0,0.0,0.0,0.0,0.0,0.0,0.0,0.0,0.0,0.0,0.0,0.0,0.0,0.0,0.0,0.0,0.0,0.0,0.0,0.0,0.0,0.0,0.0,0.0,0.0,0.0,0.0,0.0,0.0,0.0,0.0,0.0,0.0,0.0,0.0,0.0,0.0,0.0,0.0,0.0,0.0,0.0,0.0,0.0,0.0,0.0,0.0,0.0,0.0,0.0,0.0,0.0,0.0,0.0,0.0,0.0,0.0,0.0,0.0,0.0,0.0,0.0,0.0,0.0,0.0,0.0,0.0,0.0,0.0,0.0,0.0,0.0,0.0,0.0,0.0,0.0,0.0,0.0,0.0,0.0,0.0,0.0,0.0,0.0,0.0,0.0,0.0,0.0,0.0,0.0,0.0,0.0,0.0,0.0,0.0,0.0,0.0,0.0,0.0,0.0,0.0,0.0,0.0,0.0,0.0,0.0,0.0,0.0,0.0,0.0,0.0,0.0,0.0,0.0,0.0,0.0,0.0,0.0,0.0,0.0,0.0,0.0,0.0,0.0,0.0,0.0,0.0,0.0,0.0,0.0,0.0,0.0,0.0,0.0,0.0,0.0,0.0,0.0,0.0,0.0,0.0,0.0,0.0,0.0,0.0,0.0,0.0,0.0,0.0,0.0,0.0,0.0,0.0,0.0,0.0,0.0,0.0,0.0,0.0,0.0,0.0,0.0,0.0,0.0,0.0,0.0,0.0,0.0,0.0,0.0,0.0,0.0,0.0,0.0,0.0,0.0,0.0,0.0,0.0,0.0,0.0,0.0,0.0,0.0,0.0,0.0,0.0,0.0,0.0,0.0,0.0,0.0,0.0,0.0,0.0,0.0,0.0,0.0,0.0,0.0,0.0,0.0,0.0,0.0,0.0,0.0,0.0,0.0,0.0,0.0,0.0,0.0,0.0,0.0,0.0,0.0,0.0,0.0,0.0,0.0,0.0,0.0,0.0,0.0,0.0,0.0,0.0,0.0,0.0,0.0,0.0,0.0,0.0,0.0,0.0,0.0,0.0,0.0,0.0,0.0,0.0,0.0,0.0,0.0,0.0,0.0,0.0,0.0,0.0,0.0,0.0,0.0,0.0,0.0,0.0,0.0,0.0,0.0,0.0,0.0,0.0,0.0,0.0,0.0,0.0,0.0,0.0,0.0,0.0,0.0,0.0,0.0,0.0,0.0,0.0,0.0,0.0,0.0,0.0,0.0,0.0,0.0,0.0,0.0,0.0,0.0,0.0,0.0,0.0,0.0,0.0,0.0,0.0,0.0,0.0,0.0,0.0,0.0,0.0,0.0,0.0,0.0,0.0,0.0,0.0,0.0,0.0,0.0,0.0,0.0,0.0,0.0,0.0,0.0,0.0,0.0,0.0,0.0,0.0,0.0,0.0,0.0,0.0,0.0,-1.0094,0.0,0.0,0.0,0.0,0.0,0.0,0.0,0.0,0.0,0.0,0.0,0.0,0.0,0.0,0.0,0.0,0.0,0.0,0.0,0.0,0.0,0.0,0.0,0.0,0.0,0.0,0.0,0.0,0.0,0.0,0.0,0.0,0.0,0.0,0.0,0.0,0.0,0.0,0.0,0.0,0.0,0.0,0.0,0.0,0.0,0.0,0.0,0.0,0.0,0.0,0.0,0.0,0.0,0.0,0.0,0.0,0.0,0.0,0.0,0.0,0.0,0.0,0.0,0.0,0.0,0.0,0.0,0.0,0.0,0.0,0.0,0.0,0.0,0.0,0.0,0.0,0.0,0.0,0.0,0.0,0.0,0.0,0.0,0.0,0.0,0.0,0.0,0.0,0.0,0.0,0.0,0.0,0.0,0.0,0.0,0.0,0.0,0.0,0.0,0.0,0.0,0.0,0.0,0.0,0.0,0.0,0.0,0.0,0.0,0.0,-1.0094,-1.0094,-1.0094,-1.0094,-1.0094,0.0,0.0,0.0,0.0,0.0,0.0,0.0,0.0,0.0,0.0,0.0,0.0,0.0,0.0,0.0,0.0,0.0,0.0,0.0,0.0,0.0,0.0,0.0,0.0,0.0,0.0,0.0,0.0,0.0,0.0,0.0,0.0,0.0,0.0,0.0,0.0,0.0,0.0,0.0,0.0,0.0,0.0,0.0,0.0,0.0,0.0,0.0,0.0,0.0,0.0,0.0,0.0,0.0,0.0,0.0,0.0,0.0,0.0,0.0,0.0,0.0,0.0,0.0,0.0,0.0,0.0,0.0,0.0,0.0,0.0,0.0,0.0,0.0,0.0,0.0,0.0,0.0,0.0,0.0,0.0,0.0,0.0,0.0,0.0,0.0,0.0,0.0,0.0,0.0,0.0,0.0,0.0,0.0,0.0,0.0,0.0,0.0,0.0,0.0,0.0,0.0,0.0,0.0,0.0,0.0,0.0,0.0,0.0,0.0,0.0,0.0,0.0,-1.0692,-1.0692,-1.0673,0.0,0.0,0.0,0.0,0.0,0.0,0.0,0.0,0.0,0.0,0.0,0.0,0.0,0.0,0.0,0.0,0.0,0.0,0.0,0.0,0.0,0.0,0.0,0.0,0.0,0.0,0.0,0.0,0.0,0.0,0.0,0.0,0.0,0.0,0.0,0.0,0.0,0.0,0.0,0.0,0.0,0.0,0.0,0.0,0.0,0.0,0.0,0.0,0.0,0.0,0.0,0.0,0.0,0.0,0.0,0.0,0.0,0.0,0.0,0.0,0.0,0.0,0.0,0.0,0.0,0.0,0.0,0.0,0.0,0.0,0.0,0.0,0.0,0.0,0.0,0.0,0.0,0.0,0.0,0.0,0.0,0.0,0.0,0.0,0.0,0.0,0.0,0.0,0.0,0.0,0.0,0.0,0.0,0.0,0.0,0.0,0.0,0.0,0.0,0.0,0.0,0.0,0.0,0.0,0.0,0.0,0.0,0.0,0.0,0.0,-1.0846,-1.2411,-1.2449,0.0,-1.2449,0.0,0.0,0.0,0.0,0.0,0.0,0.0,0.0,0.0,0.0,0.0,0.0,0.0,0.0,0.0,0.0,0.0,0.0,0.0,0.0,0.0,0.0,0.0,0.0,0.0,0.0,0.0,0.0,0.0,0.0,0.0,0.0,0.0,0.0,0.0,0.0,0.0,0.0,0.0,0.0,0.0,0.0,0.0,0.0,0.0,0.0,0.0,0.0,0.0,0.0,0.0,0.0,0.0,0.0,0.0,0.0,0.0,0.0,0.0,0.0,0.0,0.0,0.0,0.0,0.0,0.0,0.0,0.0,0.0,0.0,0.0,0.0,0.0,0.0,0.0,0.0,0.0,0.0,0.0,0.0,0.0,0.0,0.0,0.0,0.0,0.0,0.0,0.0,0.0,0.0,0.0,0.0,0.0,0.0,0.0,0.0,0.0,0.0,0.0,0.0,0.0,0.0,0.0,0.0,0.0,0.0,0.0,0.0,0.0,0.0,0.0,-1.2683,-1.2702,-1.2702,0.0,0.0,0.0,0.0,0.0,0.0,0.0,0.0,0.0,0.0,0.0,0.0,0.0,0.0,0.0,0.0,0.0,0.0,0.0,0.0,0.0,0.0,0.0,0.0,0.0,0.0,0.0,0.0,0.0,0.0,0.0,0.0,0.0,0.0,0.0,0.0,0.0,0.0,0.0,0.0,0.0,0.0,0.0,0.0,0.0,0.0,0.0,0.0,0.0,0.0,0.0,0.0,0.0,0.0,0.0,0.0,0.0,0.0,0.0,0.0,0.0,0.0,0.0,0.0,0.0,0.0,0.0,0.0,0.0,0.0,0.0,0.0,0.0,0.0,0.0,0.0,0.0,0.0,0.0,0.0,0.0,0.0,0.0,0.0,0.0,0.0,0.0,0.0,0.0,0.0,0.0,0.0,0.0,0.0,0.0,0.0,0.0,0.0,0.0,0.0,0.0,0.0,0.0,0.0,0.0,0.0,0.0,0.0,0.0,0.0,-1.2296,0.0,-1.3354,-1.3392,-1.3178,-1.2721,0.0,0.0,0.0,0.0,0.0,0.0,0.0,0.0,0.0,0.0,0.0,0.0,0.0,0.0,0.0,0.0,0.0,0.0,0.0,0.0,0.0,0.0,0.0,0.0,0.0,0.0,0.0,0.0,0.0,0.0,0.0,0.0,0.0,0.0,0.0,0.0,0.0,0.0,0.0,0.0,0.0,0.0,0.0,0.0,0.0,0.0,0.0,0.0,0.0,0.0,0.0,0.0,0.0,0.0,0.0,0.0,0.0,0.0,0.0,0.0,0.0,0.0,0.0,0.0,0.0,0.0,0.0,0.0,0.0,0.0,0.0,0.0,0.0,0.0,0.0,0.0,0.0,0.0,0.0,0.0,0.0,0.0,0.0,0.0,0.0,0.0,0.0,0.0,0.0,0.0,0.0,0.0,0.0,0.0,0.0,0.0,0.0,0.0,0.0,0.0,0.0,0.0,0.0,0.0,0.0,0.0,0.0,0.0,0.0,-1.345,-1.3467,-1.5041,-1.5074,-1.433,0.0,0.0,0.0,0.0,0.0,0.0,0.0,0.0,0.0,0.0,0.0,0.0,0.0,0.0,0.0,0.0,0.0,0.0,0.0,0.0,0.0,0.0,0.0,0.0,0.0,0.0,0.0,0.0,0.0,0.0,0.0,0.0,0.0,0.0,0.0,0.0,0.0,0.0,0.0,0.0,0.0,0.0,0.0,0.0,0.0,0.0,0.0,0.0,0.0,0.0,0.0,0.0,0.0,0.0,0.0,0.0,0.0,0.0,0.0,0.0,0.0,0.0,0.0,0.0,0.0,0.0,0.0,0.0,0.0,0.0,0.0,0.0,0.0,0.0,0.0,0.0,0.0,0.0,0.0,0.0,0.0,0.0,0.0,0.0,0.0,0.0,0.0,0.0,0.0,0.0,0.0,0.0,0.0,0.0,0.0,0.0,0.0,0.0,0.0,0.0,0.0,0.0,0.0,0.0,0.0,0.0,0.0,0.0,0.0,-1.1882,-1.2409,-1.4027,-1.658,-1.4736,-1.381,0.0,0.0,0.0,0.0,0.0,0.0,0.0,0.0,0.0,0.0,0.0,0.0,0.0,0.0,0.0,0.0,0.0,0.0,0.0,0.0,0.0,0.0,0.0,0.0,0.0,0.0,0.0,0.0,0.0,0.0,0.0,0.0,0.0,0.0,0.0,0.0,0.0,0.0,0.0,0.0,0.0,0.0,0.0,0.0,0.0,0.0,0.0,0.0,0.0,0.0,0.0,0.0,0.0,0.0,0.0,0.0,0.0,0.0,0.0,0.0,0.0,0.0,0.0,0.0,0.0,0.0,0.0,0.0,0.0,0.0,0.0,0.0,0.0,0.0,0.0,0.0,0.0,0.0,0.0,0.0,0.0,0.0,0.0,0.0,0.0,0.0,0.0,0.0,0.0,0.0,0.0,0.0,0.0,0.0,0.0,0.0,0.0,0.0,0.0,0.0,0.0,0.0,0.0,0.0,0.0,0.0,0.0,0.0,0.0,-1.1748,0.0,-1.516,0.0,-1.4701,-1.3522,0.0,0.0,0.0,0.0,0.0,0.0,0.0,0.0,0.0,0.0,0.0,0.0,0.0,0.0,0.0,0.0,0.0,0.0,0.0,0.0,0.0,0.0,0.0,0.0,0.0,0.0,0.0,0.0,0.0,0.0,0.0,0.0,0.0,0.0,0.0,0.0,0.0,0.0,0.0,0.0,0.0,0.0,0.0,0.0,0.0,0.0,0.0,0.0,0.0,0.0,0.0,0.0,0.0,0.0,0.0,0.0,0.0,0.0,0.0,0.0,0.0,0.0,0.0,0.0,0.0,0.0,0.0,0.0,0.0,0.0,0.0,0.0,0.0,0.0,0.0,0.0,0.0,0.0,0.0,0.0,0.0,0.0,0.0,0.0,0.0,0.0,0.0,0.0,0.0,0.0,0.0,0.0,0.0,0.0,0.0,0.0,0.0,0.0,0.0,0.0,0.0,0.0,0.0,0.0,0.0,0.0,0.0,0.0,-1.1825,-1.5,-1.6696,-1.6811,-1.5343,-1.5154,-1.3599,0.0,0.0,0.0,0.0,0.0,0.0,0.0,0.0,0.0,0.0,0.0,0.0,0.0,0.0,0.0,0.0,0.0,0.0,0.0,0.0,0.0,0.0,0.0,0.0,0.0,0.0,0.0,0.0,0.0,0.0,0.0,0.0,0.0,0.0,0.0,0.0,0.0,0.0,0.0,0.0,0.0,0.0,0.0,0.0,0.0,0.0,0.0,0.0,0.0,0.0,0.0,0.0,0.0,0.0,0.0,0.0,0.0,0.0,0.0,0.0,0.0,0.0,0.0,0.0,0.0,0.0,0.0,0.0,0.0,0.0,0.0,0.0,0.0,0.0,0.0,0.0,0.0,0.0,0.0,0.0,0.0,0.0,0.0,0.0,0.0,0.0,0.0,0.0,0.0,0.0,0.0,0.0,0.0,0.0,0.0,0.0,0.0,0.0,0.0,0.0,0.0,0.0,0.0,0.0,0.0,0.0,0.0,0.0,0.0,-1.4343,-1.6003,-1.718,-1.768,-1.4987,-1.381,0.0,0.0,0.0,0.0,0.0,0.0,0.0,0.0,0.0,0.0,0.0,0.0,0.0,0.0,0.0,0.0,0.0,0.0,0.0,0.0,0.0,0.0,0.0,0.0,0.0,0.0,0.0,0.0,0.0,0.0,0.0,0.0,0.0,0.0,0.0,0.0,0.0,0.0,0.0,0.0,0.0,0.0,0.0,0.0,0.0,0.0,0.0,0.0,0.0,0.0,0.0,0.0,0.0,0.0,0.0,0.0,0.0,0.0,0.0,0.0,0.0,0.0,0.0,0.0,0.0,0.0,0.0,0.0,0.0,0.0,0.0,0.0,0.0,0.0,0.0,0.0,0.0,0.0,0.0,0.0,0.0,0.0,0.0,0.0,0.0,0.0,0.0,0.0,0.0,0.0,0.0,0.0,0.0,0.0,0.0,0.0,0.0,0.0,0.0,0.0,0.0,0.0,0.0,0.0,0.0,0.0,0.0,0.0,0.0,-1.6381,-1.7984,-1.8892,-1.9015,-1.6105,-1.472,-1.5006,0.0,0.0,0.0,0.0,0.0,0.0,0.0,0.0,0.0,0.0,0.0,0.0,0.0,0.0,0.0,0.0,0.0,0.0,0.0,0.0,0.0,0.0,0.0,0.0,0.0,0.0,0.0,0.0,0.0,0.0,0.0,0.0,0.0,0.0,0.0,0.0,0.0,0.0,0.0,0.0,0.0,0.0,0.0,0.0,0.0,0.0,0.0,0.0,0.0,0.0,0.0,0.0,0.0,0.0,0.0,0.0,0.0,0.0,0.0,0.0,0.0,0.0,0.0,0.0,0.0,0.0,0.0,0.0,0.0,0.0,0.0,0.0,0.0,0.0,0.0,0.0,0.0,0.0,0.0,0.0,0.0,0.0,0.0,0.0,0.0,0.0,0.0,0.0,0.0,0.0,0.0,0.0,0.0,0.0,0.0,0.0,0.0,0.0,0.0,0.0,0.0,0.0,0.0,0.0,0.0,0.0,0.0,0.0,-2.0346,-2.2043,-2.1758,-1.9419,-1.8241,-1.6237,0.0,0.0,0.0,0.0,0.0,0.0,0.0,0.0,0.0,0.0,0.0,0.0,0.0,0.0,0.0,0.0,0.0,0.0,0.0,0.0,0.0,0.0,0.0,0.0,0.0,0.0,0.0,0.0,0.0,0.0,0.0,0.0,0.0,0.0,0.0,0.0,0.0,0.0,0.0,0.0,0.0,0.0,0.0,0.0,0.0,0.0,0.0,0.0,0.0,0.0,0.0,0.0,0.0,0.0,0.0,0.0,0.0,0.0,0.0,0.0,0.0,0.0,0.0,0.0,0.0,0.0,0.0,0.0,0.0,0.0,0.0,0.0,0.0,0.0,0.0,0.0,0.0,0.0,0.0,0.0,0.0,0.0,0.0,0.0,0.0,0.0,0.0,0.0,0.0,0.0,0.0,0.0,0.0,0.0,0.0,0.0,0.0,0.0,0.0,0.0,0.0,0.0,0.0,0.0,0.0,0.0,0.0,0.0,0.0,-2.1196,-2.3442,-2.4043,-2.2744,-1.9488,-1.7606,0.0,0.0,0.0,0.0,0.0,0.0,0.0,0.0,0.0,0.0,0.0,0.0,0.0,0.0,0.0,0.0,0.0,0.0,0.0,0.0,0.0,0.0,0.0,0.0,0.0,0.0,0.0,0.0,0.0,0.0,0.0,0.0,0.0,0.0,0.0,0.0,0.0,0.0,0.0,0.0,0.0,0.0,0.0,0.0,0.0,0.0,0.0,0.0,0.0,0.0,0.0,0.0,0.0,0.0,0.0,0.0,0.0,0.0,0.0,0.0,0.0,0.0,0.0,0.0,0.0,0.0,0.0,0.0,0.0,0.0,0.0,0.0,0.0,0.0,0.0,0.0,0.0,0.0,0.0,0.0,0.0,0.0,0.0,0.0,0.0,0.0,0.0,0.0,0.0,0.0,0.0,0.0,0.0,0.0,0.0,0.0,0.0,0.0,0.0,0.0,0.0,0.0,0.0,0.0,0.0,0.0,0.0,0.0,-2.0527,-2.2543,-2.4365,-2.5077,-2.462,-2.1508,-1.9392,0.0,0.0,0.0,0.0,0.0,0.0,0.0,0.0,0.0,0.0,0.0,0.0,0.0,0.0,0.0,0.0,0.0,0.0,0.0,0.0,0.0,0.0,0.0,0.0,0.0,0.0,0.0,0.0,0.0,0.0,0.0,0.0,0.0,0.0,0.0,0.0,0.0,0.0,0.0,0.0,0.0,0.0,0.0,0.0,0.0,0.0,0.0,0.0,0.0,0.0,0.0,0.0,0.0,0.0,0.0,0.0,0.0,0.0,0.0,0.0,0.0,0.0,0.0,0.0,0.0,0.0,0.0,0.0,0.0,0.0,0.0,0.0,0.0,0.0,0.0,0.0,0.0,0.0,0.0,0.0,0.0,0.0,0.0,0.0,0.0,0.0,0.0,0.0,0.0,0.0,0.0,0.0,0.0,0.0,0.0,0.0,0.0,0.0,0.0,0.0,0.0,0.0,0.0,0.0,0.0,0.0,0.0,0.0,-2.162,-2.4033,-2.4865,-2.5308,-2.525,-2.3678,-2.1297,0.0,0.0,0.0,0.0,0.0,0.0,0.0,0.0,0.0,0.0,0.0,0.0,0.0,0.0,0.0,0.0,0.0,0.0,0.0,0.0,0.0,0.0,0.0,0.0,0.0,0.0,0.0,0.0,0.0,0.0,0.0,0.0,0.0,0.0,0.0,0.0,0.0,0.0,0.0,0.0,0.0,0.0,0.0,0.0,0.0,0.0,0.0,0.0,0.0,0.0,0.0,0.0,0.0,0.0,0.0,0.0,0.0,0.0,0.0,0.0,0.0,0.0,0.0,0.0,0.0,0.0,0.0,0.0,0.0,0.0,0.0,0.0,0.0,0.0,0.0,0.0,0.0,0.0,0.0,0.0,0.0,0.0,0.0,0.0,0.0,0.0,0.0,0.0,0.0,0.0,0.0,0.0,0.0,0.0,0.0,0.0,0.0,0.0,0.0,0.0,0.0,0.0,0.0,0.0,0.0,0.0,0.0,0.0,-2.2182,-2.4033,-2.4889,-2.5308,-2.5308,-2.3658,-2.1855,0.0,0.0,0.0,0.0,0.0,0.0,0.0,0.0,0.0,0.0,0.0,0.0,0.0,0.0,0.0,0.0,0.0,0.0,0.0,0.0,0.0,0.0,0.0,0.0,0.0,0.0,0.0,0.0,0.0,0.0,0.0,0.0,0.0,0.0,0.0,0.0,0.0,0.0,0.0,0.0,0.0,0.0,0.0,0.0,0.0,0.0,0.0,0.0,-0.9675,0.0,0.0,0.0,0.0,0.0,0.0,0.0,0.0,0.0,0.0,0.0,0.0,0.0,0.0,0.0,0.0,0.0,0.0,0.0,0.0,0.0,0.0,0.0,0.0,0.0,0.0,0.0,0.0,0.0,0.0,0.0,0.0,0.0,0.0,0.0,0.0,0.0,0.0,0.0,0.0,0.0,0.0,0.0,0.0,0.0,0.0,0.0,0.0,0.0,0.0,0.0,0.0,0.0,0.0,0.0,0.0,0.0,0.0,0.0,-2.2947,-2.4601,-2.5077,-2.5308,-2.5269,-2.4423,-2.2812,0.0,0.0,0.0,0.0,0.0,0.0,0.0,0.0,0.0,0.0,0.0,0.0,0.0,0.0,0.0,0.0,0.0,0.0,0.0,0.0,0.0,0.0,0.0,0.0,0.0,0.0,0.0,0.0,0.0,0.0,0.0,0.0,0.0,0.0,0.0,0.0,0.0,0.0,0.0,0.0,0.0,0.0,0.0,0.0,0.0,0.0,0.0,0.0,0.0,0.0,0.0,0.0,0.0,0.0,0.0,0.0,0.0,0.0,0.0,0.0,0.0,0.0,0.0,0.0,0.0,0.0,0.0,0.0,0.0,0.0,0.0,0.0,0.0,0.0,0.0,0.0,0.0,0.0,0.0,0.0,0.0,0.0,0.0,0.0,0.0,0.0,0.0,0.0,0.0,0.0,0.0,0.0,0.0,0.0,0.0,0.0,0.0,0.0,0.0,0.0,0.0,0.0,0.0,0.0,0.0,0.0,0.0,-2.12,-2.3485,-2.5212,-2.5308,-2.5308,-2.5308,-2.5308,-2.3726,-2.0423,0.0,0.0,0.0,0.0,0.0,0.0,0.0,0.0,0.0,0.0,0.0,0.0,0.0,0.0,0.0,0.0,0.0,0.0,0.0,0.0,0.0,0.0,0.0,0.0,0.0,0.0,0.0,0.0,0.0,0.0,0.0,0.0,0.0,0.0,0.0,0.0,0.0,0.0,-0.8366,-0.9378,0.0,0.0,0.0,0.0,0.0,0.0,0.0,0.0,-0.954,0.0,0.0,0.0,0.0,0.0,0.0,0.0,0.0,0.0,0.0,0.0,0.0,0.0,0.0,0.0,0.0,0.0,0.0,0.0,0.0,0.0,0.0,0.0,0.0,0.0,0.0,0.0,0.0,0.0,0.0,0.0,0.0,0.0,0.0,0.0,0.0,0.0,0.0,0.0,0.0,0.0,0.0,0.0,0.0,0.0,0.0,0.0,0.0,0.0,0.0,0.0,0.0,0.0,0.0,0.0,0.0,-2.1874,-2.1816,-2.2889,-2.5231,-2.5308,-2.5308,-2.5308,-2.5308,-2.3731,-2.0462,0.0,0.0,0.0,0.0,0.0,0.0,0.0,0.0,0.0,0.0,0.0,0.0,0.0,0.0,0.0,0.0,0.0,0.0,0.0,0.0,0.0,0.0,0.0,0.0,0.0,0.0,0.0,0.0,0.0,0.0,0.0,0.0,0.0,0.0,0.0,0.0,0.0,0.0,0.0,-1.0399,-1.0876,0.0,0.0,0.0,0.0,0.0,0.0,0.0,0.0,-1.0058,0.0,0.0,0.0,0.0,0.0,0.0,0.0,0.0,0.0,0.0,0.0,0.0,0.0,0.0,0.0,0.0,0.0,0.0,0.0,0.0,0.0,0.0,0.0,0.0,0.0,0.0,0.0,0.0,0.0,0.0,0.0,0.0,0.0,0.0,0.0,0.0,0.0,0.0,0.0,0.0,0.0,0.0,0.0,0.0,0.0,0.0,0.0,0.0,0.0,0.0,0.0,0.0,0.0,0.0,0.0,-2.072,-2.2562,-2.4058,-2.525,-2.5308,-2.5308,-2.5288,-2.4442,-2.2831,0.0,0.0,0.0,0.0,0.0,0.0,0.0,0.0,0.0,0.0,0.0,0.0,0.0,0.0,0.0,0.0,0.0,0.0,0.0,0.0,0.0,0.0,0.0,0.0,0.0,0.0,0.0,0.0,0.0,0.0,0.0,0.0,0.0,0.0,0.0,0.0,0.0,0.0,0.0,0.0,-1.0639,-1.1113,-1.1113,0.0,0.0,0.0,0.0,0.0,0.0,-1.0744,-1.0244,0.0,0.0,0.0,0.0,0.0,0.0,0.0,0.0,0.0,0.0,0.0,0.0,0.0,0.0,0.0,0.0,0.0,0.0,0.0,0.0,0.0,0.0,0.0,0.0,0.0,0.0,0.0,0.0,0.0,0.0,0.0,0.0,0.0,0.0,0.0,0.0,0.0,0.0,0.0,0.0,0.0,0.0,0.0,0.0,0.0,0.0,0.0,0.0,0.0,0.0,0.0,0.0,0.0,0.0,0.0,-1.9334,-2.2908,-2.4962,-2.5269,-2.5308,-2.5308,-2.5288,-2.4,-2.237,0.0,0.0,0.0,0.0,0.0,0.0,0.0,0.0,0.0,0.0,0.0,0.0,0.0,0.0,0.0,0.0,0.0,0.0,0.0,0.0,0.0,0.0,0.0,0.0,0.0,0.0,0.0,0.0,0.0,0.0,0.0,0.0,0.0,0.0,0.0,0.0,0.0,0.0,0.0,0.0,0.0,-1.1789,-1.1797,-1.2212,0.0,0.0,0.0,0.0,-1.2635,-1.1697,0.0,0.0,0.0,0.0,0.0,0.0,0.0,0.0,0.0,0.0,0.0,0.0,0.0,0.0,0.0,0.0,0.0,0.0,0.0,0.0,0.0,0.0,0.0,0.0,0.0,0.0,0.0,0.0,0.0,0.0,0.0,0.0,0.0,0.0,0.0,0.0,0.0,0.0,0.0,0.0,0.0,0.0,0.0,0.0,0.0,0.0,0.0,0.0,0.0,0.0,0.0,0.0,0.0,0.0,0.0,0.0,-2.0077,-2.2081,-2.3812,-2.5212,-2.5308,-2.5308,-2.5308,-2.5115,-2.3538,0.0,0.0,0.0,0.0,0.0,0.0,0.0,0.0,0.0,0.0,0.0,0.0,0.0,0.0,0.0,0.0,0.0,0.0,0.0,0.0,0.0,0.0,0.0,0.0,0.0,0.0,0.0,0.0,0.0,0.0,0.0,0.0,0.0,0.0,0.0,0.0,0.0,0.0,0.0,0.0,0.0,-1.4115,-1.4115,-1.3625,-1.3472,0.0,0.0,-1.3405,-1.4132,-1.4098,0.0,0.0,0.0,0.0,0.0,0.0,0.0,0.0,0.0,0.0,0.0,0.0,0.0,0.0,0.0,0.0,0.0,0.0,0.0,0.0,0.0,0.0,0.0,0.0,0.0,0.0,0.0,0.0,0.0,0.0,0.0,0.0,0.0,0.0,0.0,0.0,0.0,0.0,0.0,0.0,0.0,0.0,0.0,0.0,0.0,0.0,0.0,0.0,0.0,0.0,0.0,0.0,0.0,0.0,0.0,-1.783,-2.0288,-2.2885,-2.4577,-2.5269,-2.5308,-2.5308,-2.5288,-2.3904,-2.2019,0.0,0.0,0.0,0.0,0.0,0.0,0.0,0.0,0.0,0.0,0.0,0.0,0.0,0.0,0.0,0.0,0.0,0.0,0.0,0.0,0.0,0.0,0.0,0.0,0.0,0.0,0.0,0.0,0.0,0.0,0.0,0.0,0.0,0.0,0.0,0.0,0.0,0.0,0.0,0.0,0.0,0.0,-1.4639,-1.4682,0.0,0.0,0.0,-1.4776,-1.5071,0.0,0.0,0.0,0.0,0.0,0.0,0.0,0.0,0.0,0.0,0.0,0.0,0.0,0.0,0.0,0.0,0.0,0.0,0.0,0.0,0.0,0.0,0.0,0.0,0.0,0.0,0.0,0.0,0.0,0.0,0.0,0.0,0.0,0.0,0.0,0.0,0.0,0.0,0.0,0.0,0.0,0.0,0.0,0.0,0.0,0.0,0.0,0.0,0.0,0.0,0.0,0.0,0.0,0.0,0.0,0.0,0.0,-2.0308,-2.3596,-2.5308,-2.5308,-2.5308,-2.5308,-2.5269,-2.325,0.0,0.0,0.0,0.0,0.0,0.0,0.0,0.0,0.0,0.0,0.0,0.0,0.0,0.0,0.0,0.0,0.0,0.0,0.0,0.0,0.0,0.0,0.0,0.0,0.0,0.0,0.0,-0.5346,0.0,0.0,0.0,0.0,0.0,0.0,0.0,0.0,0.0,0.0,0.0,0.0,0.0,0.0,-1.4353,-1.5477,-1.5764,-1.5876,0.0,0.0,-1.596,-1.612,-1.5223,-1.4133,0.0,0.0,0.0,0.0,0.0,0.0,0.0,0.0,0.0,0.0,0.0,0.0,0.0,0.0,0.0,0.0,0.0,0.0,0.0,0.0,0.0,0.0,0.0,0.0,0.0,0.0,0.0,0.0,0.0,0.0,0.0,0.0,0.0,0.0,0.0,0.0,0.0,0.0,0.0,0.0,0.0,0.0,0.0,0.0,0.0,0.0,0.0,0.0,0.0,0.0,0.0,0.0,0.0,0.0,0.0,-2.0327,-2.3596,-2.5308,-2.5308,-2.5308,-2.5308,-2.5288,-2.4413,-2.274,0.0,0.0,0.0,0.0,0.0,0.0,0.0,0.0,0.0,0.0,0.0,0.0,0.0,0.0,0.0,0.0,0.0,0.0,0.0,0.0,0.0,0.0,0.0,0.0,0.0,0.0,0.0,0.0,0.0,0.0,0.0,0.0,0.0,0.0,0.0,0.0,0.0,0.0,0.0,0.0,0.0,-1.5967,-1.7405,-1.7044,-1.7111,0.0,0.0,-1.6857,-1.7546,-1.7557,-1.6775,-1.468,0.0,0.0,0.0,0.0,0.0,0.0,0.0,0.0,0.0,0.0,0.0,0.0,0.0,0.0,0.0,0.0,0.0,0.0,0.0,0.0,0.0,0.0,0.0,0.0,0.0,0.0,0.0,0.0,0.0,0.0,0.0,0.0,0.0,0.0,0.0,0.0,0.0,0.0,0.0,0.0,0.0,0.0,0.0,0.0,0.0,0.0,0.0,0.0,0.0,0.0,0.0,0.0,0.0,-1.8561,-2.0308,-2.3615,-2.5308,-2.5308,-2.5308,-2.5308,-2.5308,-2.4529,-2.2663,0.0,0.0,0.0,0.0,0.0,0.0,0.0,0.0,0.0,0.0,0.0,0.0,0.0,0.0,0.0,0.0,0.0,0.0,0.0,0.0,0.0,0.0,0.0,0.0,0.0,0.0,0.0,0.0,-0.8112,-0.8693,-0.9151,0.0,0.0,0.0,0.0,0.0,0.0,0.0,0.0,0.0,0.0,-1.7575,-1.859,-1.8876,0.0,0.0,-1.9299,-1.8674,-1.8504,-1.771,-1.6536,-1.4782,-1.3489,0.0,0.0,0.0,0.0,0.0,0.0,0.0,0.0,0.0,0.0,0.0,0.0,0.0,0.0,0.0,0.0,0.0,0.0,0.0,0.0,0.0,0.0,0.0,0.0,0.0,0.0,0.0,0.0,0.0,0.0,0.0,0.0,0.0,0.0,0.0,0.0,0.0,0.0,0.0,0.0,0.0,0.0,0.0,0.0,0.0,0.0,0.0,0.0,0.0,0.0,0.0,0.0,-1.8542,-2.0288,-2.3596,-2.5308,-2.5308,-2.5308,-2.5308,-2.5288,-2.4524,-2.2725,0.0,0.0,0.0,0.0,0.0,0.0,0.0,0.0,0.0,0.0,0.0,0.0,0.0,0.0,0.0,0.0,0.0,0.0,0.0,0.0,0.0,0.0,0.0,0.0,0.0,0.0,0.0,0.0,-0.8696,-0.9052,-0.9602,0.0,0.0,0.0,0.0,0.0,0.0,0.0,0.0,0.0,0.0,-1.8624,-1.9513,-2.0065,-2.056,-2.0973,-2.0247,-1.9473,-1.8978,-1.8042,-1.6857,-1.5409,0.0,0.0,0.0,0.0,0.0,0.0,0.0,0.0,0.0,0.0,0.0,0.0,0.0,0.0,0.0,0.0,0.0,0.0,0.0,0.0,0.0,0.0,0.0,0.0,0.0,0.0,0.0,0.0,0.0,0.0,-1.0275,0.0,0.0,0.0,0.0,0.0,0.0,0.0,0.0,0.0,0.0,0.0,0.0,0.0,0.0,0.0,0.0,0.0,0.0,0.0,0.0,0.0,0.0,-1.8581,-2.0327,-2.3615,-2.5308,-2.5308,-2.5308,-2.5308,-2.5288,-2.4524,-2.3263,-2.1446,0.0,0.0,0.0,0.0,0.0,0.0,0.0,0.0,0.0,0.0,0.0,0.0,0.0,0.0,0.0,0.0,0.0,0.0,0.0,0.0,0.0,0.0,0.0,0.0,0.0,0.0,-0.8513,-0.9158,-0.9574,0.0,0.0,0.0,0.0,0.0,0.0,0.0,0.0,0.0,0.0,-1.7393,-1.8974,-2.0183,-2.0395,-2.0741,-2.1483,-2.0111,-1.8961,-1.8944,-1.886,-1.8364,0.0,0.0,0.0,0.0,0.0,0.0,0.0,0.0,0.0,0.0,0.0,0.0,0.0,0.0,0.0,0.0,0.0,0.0,0.0,0.0,0.0,0.0,0.0,0.0,0.0,0.0,0.0,-1.5321,-1.4067,0.0,0.0,0.0,0.0,0.0,0.0,0.0,0.0,0.0,0.0,0.0,-2.1639,-2.3558,0.0,0.0,0.0,0.0,0.0,0.0,0.0,0.0,0.0,0.0,0.0,0.0,-1.9392,-2.1139,-2.3885,-2.5308,-2.5308,-2.5308,-2.5308,-2.5308,-2.5038,-2.3577,-2.0769,0.0,0.0,0.0,0.0,0.0,0.0,0.0,0.0,0.0,0.0,0.0,0.0,0.0,0.0,0.0,0.0,0.0,0.0,0.0,0.0,0.0,0.0,0.0,0.0,0.0,-0.9309,0.0,0.0,0.0,0.0,0.0,0.0,0.0,0.0,0.0,0.0,0.0,-1.5812,-1.6949,-1.9217,-2.0714,-2.0621,-2.1366,-2.1958,0.0,0.0,0.0,0.0,0.0,0.0,0.0,0.0,0.0,0.0,0.0,0.0,0.0,0.0,-1.6189,-1.366,-1.2731,-1.2406,-1.2495,0.0,0.0,0.0,0.0,0.0,0.0,0.0,0.0,0.0,0.0,0.0,0.0,0.0,0.0,-1.8532,0.0,-1.7197,0.0,0.0,0.0,0.0,0.0,0.0,0.0,0.0,-2.3407,-2.4841,-2.4644,-2.6274,-2.6197,0.0,-2.4005,-2.1855,0.0,0.0,0.0,0.0,0.0,0.0,0.0,0.0,-2.0277,-2.1966,-2.4154,-2.5308,-2.5308,-2.5308,-2.5308,-2.5288,-2.5038,-2.3716,-2.1235,-1.8715,-1.633,0.0,0.0,0.0,0.0,0.0,0.0,0.0,0.0,0.0,0.0,0.0,0.0,0.0,0.0,0.0,0.0,0.0,0.0,0.0,0.0,0.0,0.0,0.0,-0.9698,0.0,0.0,0.0,0.0,0.0,0.0,0.0,0.0,0.0,-1.4107,-1.5835,-1.755,-1.8744,-2.0774,-2.1959,-2.1335,0.0,0.0,0.0,0.0,0.0,0.0,0.0,-1.9599,-1.9333,-1.8736,-1.8245,-1.82,-1.8792,-1.9198,-1.8956,0.0,0.0,-1.5681,-1.4562,-1.4044,-1.4142,-1.3537,-1.3035,-1.3131,-1.2917,-1.2696,0.0,0.0,0.0,0.0,0.0,0.0,0.0,0.0,-2.1998,-2.194,0.0,-2.0927,0.0,0.0,0.0,0.0,0.0,-2.0537,0.0,0.0,-2.588,-2.7122,-2.7876,-2.7948,-2.7953,-2.7928,-2.7857,-2.6568,-2.4014,-2.005,0.0,0.0,0.0,0.0,0.0,0.0,-2.1177,-2.2812,-2.4462,-2.5308,-2.5308,-2.5308,-2.5308,-2.5288,-2.4562,-2.3744,-2.2797,-2.0423,-1.8308,-1.6622,-1.4143,0.0,0.0,0.0,0.0,0.0,0.0,0.0,0.0,0.0,0.0,0.0,0.0,0.0,0.0,0.0,0.0,0.0,0.0,0.0,0.0,-0.9698,0.0,0.0,0.0,0.0,0.0,0.0,0.0,0.0,0.0,0.0,-1.6859,-1.8049,-1.9425,-2.0873,0.0,0.0,0.0,0.0,-2.3084,-2.3042,-2.2035,-2.1241,-2.1241,-2.1207,-2.0936,-2.0187,0.0,0.0,-1.9283,-1.9608,-1.9879,-1.9164,-1.9625,-1.9811,-1.9046,-1.7202,-1.5981,-1.6304,-1.5163,-1.4192,-1.4481,-1.4404,-1.4154,-2.9055,0.0,0.0,0.0,0.0,-2.6095,-2.6908,-2.801,-2.7391,-2.642,-2.5221,-2.4385,0.0,0.0,0.0,0.0,0.0,0.0,-2.4841,-2.5952,-2.7612,-2.8516,-2.8761,-2.941,-2.9371,-2.8756,-2.8761,-2.8088,-2.6799,-2.5568,-2.272,-1.8376,0.0,0.0,0.0,0.0,-2.2624,-2.3701,-2.4774,-2.5308,-2.5308,-2.5308,-2.5308,-2.5308,-2.5077,-2.4562,-2.3764,-2.1831,-2.0,-1.8343,-1.5865,0.0,0.0,0.0,0.0,0.0,0.0,0.0,0.0,0.0,0.0,0.0,0.0,0.0,0.0,0.0,0.0,0.0,0.0,0.0,-0.9698,-0.9698,-1.0172,0.0,0.0,0.0,0.0,0.0,0.0,0.0,0.0,0.0,-1.9911,-2.0481,-2.0887,0.0,0.0,-2.2968,-2.2141,-2.2489,-2.2747,-2.2548,-2.2218,0.0,-2.1975,-2.1563,-2.1309,-2.1586,-2.1854,-2.182,-2.1383,-2.1515,-2.1569,-2.1333,-2.1059,-2.0771,-2.0547,-1.9587,-1.8824,-1.8812,-1.7774,-1.6849,-1.6866,-1.6158,-1.5433,-3.4195,-3.1371,-2.9491,-2.8853,-2.9055,-2.9379,-3.0095,-3.1043,-3.052,-2.9877,-2.9181,-2.8369,-2.7228,-2.5898,-2.507,0.0,0.0,0.0,-2.7796,-2.8657,-2.9663,-3.0292,-3.0602,-3.0814,-3.066,-3.014,-2.9794,-2.9198,-2.8376,-2.8371,-2.6236,-2.2162,0.0,0.0,-2.1831,-2.2816,-2.3721,-2.4548,-2.5058,-2.5308,-2.5308,-2.5308,-2.5308,-2.5308,-2.5308,-2.5058,-2.4562,-2.2928,-2.1389,-2.0035,-1.7558,-1.5429,0.0,0.0,0.0,0.0,0.0,0.0,0.0,0.0,0.0,0.0,0.0,-0.838,0.0,0.0,0.0,0.0,-1.0327,-1.0782,-1.108,-1.142,0.0,0.0,0.0,0.0,0.0,0.0,0.0,-1.8074,-1.9247,-2.0434,-2.1834,-2.2259,-2.2448,-2.2429,-2.3045,-2.3268,-2.2635,0.0,-2.2646,-2.2487,-2.2349,-2.2313,-2.2296,-2.1921,-2.1786,-2.2229,-2.2313,-2.2313,-2.2313,-2.2313,-2.2313,-2.2262,-2.1938,-2.1617,-2.1634,-2.1214,-2.0677,-2.012,-1.9269,-1.8656,-1.86,-1.7753,-1.6928,-3.7967,-3.6845,-3.3706,-3.1908,-3.1197,-3.1889,-3.2222,-3.2198,-3.214,-3.2527,-3.3126,-3.2295,-3.1449,-3.0651,-2.9873,0.0,-2.8372,-2.991,-3.1,-3.1804,-3.1804,-3.2171,-3.2833,-3.2141,-3.1788,-3.1775,-3.0981,-3.014,-2.9357,-2.9319,-2.8453,-2.6813,-2.6,-2.5159,-2.4336,-2.436,-2.474,-2.5404,-2.5404,-2.5385,-2.5308,-2.5308,-2.5308,-2.5308,-2.525,-2.5192,-2.5154,-2.3581,-2.2336,-2.1485,-1.9084,-1.6968,-1.5365,0.0,0.0,0.0,0.0,0.0,0.0,0.0,0.0,0.0,0.0,0.0,0.0,0.0,0.0,0.0,-1.1461,0.0,-1.3335,-1.4132,0.0,0.0,0.0,-1.6261,-1.7183,-1.8518,-1.9727,-2.0586,0.0,0.0,-2.2883,-2.348,-2.3876,-2.3806,-2.3624,-2.3526,-2.3504,-2.3047,-2.2725,-2.2699,-2.2474,-2.2313,-2.2313,-2.2262,-2.2245,-2.2296,-2.2313,-2.2313,-2.2313,-2.2313,-2.2313,-2.2313,-2.2296,-2.2279,-2.2296,-2.2212,-2.1874,-2.0504,-1.993,-1.9674,-1.9604,-1.9046,-1.8316,-4.023,-3.8824,-3.8011,-3.6806,-3.5433,-3.5602,-3.5704,-3.5626,-3.5027,-3.4524,-3.4021,-3.3184,-3.2314,-3.1541,-3.1979,-3.1699,-3.095,-3.1934,-3.2484,-3.2671,-3.2646,-3.2705,-3.2872,-3.2718,-3.2602,-3.2602,-3.241,-3.1872,-3.1102,-3.1083,-3.0198,-2.8569,-2.8319,-2.7472,-2.6082,-2.6664,-2.6755,-2.6294,-2.6294,-2.5981,-2.5327,-2.5308,-2.5308,-2.5288,-2.4697,-2.4394,-2.4356,-2.2735,-2.1716,-2.1442,-1.9061,-1.7237,-1.6234,-1.3967,0.0,0.0,0.0,0.0,0.0,0.0,0.0,0.0,0.0,-1.1244,-0.983,0.0,-1.2786,0.0,-1.3472,-1.4056,-1.4193,-1.4958,0.0,0.0,-1.7417,-1.8353,-2.0399,-2.0382,-2.0753,-2.2182,-2.2602,-2.301,-2.3563,-2.3749,-2.3816,-2.3806,-2.3753,-2.3667,-2.3508,-2.323,-2.294,-2.2725,-2.2474,-2.2296,-2.2313,-2.2313,-2.2313,-2.2313,-2.2313,-2.2313,-2.2313,-2.2313,-2.2313,-2.2313,-2.2313,-2.2313,-2.2313,-2.2313,-2.2195,-2.1775,-2.1019,-2.0364,-2.0334,-1.964,-1.8845,-4.1796,-4.0623,-4.0616,-3.9843,-3.8566,-3.7812,-3.7477,-3.7439,-3.7019,-3.6535,-3.6052,-3.5157,-3.4325,-3.3571,-3.4014,-3.3757,-3.3033,-3.379,-3.4159,-3.4159,-3.409,-3.4058,-3.4045,-3.3641,-3.3468,-3.3468,-3.3083,-3.266,-3.2237,-3.1865,-3.1198,-3.0256,-2.9871,-2.9217,-2.8308,-2.8025,-2.7659,-2.7178,-2.6794,-2.6173,-2.5346,-2.5308,-2.5308,-2.5308,-2.487,-2.4466,-2.4086,-2.2797,-2.1908,-2.1481,-1.9446,-1.8077,-1.7587,-1.5583,-1.4176,0.0,0.0,0.0,0.0,0.0,0.0,0.0,0.0,0.0,0.0,0.0,-1.4316,-1.4974,-1.5703,-1.6435,-1.7124,-1.7913,-1.8783,-1.9656,-2.0079,-2.0831,-2.2189,-2.2226,-2.2502,-2.3381,-2.3435,-2.3561,-2.3923,-2.3966,-2.3899,-2.3896,-2.3865,-2.3771,-2.3508,-2.317,-2.2863,-2.2729,-2.2474,-2.2313,-2.2313,-2.2313,-2.2313,-2.2313,-2.2313,-2.2313,-2.2313,-2.2313,-2.2313,-2.2313,-2.2313,-2.2313,-2.2313,-2.2313,-2.2313,-2.2231,-2.1815,-2.1404,-2.1356,-2.0811,-2.0132,-4.2957,-4.2164,-4.2164,-4.1699,-4.0835,-3.9321,-3.856,-3.8373,-3.8353,-3.8315,-3.8154,-3.7406,-3.669,-3.6013,-3.5836,-3.5392,-3.4775,-3.5338,-3.5623,-3.5598,-3.5522,-3.5489,-3.5462,-3.4718,-3.4353,-3.4321,-3.3603,-3.3179,-3.3045,-3.2352,-3.191,-3.1679,-3.0942,-3.0519,-3.0327,-2.8948,-2.8126,-2.789,-2.7044,-2.6192,-2.5327,-2.5308,-2.5308,-2.5308,-2.5192,-2.4774,-2.3956,-2.322,-2.2393,-2.1523,-2.0015,-1.9154,-1.9126,-1.7487,-1.6506,0.0,-1.5683,0.0,0.0,0.0,0.0,0.0,0.0,0.0,0.0,-1.5918,-1.6075,-1.7259,-1.81,-1.9161,-2.0548,-2.1437,-2.1941,-2.1978,-2.2666,-2.3171,-2.3189,-2.3786,-2.4199,-2.4199,-2.4208,-2.4161,-2.4103,-2.4094,-2.4064,-2.4006,-2.3937,-2.3824,-2.3576,-2.3157,-2.2868,-2.2764,-2.2484,-2.2313,-2.2313,-2.2313,-2.2313,-2.2313,-2.2313,-2.2313,-2.2313,-2.2313,-2.2313,-2.2313,-2.2313,-2.2313,-2.2313,-2.2313,-2.2313,-2.2296,-2.2248,-2.22,-2.2186,-2.1919,-2.1462,-4.3846,-4.3073,-4.3073,-4.257,-4.1757,-4.1429,-4.052,-3.9249,-3.9249,-3.8856,-3.8193,-3.8019,-3.7845,-3.7671,-3.6975,-3.6568,-3.6394,-3.5863,-3.5622,-3.5578,-3.5528,-3.5489,-3.55,-3.5327,-3.525,-3.5231,-3.5103,-3.4641,-3.3955,-3.3801,-3.3026,-3.1737,-3.1545,-3.1096,-3.0423,0.0,0.0,0.0,-2.7044,-2.6173,-2.5346,-2.5308,-2.5308,-2.5288,-2.4659,0.0,-2.3105,-2.2893,-2.2393,-2.1523,-2.0577,0.0,0.0,0.0,0.0,0.0,0.0,0.0,0.0,0.0,0.0,0.0,-1.83,-1.7553,-1.7283,-1.8653,-1.9653,-1.9822,-2.0592,-2.1225,-2.1528,-2.2299,-2.2776,-2.2813,-2.3492,-2.3969,-2.3988,-2.4107,-2.4199,-2.419,-2.4151,-2.4132,-2.4103,-2.4064,-2.4016,-2.4024,-2.3986,-2.3945,-2.3845,-2.3513,-2.3265,-2.3047,-2.2632,-2.2324,-2.2313,-2.2327,-2.2313,-2.2313,-2.2313,-2.2313,-2.2313,-2.2313,-2.2313,-2.2313,-2.2313,-2.2313,-2.2313,-2.2313,-2.2313,-2.2313,-2.2313,-2.2313,-2.2313,-2.2034,-2.1673,-4.4697,0.0,-4.3936,-4.344,0.0,-4.2647,-4.1912,-4.0713,-4.0313,-3.9907,-3.9456,-3.903,-3.8837,-3.8798,-3.7947,-3.7541,-3.7516,-3.7087,-3.6632,-3.6196,-3.6164,-3.5913,-3.55,-3.55,-3.55,-3.55,-3.55,-3.5269,-3.4834,-3.4417,-3.3526,-3.2314,-3.191,-3.125,-3.0423,-3.0404,-2.975,-2.8511,-2.7659,-2.6813,-2.5981,-2.5519,-2.5308,-2.5288,-2.4909,0.0,0.0,0.0,0.0,0.0,0.0,0.0,0.0,0.0,0.0,-1.9496,-1.9189,-1.9123,-1.9507,-1.9541,-2.0056,-2.1307,-2.1343,-2.066,-1.9241,-2.0554,-2.1532,-2.1711,-2.2144,-2.2556,-2.2951,-2.3345,-2.3593,-2.3621,-2.3951,-2.4199,-2.4199,-2.4199,-2.4199,-2.419,-2.417,-2.4161,-2.4133,-2.4113,-2.4094,-2.4112,-2.4074,-2.4054,-2.3968,-2.37,-2.3411,-2.314,-2.2773,-2.2497,-2.2487,-2.238,-2.2296,-2.2313,-2.2313,-2.2313,-2.2313,-2.2313,-2.2313,-2.2313,-2.2313,-2.2313,-2.2313,-2.2313,-2.2313,-2.2313,-2.2313,-2.2313,-2.2313,-2.2166,-2.1886,-4.5413,-4.4833,-4.4813,-4.4304,-4.3537,-4.3537,-4.3034,-4.2164,0.0,0.0,0.0,-4.0042,-3.9733,-3.9675,-3.8818,-3.8425,-3.8425,-3.8285,-3.7771,-3.7019,-3.6884,-3.642,-3.5712,-3.5577,-3.55,-3.55,-3.55,-3.55,-3.5481,-3.4776,-3.3987,-3.3122,-3.2314,-3.141,-3.0462,-3.0404,-3.0058,-2.9338,-2.853,-2.7621,-2.664,-2.5885,-2.5442,-2.5308,-2.5308,-2.4909,-2.4125,-2.4225,-2.3913,-2.3047,-2.1716,-2.16,-2.2874,-2.1581,-2.135,-2.2663,-2.2797,-2.2865,-2.3001,-2.2969,-2.2997,-2.3139,-2.3654,-2.3234,-2.1511,-2.2133,-2.2759,-2.3207,-2.3226,-2.3492,-2.4135,-2.4199,-2.4199,-2.4199,-2.4199,-2.4199,-2.4199,-2.4199,-2.4199,-2.4199,-2.4208,-2.4199,-2.419,-2.419,-2.4199,-2.4208,-2.4142,-2.4103,-2.4064,-2.3764,-2.3421,-2.3212,-2.2965,-2.276,-2.2721,-2.2555,-2.2394,-2.2408,-2.2352,-2.2313,-2.2313,-2.2313,-2.2313,-2.2313,-2.2313,-2.2313,-2.2313,-2.2313,-2.2313,-2.2313,-2.2313,-2.2313,-2.2313,-2.2313,-2.2109,-4.5729,-4.5652,-4.5633,-4.5162,-4.4407,-4.442,-4.3917,-4.2995,-4.1487,-4.0797,-4.0797,-4.0681,-4.0623,-4.0584,-3.9694,-3.9327,-3.9288,-3.8541,-3.8099,-3.7874,-3.7135,-3.6691,-3.65,-3.5827,-3.55,-3.55,-3.55,-3.55,-3.5481,-3.5365,-3.4891,-3.4007,-3.316,-3.1923,-3.0519,-3.0404,-3.0327,-3.0212,-2.9357,-2.8165,-2.664,-2.6486,-2.6058,-2.5346,-2.5308,-2.4928,-2.4168,-2.4755,-2.4755,-2.3975,-2.3701,-2.3682,-2.3855,-2.299,-2.2543,-2.2778,-2.2797,-2.3124,-2.3855,-2.3861,-2.4112,-2.4782,-2.4925,-2.4517,-2.3442,-2.3791,-2.4118,-2.4188,-2.4054,-2.4061,-2.4199,-2.4199,-2.4199,-2.4199,-2.4199,-2.4199,-2.4199,-2.4199,-2.4199,-2.4199,-2.4199,-2.4199,-2.4199,-2.4199,-2.4199,-2.4208,-2.418,-2.4161,-2.4046,-2.3764,-2.3518,-2.3429,-2.3218,-2.3072,-2.3005,-2.2812,-2.2663,-2.2663,-2.2446,-2.2313,-2.2313,-2.2313,-2.2313,-2.2313,-2.2313,-2.2313,-2.2313,-2.2313,-2.2313,-2.2313,-2.2313,-2.2313,-2.2313,-2.2313,-2.218,-4.5807,-4.5807,-4.5807,-4.5594,-4.522,-4.4794,-4.4388,-4.3904,-4.2686,-4.1874,-4.1416,-4.1009,-4.0797,-4.0777,-4.0371,-4.0216,-4.0197,-3.9785,-3.9335,-3.8788,-3.8402,-3.7688,-3.6799,-3.6368,-3.5951,-3.5519,-3.55,-3.55,-3.55,-3.55,-3.5058,-3.4167,-3.2891,-3.1621,-3.05,-3.0404,-3.0404,-3.0385,-2.9544,-2.8511,-2.7332,-2.6851,-2.6192,-2.5327,-2.5308,-2.5135,-2.4755,-2.5115,-2.5135,-2.4774,-2.4336,-2.4298,-2.4697,-2.3952,-2.3701,-2.412,-2.4159,-2.4332,-2.4716,-2.4686,-2.4802,-2.5159,-2.521,-2.5015,-2.4555,-2.4606,-2.4596,-2.4424,-2.4347,-2.4294,-2.4209,-2.4199,-2.4199,-2.4199,-2.4199,-2.4199,-2.4199,-2.4199,-2.4199,-2.4199,-2.4199,-2.4199,-2.4199,-2.4199,-2.4199,-2.4199,-2.4199,-2.418,-2.4103,-2.3937,-2.3795,-2.37,-2.3479,-2.3336,-2.3283,-2.2965,-2.2751,-2.2712,-2.2474,-2.2324,-2.2313,-2.2313,-2.2313,-2.2313,-2.2313,-2.2313,-2.2313,-2.2313,-2.2313,-2.2313,-2.2313,-2.2313,-2.2313,-2.2313,-2.218,-4.5807,-4.5807,-4.5807,-4.5807,-4.5742,-4.5142,-4.4871,-4.4775,-4.3962,-4.3111,-4.2241,-4.1429,-4.0971,-4.0797,-4.0797,-4.0797,-4.0797,-4.0797,-4.0404,-3.9734,-3.9503,-3.8678,-3.7436,-3.7006,-3.6446,-3.5809,-3.561,-3.5494,-3.55,-3.55,-3.5064,-3.4122,-3.2699,-3.1545,-3.0712,-3.05,-3.0404,-3.0346,-2.9756,-2.8992,-2.8184,-2.7332,-2.6481,-2.5673,-2.5404,-2.5308,-2.5308,-2.5308,-2.5308,-2.5269,-2.4697,-2.4659,-2.5231,-2.4697,-2.4639,-2.5212,-2.5308,-2.5298,-2.5288,-2.5233,-2.5209,-2.5216,-2.521,-2.521,-2.5185,-2.5057,-2.4832,-2.4524,-2.4434,-2.4347,-2.4219,-2.4199,-2.4199,-2.4199,-2.4199,-2.4199,-2.4199,-2.4199,-2.4199,-2.4199,-2.4199,-2.4199,-2.4199,-2.4199,-2.4199,-2.4199,-2.4199,-2.417,-2.4141,-2.4122,-2.4064,-2.3927,-2.3739,-2.3587,-2.3542,-2.3206,-2.2927,-2.2812,-2.2565,-2.2405,-2.2352,-2.2313,-2.2313,-2.2313,-2.2313,-2.2313,-2.2313,-2.2313,-2.2313,-2.2313,-2.2313,-2.2313,-2.2313,-2.2313,-2.218,-4.5807,-4.5807,-4.5807,-4.5807,-4.5787,-4.571,-4.5664,-4.5555,-4.4833,-4.4001,-4.3073,-4.226,-4.1467,-4.0855,-4.0797,-4.0797,-4.0797,-4.0797,-4.07,-4.0494,-3.9754,-3.9309,-3.8935,-3.754,-3.6749,-3.6568,-3.5868,-3.5502,-3.5488,-3.55,-3.5064,-3.4199,-3.3256,-3.2372,-3.1583,-3.0788,-3.0404,-3.0404,-3.0327,-2.9871,-2.9011,-2.8203,-2.7371,-2.65,-2.5692,-2.5308,-2.5308,-2.5308,-2.5308,-2.5308,-2.5212,-2.5212,-2.5269,-2.5212,-2.5212,-2.5308,-2.5308,-2.5288,-2.5228,-2.5217,-2.5209,-2.5216,-2.521,-2.521,-2.521,-2.518,-2.5038,-2.4727,-2.4518,-2.4364,-2.4228,-2.4209,-2.4209,-2.4199,-2.4199,-2.4199,-2.4199,-2.4199,-2.4199,-2.4199,-2.4199,-2.4199,-2.4199,-2.4199,-2.4199,-2.4199,-2.4199,-2.4208,-2.417,-2.4133,-2.4103,-2.4064,-2.3955,-2.3845,-2.3742,-2.358,-2.3301,-2.3096,-2.285,-2.2605,-2.2432,-2.2338,-2.2313,-2.2296,-2.2313,-2.2313,-2.2313,-2.2313,-2.2313,-2.2313,-2.2313,-2.2313,-2.2313,-2.2313,-2.2166,-4.5807,-4.5807,-4.5807,-4.5807,-4.5807,-4.5807,-4.5807,-4.5768,-4.5471,-4.4562,-4.3363,-4.2937,-4.2048,-4.0835,-4.0797,-4.0797,-4.0797,-4.0797,-4.0784,-4.0733,-4.0385,-3.9921,-3.9297,-3.8228,-3.736,-3.6749,-3.592,-3.5502,-3.5502,-3.5494,-3.5064,-3.4263,-3.3814,-3.3006,-3.1795,-3.1346,-3.0923,-3.0423,-3.0404,-3.0231,-2.9756,-2.8582,-2.7491,-2.6621,-2.575,-2.5308,-2.5308,-2.5308,-2.5308,-2.5308,-2.5308,-2.5308,-2.5308,-2.5308,-2.5308,-2.5308,-2.5308,-2.5293,-2.5276,-2.5217,-2.5215,-2.5214,-2.5203,-2.521,-2.521,-2.521,-2.5095,-2.4872,-2.4753,-2.4596,-2.4347,-2.433,-2.4284,-2.4218,-2.4199,-2.4199,-2.4199,-2.4199,-2.4199,-2.4199,-2.4199,-2.4199,-2.4199,-2.4199,-2.4199,-2.4199,-2.4218,-2.4254,-2.4208,-2.417,-2.4133,-2.4103,-2.4046,-2.3986,-2.3876,-2.3639,-2.3479,-2.3318,-2.3109,-2.2833,-2.2605,-2.2542,-2.2501,-2.2338,-2.2296,-2.2313,-2.2313,-2.2313,-2.2313,-2.2313,-2.2313,-2.2313,-2.2313,-2.2313,-2.2209,-4.5807,-4.5807,-4.5807,-4.5807,-4.5807,-4.5807,-4.5807,-4.5807,-4.5807,-4.4987,-4.3711,-4.3421,-4.2512,-4.1235,-4.0913,-4.0797,-4.0797,-4.0797,-4.0797,-4.0797,-4.0797,-4.0436,-3.9747,-3.8936,-3.8073,-3.7173,-3.6337,-3.5779,-3.5547,-3.5495,-3.5167,-3.4609,-3.4334,-3.3487,-3.216,-3.1852,-3.1269,-3.0481,-3.0404,-3.0404,-3.0212,-2.8986,-2.7832,-2.6986,-2.6115,-2.5558,-2.5308,-2.5308,-2.5308,-2.5308,-2.5308,-2.5308,-2.5308,-2.5308,-2.5308,-2.5308,-2.5308,-2.5298,-2.5292,-2.5252,-2.5231,-2.5204,-2.5214,-2.5203,-2.5203,-2.5216,-2.515,-2.5006,-2.498,-2.484,-2.4551,-2.4442,-2.4355,-2.4275,-2.4237,-2.4199,-2.4199,-2.4199,-2.4199,-2.4199,-2.4199,-2.4199,-2.4236,-2.4401,-2.4575,-2.4585,-2.4566,-2.453,-2.4465,-2.4373,-2.418,-2.4141,-2.4123,-2.4074,-2.3955,-2.3813,-2.3617,-2.3473,-2.3289,-2.3074,-2.2782,-2.2725,-2.2619,-2.2377,-2.2338,-2.2313,-2.2313,-2.2313,-2.2313,-2.2313,-2.2313,-2.2313,-2.2313,-2.2313,-2.2313,-4.5807,-4.5807,-4.5807,-4.5807,-4.5807,-4.5807,-4.5807,-4.5807,-4.5807,-4.5297,-4.442,-4.3634,-4.2802,-4.1854,-4.1126,-4.0797,-4.0797,-4.0797,-4.0797,-4.0797,-4.0797,-4.0777,-4.0681,-3.9868,-3.898,-3.8092,-3.714,-3.6298,-3.5534,-3.549,-3.5483,-3.5365,-3.4667,-3.3782,-3.2872,-3.2122,-3.1288,-3.0596,-3.0423,-3.0404,-3.0308,-2.9506,-2.8684,-2.7852,-2.6986,-2.6135,-2.5462,-2.5308,-2.5308,-2.5308,-2.5308,-2.5308,-2.5308,-2.5308,-2.5308,-2.5308,-2.5308,-2.5298,-2.5297,-2.5306,-2.5257,-2.5212,-2.5209,-2.5212,-2.5212,-2.5208,-2.5185,-2.518,-2.5225,-2.5133,-2.4742,-2.4548,-2.4441,-2.4399,-2.4275,-2.4228,-2.4199,-2.4199,-2.4199,-2.4208,-2.4281,-2.4346,-2.43,-2.4879,-2.5264,-2.5356,-2.5356,-2.5356,-2.5246,-2.475,-2.4355,-2.4263,-2.4235,-2.4151,-2.4026,-2.3937,-2.3806,-2.3678,-2.3529,-2.3306,-2.298,-2.2694,-2.2561,-2.2415,-2.2352,-2.2313,-2.2313,-2.2313,-2.2313,-2.2313,-2.2313,-2.2313,-2.2313,-2.2313,-2.2313,-4.5807,-4.5807,-4.5807,-4.5807,-4.5807,-4.5807,-4.5807,-4.5807,-4.5807,-4.5336,-4.4543,-4.3692,-4.2821,-4.1951,-4.1164,-4.0797,-4.0797,-4.0797,-4.0797,-4.0797,-4.0797,-4.0797,-4.07,-3.9907,-3.9359,-3.8883,-3.7583,-3.6433,-3.5662,-3.556,-3.5541,-3.5489,-3.52,-3.4591,-3.3744,-3.2891,-3.2064,-3.1269,-3.0712,-3.0404,-3.0385,-3.0077,-2.9525,-2.864,-2.7313,-2.6442,-2.6154,-2.5596,-2.5308,-2.5308,-2.5308,-2.5308,-2.5308,-2.5308,-2.5308,-2.5308,-2.5308,-2.5303,-2.5293,-2.5302,-2.5306,-2.5257,-2.5217,-2.5215,-2.5215,-2.5212,-2.5214,-2.5291,-2.5707,-2.5685,-2.5133,-2.4832,-2.4682,-2.4583,-2.4444,-2.433,-2.4302,-2.4247,-2.4199,-2.4273,-2.4603,-2.497,-2.5099,-2.5668,-2.6135,-2.6153,-2.6153,-2.6153,-2.6043,-2.5474,-2.497,-2.486,-2.4548,-2.4198,-2.4151,-2.4094,-2.4006,-2.3907,-2.3764,-2.3488,-2.3189,-2.2975,-2.2824,-2.2457,-2.2352,-2.2313,-2.2313,-2.2313,-2.2313,-2.2313,-2.2313,-2.2313,-2.2313,-2.2313,-2.2313,-4.5807,-4.5807,-4.5807,-4.5807,-4.5807,-4.5807,-4.5807,-4.5807,-4.5807,-4.549,-4.4871,-4.4098,-4.3382,-4.2705,-4.1699,-4.1177,-4.1145,-4.0932,-4.0797,-4.0797,-4.0797,-4.0797,-4.0719,-4.0197,-3.9752,-3.9268,-3.7717,-3.6566,-3.604,-3.5725,-3.5598,-3.5547,-3.5547,-3.5104,-3.4206,-3.3352,-3.2519,-3.1698,-3.0827,-3.0404,-3.0404,-3.0404,-3.0115,-2.941,-2.814,-2.7121,-2.664,-2.6024,-2.5558,-2.5346,-2.5308,-2.5308,-2.5308,-2.5308,-2.5308,-2.5308,-2.5308,-2.5308,-2.5308,-2.5307,-2.5302,-2.5302,-2.5262,-2.5222,-2.5222,-2.5201,-2.5319,-2.5646,-2.605,-2.621,-2.6091,-2.5901,-2.5522,-2.4937,-2.4599,-2.4501,-2.4512,-2.4347,-2.4385,-2.465,-2.5044,-2.5429,-2.5815,-2.6502,-2.6906,-2.6979,-2.6979,-2.6979,-2.6888,-2.6319,-2.5797,-2.5742,-2.5117,-2.474,-2.4565,-2.4436,-2.4177,-2.4052,-2.3976,-2.3703,-2.3392,-2.3206,-2.2933,-2.2579,-2.2366,-2.2324,-2.2313,-2.2313,-2.2313,-2.2313,-2.2313,-2.2313,-2.2313,-2.2313,-2.2313,-4.5807,-4.5807,-4.5807,-4.5814,-4.5827,-4.5827,-4.5814,-4.5821,-4.5815,-4.577,-4.557,-4.4885,-4.4408,-4.4124,-4.2615,-4.1938,-4.1757,-4.1138,-4.0809,-4.0797,-4.0797,-4.0797,-4.0797,-4.0719,-4.0216,-3.9443,-3.7773,-3.6944,-3.6746,-3.6026,-3.5589,-3.5584,-3.5598,-3.5174,-3.4276,-3.3537,-3.2639,-3.1826,-3.0987,-3.0481,-3.0404,-3.0404,-3.0365,-3.0231,-2.9448,-2.8294,-2.6813,-2.6601,-2.6159,-2.5481,-2.5327,-2.5308,-2.5308,-2.5308,-2.5308,-2.5308,-2.5308,-2.5308,-2.5308,-2.5303,-2.5303,-2.5303,-2.5302,-2.533,-2.544,-2.54,-2.568,-2.6372,-2.6667,-2.6859,-2.7427,-2.7542,-2.6911,-2.532,-2.5096,-2.5016,-2.4872,-2.463,-2.4699,-2.5297,-2.5625,-2.5815,-2.6521,-2.731,-2.7769,-2.7805,-2.7805,-2.7805,-2.7732,-2.7108,-2.6667,-2.6465,-2.5952,-2.5438,-2.5117,-2.4805,-2.4454,-2.4177,-2.4102,-2.3945,-2.3544,-2.3277,-2.3025,-2.2681,-2.2394,-2.2324,-2.2313,-2.2313,-2.2313,-2.2313,-2.2313,-2.2313,-2.2313,-2.2313,-2.2313,-4.5807,-4.5807,-4.5807,-4.5848,-4.5922,-4.5947,-4.5927,-4.5939,-4.5969,-4.5964,-4.5778,-4.5049,-4.468,-4.4273,-4.2851,-4.205,-4.1925,-4.1241,-4.0859,-4.0815,-4.0797,-4.0797,-4.0797,-4.0797,-4.0352,-3.9443,-3.8353,-3.7477,-3.6878,-3.6104,-3.5656,-3.5614,-3.5614,-3.5455,-3.5109,-3.4306,-3.3465,-3.2607,-3.1754,-3.1024,-3.0462,-3.0404,-3.0404,-3.0365,-3.0135,-2.9448,-2.8352,-2.7217,-2.6505,-2.6197,-2.5615,-2.5308,-2.5308,-2.5308,-2.5308,-2.5308,-2.5308,-2.5308,-2.5308,-2.5308,-2.5308,-2.5308,-2.5298,-2.5625,-2.6105,-2.6161,-2.651,-2.7319,-2.7844,-2.8178,-2.7879,-2.8275,-2.8014,-2.6962,-2.6662,-2.6461,-2.6367,-2.6216,-2.6228,-2.6403,-2.68,-2.7166,-2.7475,-2.8117,-2.8539,-2.8546,-2.8576,-2.8565,-2.8473,-2.7897,-2.7457,-2.7365,-2.6741,-2.6227,-2.5988,-2.5521,-2.4924,-2.4556,-2.4353,-2.412,-2.3721,-2.3421,-2.3134,-2.2833,-2.2538,-2.2363,-2.2338,-2.2313,-2.2313,-2.2313,-2.2313,-2.2313,-2.2313,-2.2313,-2.2313,-4.5807,-4.5814,-4.5841,-4.5929,-4.6007,-4.6018,-4.6022,-4.6046,-4.608,-4.6092,-4.589,-4.5472,-4.522,-4.4928,-4.3722,-4.2913,-4.2514,-4.1755,-4.1202,-4.0897,-4.0802,-4.0797,-4.0803,-4.0831,-4.0596,-3.9968,-3.9165,-3.8307,-3.7434,-3.6642,-3.6032,-3.5727,-3.5664,-3.5674,-3.5587,-3.4777,-3.3914,-3.3032,-3.2177,-3.1289,-3.0593,-3.0447,-3.0469,-3.0439,-3.0433,-3.0144,-2.9552,-2.8268,-2.739,-2.7005,-2.6255,-2.5673,-2.5365,-2.5308,-2.5308,-2.5308,-2.5308,-2.5308,-2.5308,-2.5308,-2.5308,-2.5308,-2.5308,-2.5673,-2.6365,-2.6605,-2.7036,-2.8153,-2.8679,-2.8937,-2.8817,-2.9111,-2.9168,-2.8696,-2.7864,-2.7528,-2.7399,-2.7153,-2.7121,-2.7278,-2.7588,-2.7893,-2.8301,-2.8583,-2.8987,-2.8987,-2.8987,-2.8987,-2.8895,-2.8565,-2.8338,-2.8062,-2.7548,-2.7163,-2.6979,-2.6311,-2.5476,-2.5007,-2.4649,-2.4277,-2.3876,-2.3671,-2.3427,-2.3019,-2.2695,-2.2544,-2.2508,-2.2366,-2.2313,-2.2313,-2.2324,-2.2313,-2.2313,-2.2313,-2.2313,-4.5821,-4.5834,-4.5964,-4.6017,-4.6027,-4.6076,-4.6105,-4.6105,-4.6118,-4.6118,-4.6089,-4.6008,-4.6027,-4.5875,-4.4939,-4.4095,-4.3432,-4.25,-4.1653,-4.112,-4.0883,-4.0837,-4.0848,-4.0883,-4.0839,-4.0678,-3.996,-3.9153,-3.8205,-3.7352,-3.6632,-3.5852,-3.5768,-3.58,-3.5648,-3.4905,-3.4085,-3.3119,-3.2329,-3.15,-3.0523,-3.054,-3.0561,-3.0515,-3.0495,-3.0457,-3.0254,-2.954,-2.8697,-2.7915,-2.6948,-2.6154,-2.5558,-2.5346,-2.5308,-2.5308,-2.5308,-2.5308,-2.5308,-2.5308,-2.5308,-2.5308,-2.5462,-2.575,-2.6621,-2.7024,-2.7648,-2.8972,-2.9254,-2.9486,-2.9979,-3.0158,-3.012,-2.9991,-2.8873,-2.8081,-2.7625,-2.7514,-2.777,-2.808,-2.8081,-2.8128,-2.8808,-2.895,-2.8987,-2.8987,-2.8987,-2.8987,-2.8968,-2.8858,-2.895,-2.862,-2.8143,-2.8026,-2.7787,-2.6649,-2.5888,-2.5576,-2.5016,-2.4315,-2.3996,-2.3806,-2.3631,-2.3242,-2.294,-2.2811,-2.2673,-2.2548,-2.2432,-2.2419,-2.2391,-2.2338,-2.2313,-2.2313,-2.2313,-4.5953,-4.5969,-4.605,-4.6102,-4.6145,-4.6162,-4.6186,-4.6171,-4.6216,-4.6228,-4.6173,-4.6167,-4.6167,-4.6069,-4.5289,-4.4373,-4.3476,-4.268,-4.1813,-4.1091,-4.0979,-4.0953,-4.0953,-4.0972,-4.0983,-4.085,-4.0178,-3.9243,-3.8383,-3.7598,-3.6679,-3.583,-3.5819,-3.5814,-3.5722,-3.5541,-3.4607,-3.3365,-3.2979,-3.2054,-3.0792,-3.0597,-3.0607,-3.0584,-3.0574,-3.0586,-3.0586,-3.0362,-2.9437,-2.7983,-2.7082,-2.6519,-2.6192,-2.5635,-2.5308,-2.5308,-2.5308,-2.5308,-2.5308,-2.5308,-2.5308,-2.5365,-2.5846,-2.6621,-2.7491,-2.8107,-2.8904,-2.9835,-3.0065,-3.0092,-3.0279,-3.0311,-3.0292,-3.0241,-2.9691,-2.9395,-2.932,-2.93,-2.9214,-2.9195,-2.8991,-2.8941,-2.8945,-2.8987,-2.8987,-2.8987,-2.8987,-2.8987,-2.8987,-2.8987,-2.8987,-2.8987,-2.873,-2.8712,-2.8308,-2.7134,-2.6355,-2.6117,-2.5373,-2.428,-2.4034,-2.3855,-2.3692,-2.3448,-2.3253,-2.3092,-2.294,-2.2789,-2.2695,-2.2521,-2.2405,-2.2324,-2.2327,-2.2313,-2.2313,-4.6027,-4.6054,-4.6115,-4.616,-4.6204,-4.6237,-4.624,-4.6243,-4.6288,-4.6288,-4.6242,-4.6221,-4.6241,-4.6163,-4.5693,-4.4768,-4.3643,-4.3111,-4.223,-4.1202,-4.108,-4.1057,-4.1011,-4.1034,-4.105,-4.1015,-4.0567,-3.9657,-3.8622,-3.7939,-3.71,-3.6106,-3.5889,-3.5889,-3.589,-3.5812,-3.5197,-3.3962,-3.3439,-3.2542,-3.1301,-3.0835,-3.0684,-3.0662,-3.0655,-3.0642,-3.061,-3.0603,-2.9897,-2.8603,-2.7658,-2.7022,-2.6568,-2.5769,-2.5308,-2.5308,-2.5308,-2.5308,-2.5308,-2.5308,-2.5308,-2.5442,-2.6096,-2.6967,-2.7799,-2.8626,-2.9467,-3.0212,-3.0385,-3.0379,-3.0342,-3.0316,-3.0298,-3.0292,-3.0266,-3.0252,-3.0252,-2.9954,-2.9859,-2.9706,-2.9485,-2.9262,-2.9127,-2.9067,-2.9017,-2.8987,-2.8987,-2.8987,-2.8987,-2.8987,-2.8987,-2.8987,-2.8987,-2.8913,-2.851,-2.7446,-2.6539,-2.6282,-2.5328,-2.4262,-2.4094,-2.3945,-2.3886,-2.3735,-2.3544,-2.3369,-2.3236,-2.3033,-2.2742,-2.2584,-2.2429,-2.2338,-2.231,-2.2313,-2.2313,-4.6044,-4.6115,-4.6171,-4.6207,-4.6234,-4.6269,-4.6289,-4.6289,-4.6289,-4.6289,-4.6289,-4.6289,-4.6289,-4.6289,-4.5937,-4.5215,-4.3711,-4.3379,-4.2461,-4.1562,-4.1172,-4.114,-4.1061,-4.1103,-4.1112,-4.1116,-4.119,-4.0137,-3.8945,-3.8516,-3.7598,-3.6367,-3.5996,-3.5996,-3.5976,-3.5927,-3.5453,-3.4571,-3.391,-3.3015,-3.2019,-3.1373,-3.1029,-3.0731,-3.0726,-3.0706,-3.0647,-3.0597,-3.0205,-2.9418,-2.8581,-2.7815,-2.6978,-2.6102,-2.5606,-2.5538,-2.5558,-2.55,-2.5365,-2.5423,-2.55,-2.5692,-2.6423,-2.714,-2.8082,-2.8915,-2.966,-3.0327,-3.0385,-3.0404,-3.0398,-3.0348,-3.0316,-3.0323,-3.0318,-3.0318,-3.0273,-3.0092,-2.9935,-2.9904,-2.957,-2.9416,-2.9293,-2.9214,-2.9078,-2.9104,-2.9082,-2.9067,-2.9033,-2.8987,-2.8987,-2.8987,-2.8987,-2.8987,-2.8436,-2.775,-2.6943,-2.6264,-2.5107,-2.4217,-2.4208,-2.4103,-2.4113,-2.4016,-2.3837,-2.3692,-2.3588,-2.3318,-2.2908,-2.2673,-2.2561,-2.2419,-2.2313,-2.2313,-2.2313,-4.618,-4.6173,-4.6243,-4.6288,-4.6288,-4.6289,-4.6289,-4.6289,-4.6289,-4.6289,-4.6289,-4.6289,-4.6289,-4.6269,-4.5664,-4.4687,-4.3672,-4.3008,-4.209,-4.1348,-4.1191,-4.1191,-4.1152,-4.1172,-4.1172,-4.1172,-4.1191,-4.0254,-3.9004,-3.8457,-3.7715,-3.623,-3.6016,-3.6016,-3.5996,-3.5957,-3.5547,-3.4785,-3.4473,-3.3594,-3.2441,-3.1973,-3.1504,-3.0937,-3.0852,-3.0805,-3.077,-3.0762,-3.0626,-3.0233,-2.958,-2.8892,-2.8399,-2.77,-2.6988,-2.6468,-2.6308,-2.6038,-2.5591,-2.5962,-2.6332,-2.6442,-2.7525,-2.864,-2.8813,-2.9583,-3.0096,-3.0404,-3.0404,-3.0404,-3.0404,-3.0398,-3.0373,-3.0367,-3.038,-3.0374,-3.0349,-3.0286,-3.0128,-3.0,-2.9907,-2.9792,-2.9635,-2.9514,-2.9397,-2.9272,-2.9206,-2.9171,-2.9104,-2.9055,-2.9044,-2.9067,-2.9005,-2.8987,-2.8675,-2.7952,-2.7034,-2.6245,-2.5107,-2.4245,-2.4226,-2.4199,-2.418,-2.417,-2.4123,-2.4006,-2.3837,-2.3466,-2.3038,-2.2875,-2.2664,-2.2457,-2.2324,-2.231,-2.2313,-4.6212,-4.6243,-4.6288,-4.6289,-4.6289,-4.6289,-4.6289,-4.6289,-4.6289,-4.6289,-4.6289,-4.6289,-4.6289,-4.6269,-4.5762,-4.4961,-4.3594,-4.2402,-4.1621,-4.125,-4.1191,-4.1191,-4.1191,-4.1191,-4.1191,-4.1191,-4.1191,-4.0215,-3.9023,-3.8476,-3.7715,-3.6152,-3.6016,-3.6016,-3.6016,-3.6016,-3.5781,-3.5332,-3.4863,-3.4043,-3.2949,-3.2363,-3.1797,-3.1094,-3.0916,-3.0873,-3.0868,-3.0822,-3.0774,-3.0638,-3.0268,-2.9726,-2.9165,-2.8439,-2.7726,-2.7353,-2.7203,-2.7044,-2.6788,-2.6909,-2.7203,-2.7236,-2.8415,-2.8896,-2.93,-2.989,-3.0346,-3.0404,-3.0404,-3.0404,-3.0404,-3.0404,-3.0404,-3.0404,-3.0404,-3.0404,-3.0398,-3.0343,-3.028,-3.0122,-3.0003,-2.9915,-2.9817,-2.9729,-2.9616,-2.9465,-2.9445,-2.9395,-2.9345,-2.9291,-2.9185,-2.916,-2.9055,-2.8962,-2.8822,-2.8136,-2.7045,-2.6219,-2.5319,-2.4622,-2.4281,-2.4245,-2.419,-2.419,-2.418,-2.4151,-2.3966,-2.3573,-2.3242,-2.3074,-2.2859,-2.2538,-2.2352,-2.2366,-2.2338,-4.6262,-4.6289,-4.6289,-4.6289,-4.6289,-4.6289,-4.6289,-4.6289,-4.6289,-4.6289,-4.6289,-4.6289,-4.6289,-4.625,-4.6055,-4.5058,-4.3457,-4.207,-4.123,-4.1211,-4.1191,-4.1191,-4.1191,-4.1191,-4.1191,-4.1191,-4.1191,-4.0234,-3.9023,-3.8476,-3.7676,-3.6289,-3.6016,-3.6016,-3.6016,-3.6016,-3.5957,-3.5781,-3.5312,-3.4414,-3.3437,-3.2715,-3.2012,-3.1094,-3.0916,-3.0894,-3.0891,-3.0866,-3.0821,-3.08,-3.0751,-3.0255,-2.9509,-2.8777,-2.8156,-2.8151,-2.8068,-2.7871,-2.7717,-2.7895,-2.8088,-2.8107,-2.8871,-2.9275,-2.9544,-2.9948,-3.0288,-3.0404,-3.0404,-3.0404,-3.0404,-3.0404,-3.0404,-3.0404,-3.0404,-3.0404,-3.0379,-3.0348,-3.0323,-3.0286,-3.0182,-3.0066,-2.9973,-2.9893,-2.9775,-2.9672,-2.9662,-2.9635,-2.958,-2.9465,-2.9324,-2.9195,-2.91,-2.9028,-2.8877,-2.8356,-2.7265,-2.6366,-2.5521,-2.4897,-2.441,-2.4245,-2.4199,-2.4199,-2.418,-2.4161,-2.4054,-2.3714,-2.3444,-2.3295,-2.3054,-2.2751,-2.2575,-2.2432,-2.238,-4.6289,-4.6289,-4.6289,-4.6289,-4.6289,-4.6289,-4.6289,-4.6289,-4.6289,-4.6289,-4.6289,-4.6289,-4.6289,-4.6133,-4.5488,-4.4258,-4.2793,-4.168,-4.1191,-4.1191,-4.1191,-4.1191,-4.1191,-4.1191,-4.1191,-4.1191,-4.1133,-4.0273,-3.8984,-3.8516,-3.7637,-3.6367,-3.6016,-3.6016,-3.6016,-3.6016,-3.6016,-3.6016,-3.5723,-3.4922,-3.3672,-3.2949,-3.2246,-3.1054,-3.0916,-3.0915,-3.0911,-3.0888,-3.0865,-3.0819,-3.0732,-3.0606,-3.0324,-3.0044,-2.9583,-2.9082,-2.8912,-2.872,-2.8338,-2.8607,-2.8838,-2.9083,-2.9621,-3.0077,-3.0173,-3.0269,-3.0385,-3.0404,-3.0404,-3.0404,-3.0404,-3.0404,-3.0404,-3.0404,-3.0404,-3.0404,-3.0404,-3.0379,-3.0373,-3.0361,-3.0305,-3.0254,-3.0143,-3.008,-3.0,-2.9926,-2.9875,-2.9828,-2.9751,-2.958,-2.9355,-2.9238,-2.9115,-2.9055,-2.8968,-2.8338,-2.7523,-2.6678,-2.5833,-2.5062,-2.4622,-2.4309,-2.4199,-2.4199,-2.4199,-2.419,-2.4016,-2.3788,-2.3671,-2.3518,-2.3259,-2.2982,-2.276,-2.2571,-2.2457,-4.6289,-4.6289,-4.6289,-4.6289,-4.6289,-4.6289,-4.6289,-4.6289,-4.6289,-4.6289,-4.6289,-4.6289,-4.6289,-4.6074,-4.5391,-4.4023,-4.2558,-4.1562,-4.123,-4.1191,-4.1191,-4.1191,-4.1191,-4.1191,-4.1191,-4.1191,-4.1113,-4.0293,-3.8769,-3.8613,-3.7617,-3.6406,-3.6016,-3.6016,-3.6016,-3.6016,-3.6016,-3.6016,-3.5918,-3.5156,-3.3437,-3.2734,-3.1601,-3.1191,-3.0917,-3.0916,-3.0914,-3.0912,-3.0889,-3.0842,-3.0758,-3.072,-3.0669,-3.0571,-3.0324,-2.9897,-2.9776,-2.9643,-2.9272,-2.9602,-2.975,-2.9813,-3.0198,-3.0365,-3.0404,-3.0385,-3.0404,-3.0404,-3.0404,-3.0404,-3.0404,-3.0404,-3.0404,-3.0404,-3.0404,-3.0404,-3.0404,-3.0404,-3.0404,-3.0398,-3.0329,-3.0286,-3.0286,-3.0241,-3.0215,-3.0174,-3.0107,-3.0019,-2.9918,-2.9706,-2.9485,-2.9334,-2.9228,-2.9089,-2.901,-2.8613,-2.7695,-2.6814,-2.6172,-2.5401,-2.4677,-2.4309,-2.4199,-2.4199,-2.4199,-2.4199,-2.4103,-2.3927,-2.3837,-2.3735,-2.3448,-2.3183,-2.2933,-2.2734,-2.2594,-4.6289,-4.6289,-4.6289,-4.6289,-4.6289,-4.6289,-4.6289,-4.6289,-4.6289,-4.6289,-4.6289,-4.6289,-4.6191,-4.5762,-4.4844,-4.3613,-4.2324,-4.1562,-4.123,-4.1191,-4.1191,-4.1191,-4.1191,-4.1191,-4.1191,-4.1191,-4.1172,-4.0273,-3.8906,-3.8613,-3.7578,-3.6465,-3.6016,-3.6016,-3.6016,-3.6016,-3.6016,-3.6016,-3.5976,-3.5137,-3.3652,-3.209,-3.1152,-3.1094,-3.0996,-3.0917,-3.0916,-3.0915,-3.0913,-3.0868,-3.0796,-3.0757,-3.0743,-3.0689,-3.063,-3.0536,-3.0522,-3.0482,-3.0418,-3.0334,-3.0287,-3.0293,-3.0364,-3.0385,-3.0404,-3.0404,-3.0404,-3.0404,-3.0404,-3.0404,-3.0404,-3.0404,-3.0404,-3.0404,-3.0404,-3.0404,-3.0404,-3.0404,-3.0404,-3.0373,-3.0342,-3.0336,-3.0336,-3.0329,-3.0292,-3.0254,-3.0208,-3.0214,-3.0097,-2.991,-2.9697,-2.9504,-2.9334,-2.9138,-2.9044,-2.9017,-2.797,-2.6796,-2.6337,-2.5805,-2.4961,-2.4218,-2.4199,-2.4199,-2.4199,-2.419,-2.4103,-2.4074,-2.4006,-2.3876,-2.3631,-2.3392,-2.3135,-2.2903,-2.2773,-4.6289,-4.6289,-4.6289,-4.6289,-4.6289,-4.6289,-4.6289,-4.6289,-4.6289,-4.6289,-4.6289,-4.6211,-4.5801,-4.4883,-4.3476,-4.2676,-4.2148,-4.1601,-4.1191,-4.1191,-4.1191,-4.1191,-4.1191,-4.1191,-4.1191,-4.1191,-4.1191,-4.0176,-3.8984,-3.8613,-3.7676,-3.6348,-3.6016,-3.6016,-3.6016,-3.6016,-3.6016,-3.6016,-3.5996,-3.5469,-3.4414,-3.2871,-3.2168,-3.1797,-3.1406,-3.0957,-3.0937,-3.0916,-3.0915,-3.0913,-3.0892,-3.0869,-3.0864,-3.0862,-3.0801,-3.0697,-3.0626,-3.0575,-3.0564,-3.0505,-3.0487,-3.0467,-3.0433,-3.0402,-3.0404,-3.0404,-3.0404,-3.0404,-3.0404,-3.0404,-3.0404,-3.0404,-3.0404,-3.0404,-3.0404,-3.0404,-3.0404,-3.0404,-3.0404,-3.0404,-3.0373,-3.0373,-3.0373,-3.0373,-3.0367,-3.0329,-3.0317,-3.0299,-3.0247,-3.0041,-2.9817,-2.9598,-2.9494,-2.9314,-2.9171,-2.9134,-2.8209,-2.6883,-2.6465,-2.6062,-2.5016,-2.4199,-2.4199,-2.4199,-2.4199,-2.4199,-2.4161,-2.4151,-2.4141,-2.4064,-2.3907,-2.3631,-2.334,-2.3129,-2.2977,-4.6289,-4.6289,-4.6289,-4.6289,-4.6289,-4.6289,-4.6289,-4.6289,-4.6289,-4.6289,-4.6191,-4.5742,-4.4824,-4.3594,-4.2617,-4.2148,-4.1738,-4.1348,-4.1191,-4.1191,-4.1191,-4.1191,-4.1191,-4.1191,-4.1191,-4.1191,-4.1016,-4.0234,-3.9121,-3.8437,-3.7715,-3.625,-3.6016,-3.6016,-3.6016,-3.6016,-3.6016,-3.5879,-3.5547,-3.5098,-3.4492,-3.3555,-3.2656,-3.2246,-3.1836,-3.1426,-3.1055,-3.0918,-3.0917,-3.0916,-3.0915,-3.0914,-3.0913,-3.0891,-3.0866,-3.0839,-3.0799,-3.0718,-3.0626,-3.0568,-3.0543,-3.051,-3.0472,-3.0449,-3.0414,-3.0404,-3.0404,-3.0404,-3.0404,-3.0404,-3.0404,-3.0404,-3.0404,-3.0404,-3.0404,-3.0404,-3.0404,-3.0404,-3.0404,-3.0404,-3.0404,-3.0404,-3.0404,-3.0379,-3.0379,-3.0367,-3.0342,-3.0355,-3.028,-3.0109,-2.9888,-2.9652,-2.9579,-2.9514,-2.9385,-2.9243,-2.835,-2.7235,-2.6652,-2.6046,-2.4824,-2.4199,-2.4199,-2.4199,-2.4199,-2.4199,-2.4199,-2.419,-2.417,-2.418,-2.419,-2.3868,-2.3577,-2.3482,-2.33,-4.6289,-4.6289,-4.6289,-4.6289,-4.6289,-4.6289,-4.6289,-4.6289,-4.6289,-4.6172,-4.5703,-4.4844,-4.3555,-4.2598,-4.2187,-4.1738,-4.125,-4.1191,-4.1191,-4.1191,-4.1191,-4.1191,-4.1191,-4.1191,-4.1191,-4.1191,-4.1191,-4.0215,-3.9101,-3.8418,-3.7715,-3.6094,-3.6016,-3.6016,-3.6016,-3.6016,-3.6016,-3.5957,-3.5488,-3.5195,-3.4922,-3.4219,-3.3516,-3.3008,-3.2559,-3.2109,-3.1387,-3.1269,-3.1269,-3.0917,-3.0917,-3.0916,-3.0915,-3.0914,-3.0894,-3.0891,-3.0886,-3.0833,-3.0728,-3.0664,-3.0597,-3.0564,-3.0506,-3.0477,-3.0433,-3.0414,-3.0404,-3.0404,-3.0404,-3.0404,-3.0404,-3.0404,-3.0404,-3.0404,-3.0404,-3.0404,-3.0404,-3.0404,-3.0404,-3.0404,-3.0404,-3.0404,-3.0404,-3.0404,-3.0404,-3.0404,-3.0404,-3.0404,-3.0311,-3.0189,-3.004,-2.9848,-2.9771,-2.9713,-2.9551,-2.9193,-2.8293,-2.7625,-2.7042,-2.6185,-2.5054,-2.4383,-2.4199,-2.4199,-2.4199,-2.4199,-2.4199,-2.4199,-2.4199,-2.4199,-2.417,-2.4016,-2.3827,-2.3735,-2.3522,-4.6289,-4.6289,-4.6289,-4.6289,-4.6289,-4.6289,-4.6289,-4.6289,-4.6289,-4.582,-4.4922,-4.3496,-4.2695,-4.2226,-4.1699,-4.1348,-4.1191,-4.1191,-4.1191,-4.1191,-4.1191,-4.1191,-4.1191,-4.1191,-4.1191,-4.1191,-4.1172,-4.0215,-3.8984,-3.8594,-3.7559,-3.625,-3.6035,-3.6016,-3.6016,-3.6016,-3.6016,-3.5996,-3.5781,-3.5781,-3.5566,-3.5059,-3.4531,-3.4277,-3.3672,-3.293,-3.2168,-3.2012,-3.1719,-3.1113,-3.0957,-3.0918,-3.0917,-3.0917,-3.0916,-3.0915,-3.0914,-3.0889,-3.0838,-3.0753,-3.0687,-3.065,-3.0579,-3.0515,-3.0487,-3.0433,-3.0408,-3.0408,-3.0419,-3.0396,-3.039,-3.0404,-3.0404,-3.0404,-3.0404,-3.0404,-3.0404,-3.0404,-3.0404,-3.0404,-3.0404,-3.0404,-3.0404,-3.0404,-3.0404,-3.0404,-3.0404,-3.0404,-3.0404,-3.0305,-3.0241,-3.0102,-3.0025,-2.9908,-2.9729,-2.9276,-2.8811,-2.8119,-2.7452,-2.6509,-2.5441,-2.4935,-2.4475,-2.4199,-2.4199,-2.4199,-2.4199,-2.4199,-2.4199,-2.4199,-2.4151,-2.4064,-2.3927,-2.3806,-2.3518,-4.6289,-4.6289,-4.6289,-4.6289,-4.6289,-4.6289,-4.6289,-4.6289,-4.6289,-4.5469,-4.4121,-4.2969,-4.2129,-4.1699,-4.1445,-4.1191,-4.1191,-4.1191,-4.1191,-4.1191,-4.1191,-4.1191,-4.1191,-4.1191,-4.1191,-4.1191,-4.1113,-4.0293,-3.8769,-3.8613,-3.7519,-3.6523,-3.6035,-3.6016,-3.6016,-3.6016,-3.6016,-3.6016,-3.6016,-3.6016,-3.5918,-3.5723,-3.5254,-3.4668,-3.4512,-3.375,-3.3008,-3.2441,-3.207,-3.166,-3.1191,-3.0976,-3.0918,-3.0918,-3.0918,-3.0918,-3.0916,-3.0916,-3.0915,-3.0846,-3.0792,-3.0689,-3.0601,-3.0548,-3.0568,-3.0546,-3.0496,-3.0492,-3.0476,-3.0441,-3.039,-3.0404,-3.0404,-3.0404,-3.0404,-3.0404,-3.0404,-3.0404,-3.0404,-3.0404,-3.0404,-3.0404,-3.0404,-3.0404,-3.0404,-3.0404,-3.0404,-3.0404,-3.0404,-3.0404,-3.0317,-3.0292,-3.0202,-3.0129,-2.9958,-2.9685,-2.9425,-2.8678,-2.7895,-2.6979,-2.6073,-2.5413,-2.497,-2.4585,-2.4218,-2.4199,-2.4199,-2.4199,-2.4199,-2.4199,-2.419,-2.4161,-2.4016,-2.3886,-2.3646,-4.6289,-4.6289,-4.6289,-4.6289,-4.6289,-4.6289,-4.6289,-4.625,-4.5996,-4.4941,-4.3262,-4.2402,-4.1758,-4.1308,-4.1191,-4.1191,-4.1191,-4.1191,-4.1191,-4.1191,-4.1191,-4.1191,-4.1191,-4.1191,-4.1191,-4.1191,-4.1055,-4.0312,-3.8652,-3.8613,-3.7539,-3.6504,-3.6016,-3.6016,-3.6016,-3.6016,-3.6016,-3.6016,-3.6016,-3.6016,-3.5996,-3.5937,-3.5801,-3.5215,-3.5098,-3.4629,-3.3828,-3.3125,-3.248,-3.1973,-3.1445,-3.0976,-3.0918,-3.0918,-3.0918,-3.0918,-3.0918,-3.0918,-3.0918,-3.0895,-3.0869,-3.0768,-3.0665,-3.0647,-3.0633,-3.0617,-3.0579,-3.0535,-3.0518,-3.0501,-3.0439,-3.0433,-3.0419,-3.0414,-3.041,-3.0404,-3.0404,-3.0404,-3.0404,-3.0404,-3.0404,-3.0404,-3.0404,-3.0404,-3.0404,-3.0404,-3.0404,-3.0404,-3.0404,-3.0404,-3.0398,-3.0361,-3.0355,-3.0267,-3.017,-2.998,-2.9756,-2.9244,-2.8455,-2.766,-2.6837,-2.6073,-2.5394,-2.497,-2.4622,-2.4328,-2.4199,-2.4199,-2.4199,-2.4199,-2.419,-2.418,-2.4161,-2.4026,-2.3955,-4.6287,-4.6306,-4.6304,-4.6306,-4.6289,-4.6289,-4.6289,-4.6035,-4.5234,-4.4023,-4.2558,-4.1699,-4.1328,-4.1191,-4.1191,-4.1191,-4.1191,-4.1191,-4.1191,-4.1191,-4.1191,-4.1191,-4.1191,-4.1191,-4.1191,-4.1191,-4.1055,-4.0293,-3.8613,-3.8613,-3.7578,-3.6465,-3.6016,-3.6016,-3.6016,-3.6016,-3.6016,-3.6016,-3.6016,-3.6016,-3.6016,-3.6016,-3.5898,-3.582,-3.5742,-3.5293,-3.4687,-3.3848,-3.3144,-3.2422,-3.1621,-3.1133,-3.0918,-3.0918,-3.0918,-3.0918,-3.0918,-3.0918,-3.0918,-3.0918,-3.0894,-3.085,-3.0747,-3.0732,-3.0696,-3.0669,-3.063,-3.0603,-3.0593,-3.0572,-3.0537,-3.0492,-3.0462,-3.0422,-3.0419,-3.0404,-3.0404,-3.0404,-3.0404,-3.0404,-3.0404,-3.0404,-3.0404,-3.0404,-3.0404,-3.0404,-3.0404,-3.0404,-3.0404,-3.0404,-3.0404,-3.0404,-3.0404,-3.0361,-3.0299,-3.0292,-3.0054,-2.9588,-2.9049,-2.8324,-2.7297,-2.6262,-2.5704,-2.5341,-2.4778,-2.4273,-2.4209,-2.4199,-2.4199,-2.4199,-2.4199,-2.419,-2.4199,-2.417,-2.4054,-4.6304,-4.6304,-4.6302,-4.6303,-4.6306,-4.6288,-4.5995,-4.5234,-4.3965,-4.293,-4.2324,-4.1543,-4.1191,-4.1191,-4.1191,-4.1191,-4.1191,-4.1191,-4.1191,-4.1191,-4.1191,-4.1191,-4.1191,-4.1191,-4.1191,-4.1191,-4.1055,-4.0254,-3.8613,-3.8516,-3.7539,-3.6406,-3.6016,-3.6016,-3.6016,-3.6016,-3.6016,-3.6016,-3.6016,-3.6016,-3.6016,-3.6016,-3.6016,-3.6016,-3.6016,-3.582,-3.5449,-3.459,-3.375,-3.293,-3.209,-3.1465,-3.1035,-3.0918,-3.0918,-3.0918,-3.0918,-3.0918,-3.0918,-3.0918,-3.0917,-3.0876,-3.0852,-3.0825,-3.0842,-3.0813,-3.0751,-3.0682,-3.0669,-3.0633,-3.0575,-3.0576,-3.0535,-3.0482,-3.0455,-3.0408,-3.0404,-3.0404,-3.0404,-3.0404,-3.0404,-3.0404,-3.0404,-3.0404,-3.0404,-3.0404,-3.0404,-3.0404,-3.0404,-3.0404,-3.0404,-3.0404,-3.0404,-3.0398,-3.0373,-3.0348,-3.0241,-2.9855,-2.9526,-2.9133,-2.7993,-2.6767,-2.607,-2.5745,-2.4948,-2.4201,-2.4209,-2.42,-2.4199,-2.4199,-2.4199,-2.4199,-2.4199,-2.4161,-2.4084,-4.6123,-4.5849,-4.5847,-4.5672,-4.5477,-4.5737,-4.5211,-4.404,-4.287,-4.2245,-4.1855,-4.1367,-4.1172,-4.1191,-4.1191,-4.1191,-4.1191,-4.1191,-4.1191,-4.1191,-4.1191,-4.1191,-4.1191,-4.1191,-4.1191,-4.1133,-4.0723,-3.9922,-3.8613,-3.8262,-3.7324,-3.6328,-3.6016,-3.6016,-3.6016,-3.6016,-3.6016,-3.6016,-3.6016,-3.6016,-3.6016,-3.6016,-3.6016,-3.6016,-3.6016,-3.5976,-3.5762,-3.5176,-3.4297,-3.3476,-3.2637,-3.1816,-3.1211,-3.0918,-3.0918,-3.0918,-3.0918,-3.0918,-3.0918,-3.0918,-3.0918,-3.0917,-3.0918,-3.0916,-3.0915,-3.0891,-3.0845,-3.0794,-3.0764,-3.0698,-3.0661,-3.065,-3.061,-3.0556,-3.0509,-3.0472,-3.0439,-3.0444,-3.0411,-3.0406,-3.0404,-3.0404,-3.0404,-3.0404,-3.0404,-3.0404,-3.0404,-3.0404,-3.0404,-3.0404,-3.0404,-3.0404,-3.0404,-3.0398,-3.0398,-3.0379,-3.026,-3.0068,-2.9843,-2.9631,-2.8885,-2.7694,-2.6915,-2.6033,-2.5143,-2.445,-2.4257,-2.4201,-2.42,-2.4209,-2.4199,-2.4199,-2.4199,-2.4161,-2.4122,-4.5726,-4.5022,-4.4956,-4.4524,-4.3962,-4.4559,-4.3938,-4.2475,-4.2358,-4.1852,-4.1131,-4.117,-4.1132,-4.1191,-4.1191,-4.1191,-4.1191,-4.1191,-4.1191,-4.1191,-4.1172,-4.1191,-4.1191,-4.1191,-4.1191,-4.0898,-4.043,-3.9687,-3.8594,-3.7637,-3.6738,-3.6211,-3.6016,-3.6016,-3.6016,-3.6016,-3.6016,-3.6016,-3.6016,-3.6016,-3.6016,-3.6016,-3.6016,-3.6016,-3.6016,-3.6016,-3.5781,-3.5293,-3.4473,-3.3633,-3.2773,-3.1894,-3.1289,-3.0937,-3.0918,-3.0918,-3.0918,-3.0918,-3.0918,-3.0918,-3.0918,-3.0918,-3.0918,-3.0918,-3.0917,-3.0916,-3.0893,-3.0872,-3.0867,-3.0799,-3.0746,-3.0712,-3.0676,-3.0642,-3.0587,-3.0552,-3.0518,-3.0496,-3.0452,-3.043,-3.0408,-3.0385,-3.0404,-3.0404,-3.0385,-3.0404,-3.0404,-3.0404,-3.0404,-3.0404,-3.0404,-3.0404,-3.0404,-3.0404,-3.0404,-3.0404,-3.0355,-3.0189,-3.0162,-2.9909,-2.9209,-2.8477,-2.7463,-2.6405,-2.5323,-2.4683,-2.434,-2.4192,-2.4201,-2.42,-2.4199,-2.4199,-2.4199,-2.4199,-2.417,-4.4314,-4.4078,-4.4057,-4.3918,-4.3666,-4.3299,-4.2838,-4.2357,-4.1772,-4.1284,-4.1109,-4.1108,-4.1129,-4.113,-4.1133,-4.113,-4.113,-4.1133,-4.1113,-4.113,-4.1151,-4.1132,-4.1152,-4.1172,-4.1191,-4.0879,-4.0293,-3.9375,-3.8418,-3.7246,-3.6406,-3.6035,-3.6016,-3.6016,-3.6016,-3.6016,-3.6016,-3.6016,-3.6016,-3.6016,-3.6016,-3.6016,-3.6016,-3.6016,-3.6016,-3.6016,-3.5859,-3.5742,-3.5059,-3.4316,-3.3496,-3.2676,-3.1934,-3.1289,-3.0918,-3.0918,-3.0918,-3.0918,-3.0918,-3.0918,-3.0918,-3.0918,-3.0918,-3.0918,-3.0918,-3.0917,-3.0916,-3.0916,-3.0915,-3.0851,-3.0828,-3.0804,-3.0773,-3.0716,-3.0676,-3.0647,-3.0594,-3.0556,-3.0536,-3.0477,-3.046,-3.0414,-3.0408,-3.039,-3.039,-3.0385,-3.0404,-3.0404,-3.0404,-3.0404,-3.0404,-3.0404,-3.0404,-3.0404,-3.0404,-3.0404,-3.0386,-3.0336,-3.0286,-3.0171,-2.9674,-2.8877,-2.7842,-2.6662,-2.5391,-2.4691,-2.4275,-2.421,-2.4219,-2.42,-2.4199,-2.4199,-2.4199,-2.4199,-2.4199,-4.3489,-4.3196,-4.3177,-4.3001,-4.2612,-4.2123,-4.1894,-4.1785,-4.1317,-4.1102,-4.1104,-4.1104,-4.1105,-4.1108,-4.1108,-4.1108,-4.1108,-4.1108,-4.1108,-4.1108,-4.1109,-4.111,-4.113,-4.1131,-4.1152,-4.0781,-4.0039,-3.9043,-3.8183,-3.6992,-3.6016,-3.6016,-3.6016,-3.6016,-3.6016,-3.6016,-3.6016,-3.6016,-3.6016,-3.6016,-3.6016,-3.6016,-3.6016,-3.6016,-3.6016,-3.6016,-3.6016,-3.6016,-3.5547,-3.4863,-3.4062,-3.334,-3.2383,-3.1406,-3.0937,-3.0918,-3.0918,-3.0918,-3.0918,-3.0918,-3.0918,-3.0918,-3.0918,-3.0918,-3.0918,-3.0918,-3.0918,-3.0917,-3.0917,-3.0916,-3.0916,-3.0896,-3.0851,-3.0784,-3.0756,-3.0728,-3.0685,-3.0638,-3.0597,-3.0567,-3.0511,-3.046,-3.0442,-3.0419,-3.0396,-3.0385,-3.0404,-3.0404,-3.0404,-3.0404,-3.0404,-3.0404,-3.0404,-3.0404,-3.0404,-3.0404,-3.0392,-3.0386,-3.0361,-3.0209,-2.9909,-2.9053,-2.7822,-2.6574,-2.5306,-2.476,-2.433,-2.4257,-2.4247,-2.4228,-2.4209,-2.4199,-2.4199,-2.4199,-2.4199,-4.3001,-4.2298,-4.2279,-4.1888,-4.1187,-4.1168,-4.1168,-4.1109,-4.113,-4.1112,-4.1117,-4.1117,-4.1101,-4.1103,-4.1104,-4.1104,-4.1104,-4.1104,-4.1103,-4.1106,-4.1106,-4.1106,-4.1107,-4.1108,-4.0992,-4.0465,-3.9606,-3.8533,-3.7928,-3.6855,-3.6016,-3.6016,-3.6016,-3.6015,-3.6015,-3.6015,-3.6015,-3.6014,-3.6015,-3.6016,-3.6016,-3.6016,-3.6016,-3.6016,-3.6016,-3.6016,-3.6016,-3.5879,-3.5644,-3.5098,-3.4492,-3.3809,-3.25,-3.1406,-3.1035,-3.0918,-3.0918,-3.0918,-3.0918,-3.0918,-3.0918,-3.0918,-3.0918,-3.0918,-3.0918,-3.0918,-3.0918,-3.0918,-3.0918,-3.0918,-3.0918,-3.0918,-3.0877,-3.0855,-3.0833,-3.0809,-3.0781,-3.0718,-3.065,-3.0616,-3.057,-3.0525,-3.0428,-3.04,-3.0402,-3.039,-3.0404,-3.0404,-3.0404,-3.0404,-3.0404,-3.0404,-3.0404,-3.0404,-3.0404,-3.0404,-3.0404,-3.0404,-3.0404,-3.0379,-3.0183,-2.9076,-2.7727,-2.639,-2.5111,-2.4792,-2.4471,-2.4419,-2.433,-2.4247,-2.421,-2.42,-2.4209,-2.4209,-2.4199,-4.1597,-4.142,-4.142,-4.1265,-4.1109,-4.1109,-4.1109,-4.1109,-4.1109,-4.1111,-4.1111,-4.1112,-4.1114,-4.1115,-4.1116,-4.1116,-4.1116,-4.1117,-4.1115,-4.1116,-4.1099,-4.1004,-4.1044,-4.0909,-4.0716,-4.0013,-3.9057,-3.7906,-3.6969,-3.6287,-3.6015,-3.6016,-3.6015,-3.6014,-3.6014,-3.6014,-3.6013,-3.6012,-3.6013,-3.6015,-3.6016,-3.6016,-3.6016,-3.6016,-3.6016,-3.6016,-3.6016,-3.5976,-3.5898,-3.5664,-3.498,-3.3848,-3.2305,-3.1387,-3.0957,-3.0918,-3.0918,-3.0918,-3.0918,-3.0918,-3.0918,-3.0918,-3.0918,-3.0918,-3.0918,-3.0918,-3.0918,-3.0918,-3.0918,-3.0918,-3.0918,-3.0918,-3.0918,-3.0918,-3.0918,-3.0879,-3.0859,-3.08,-3.0708,-3.067,-3.0633,-3.0552,-3.0451,-3.0392,-3.0394,-3.0402,-3.039,-3.0404,-3.0404,-3.0404,-3.0404,-3.0404,-3.0404,-3.0404,-3.0404,-3.0404,-3.0404,-3.0404,-3.0404,-3.0404,-3.0346,-2.8985,-2.7518,-2.6101,-2.4974,-2.4768,-2.4626,-2.4559,-2.4476,-2.4373,-2.4284,-2.4294,-2.4238,-2.4229,-2.4209,-4.1109,-4.1109,-4.1109,-4.1109,-4.1109,-4.1109,-4.1109,-4.1109,-4.1109,-4.1109,-4.1109,-4.1109,-4.1109,-4.1109,-4.1109,-4.1109,-4.1109,-4.1109,-4.1111,-4.1111,-4.0975,-4.0782,-4.0726,-4.0494,-3.9947,-3.9284,-3.8409,-3.7316,-3.6186,-3.6011,-3.6013,-3.6013,-3.6013,-3.6012,-3.6011,-3.601,-3.6009,-3.6009,-3.6009,-3.6012,-3.6015,-3.6016,-3.6016,-3.6016,-3.6016,-3.6016,-3.6016,-3.6016,-3.5996,-3.5566,-3.4766,-3.3945,-3.2637,-3.1601,-3.1016,-3.0918,-3.0918,-3.0918,-3.0918,-3.0918,-3.0918,-3.0918,-3.0918,-3.0918,-3.0918,-3.0918,-3.0918,-3.0918,-3.0918,-3.0918,-3.0918,-3.0918,-3.0918,-3.0918,-3.0918,-3.0898,-3.0879,-3.0855,-3.0771,-3.0697,-3.0639,-3.0603,-3.0515,-3.0449,-3.0428,-3.04,-3.0402,-3.039,-3.0385,-3.0404,-3.0404,-3.0404,-3.0404,-3.0404,-3.0404,-3.0404,-3.0404,-3.0404,-3.0404,-3.0,-2.9648,-2.8545,-2.7278,-2.5879,-2.5018,-2.4915,-2.4797,-2.4727,-2.4663,-2.4601,-2.4491,-2.44,-2.4329,-2.4266,-2.4238,-4.1109,-4.1109,-4.1109,-4.1109,-4.1109,-4.1109,-4.1109,-4.1109,-4.1109,-4.1109,-4.1109,-4.1109,-4.1109,-4.1109,-4.1109,-4.1109,-4.1109,-4.1109,-4.1109,-4.0855,-4.0816,-4.0291,-3.986,-3.9606,-3.9101,-3.84,-3.7542,-3.6844,-3.6046,-3.6009,-3.601,-3.6009,-3.6009,-3.6008,-3.6007,-3.6006,-3.6006,-3.6004,-3.6005,-3.6009,-3.6011,-3.6012,-3.6015,-3.6015,-3.6016,-3.6016,-3.6016,-3.6016,-3.6016,-3.5488,-3.4668,-3.3867,-3.3027,-3.1992,-3.1269,-3.1016,-3.0918,-3.0918,-3.0918,-3.0918,-3.0918,-3.0918,-3.0918,-3.0918,-3.0918,-3.0918,-3.0918,-3.0918,-3.0918,-3.0918,-3.0918,-3.0918,-3.0918,-3.0918,-3.0918,-3.0918,-3.0898,-3.0879,-3.0807,-3.0724,-3.0691,-3.0646,-3.0595,-3.0516,-3.0476,-3.0425,-3.0406,-3.0408,-3.039,-3.0385,-3.0404,-3.0404,-3.0404,-3.0404,-3.0404,-3.0404,-3.0404,-3.0404,-3.0308,-2.9673,-2.8994,-2.8255,-2.7192,-2.5692,-2.5037,-2.5013,-2.4968,-2.4877,-2.4843,-2.4802,-2.4719,-2.4599,-2.4518,-2.4442,-2.4302,-4.1109,-4.1109,-4.1109,-4.1109,-4.1109,-4.1109,-4.1109,-4.1109,-4.1109,-4.1109,-4.1109,-4.1109,-4.1109,-4.1109,-4.1109,-4.1109,-4.1109,-4.109,-4.0561,-4.0132,-4.0229,-3.9605,-3.8961,-3.8609,-3.8238,-3.7557,-3.6815,-3.6268,-3.6021,-3.6004,-3.6005,-3.6005,-3.6005,-3.6005,-3.6004,-3.6002,-3.6018,-3.6017,-3.6017,-3.6021,-3.6006,-3.6009,-3.6013,-3.6014,-3.6015,-3.6015,-3.6016,-3.6016,-3.6016,-3.5684,-3.4961,-3.4082,-3.3223,-3.2324,-3.1523,-3.0996,-3.0918,-3.0918,-3.0918,-3.0918,-3.0918,-3.0918,-3.0918,-3.0918,-3.0918,-3.0918,-3.0918,-3.0918,-3.0918,-3.0918,-3.0918,-3.0918,-3.0918,-3.0918,-3.0918,-3.0918,-3.0918,-3.0898,-3.0855,-3.08,-3.0764,-3.0709,-3.0661,-3.0614,-3.0574,-3.051,-3.0451,-3.0444,-3.0425,-3.0408,-3.041,-3.041,-3.041,-3.0404,-3.0404,-3.0404,-3.0404,-3.0404,-3.0212,-2.9596,-2.8962,-2.8327,-2.7174,-2.5877,-2.5297,-2.519,-2.5126,-2.5037,-2.4993,-2.4936,-2.4889,-2.4818,-2.4719,-2.4572,-2.4425]},{"header":{"parameterUnit":"m.s-1","parameterCategory":1,"la1":31.0,"la2":29.5877,"lo1":-88.7671,"lo2":-86.6584,"dy":0.0162,"dx":0.0185,"nx":115,"ny":88,"refTime":"2024-06-01T12:00:00:Z","depth":0,"parameterNumber":3,"parameterNumberName":"V-component_of_WINDS"},"data":[0.0,0.0,0.0,0.0,0.0,0.0,0.0,0.0,0.0,0.0,0.0,0.0,0.0,0.0,0.0,0.0,0.0,0.0,0.0,0.0,0.0,0.0,0.0,0.0,0.0,0.0,0.0,0.0,0.0,0.0,0.0,0.0,0.0,0.0,0.0,0.0,0.0,0.0,0.0,0.0,0.0,0.0,0.0,0.0,0.0,0.0,0.0,0.0,0.0,0.0,0.0,0.0,0.0,0.0,0.0,0.0,0.0,0.0,0.0,0.0,0.0,0.0,0.0,0.0,0.0,0.0,0.0,0.0,0.0,0.0,0.0,0.0,0.0,0.0,0.0,0.0,0.0,0.0,0.0,0.0,0.0,0.0,0.0,0.0,0.0,0.0,0.0,0.0,0.0,0.0,0.0,0.0,0.0,0.0,0.0,0.0,0.0,0.0,0.0,0.0,0.0,0.0,0.0,0.0,0.0,0.0,0.0,0.0,0.0,0.0,0.0,0.0,0.0,0.0,0.0,0.0,0.0,0.0,0.0,0.0,0.0,0.0,0.0,0.0,0.0,0.0,0.0,0.0,0.0,0.0,0.0,0.0,0.0,0.0,0.0,0.0,0.0,0.0,0.0,0.0,0.0,0.0,0.0,0.0,0.0,0.0,0.0,0.0,0.0,0.0,0.0,0.0,0.0,0.0,0.0,0.0,0.0,0.0,0.0,0.0,0.0,0.0,0.0,0.0,0.0,0.0,0.0,0.0,0.0,0.0,0.0,0.0,0.0,0.0,0.0,0.0,0.0,0.0,0.0,0.0,0.0,0.0,0.0,0.0,0.0,0.0,0.0,0.0,0.0,0.0,0.0,0.0,0.0,0.0,0.0,0.0,0.0,0.0,0.0,0.0,0.0,0.0,0.0,0.0,0.0,0.0,0.0,0.0,0.0,0.0,0.0,0.0,0.0,0.0,0.0,0.0,0.0,0.0,0.0,0.0,0.0,0.0,0.0,0.0,0.0,0.0,0.0,0.0,0.0,0.0,0.0,0.0,0.0,0.0,0.0,0.0,0.0,0.0,0.0,0.0,0.0,0.0,0.0,0.0,0.0,0.0,0.0,0.0,0.0,0.0,0.0,0.0,0.0,0.0,0.0,0.0,0.0,0.0,0.0,0.0,0.0,0.0,0.0,0.0,0.0,0.0,0.0,0.0,0.0,0.0,0.0,0.0,0.0,0.0,0.0,0.0,0.0,0.0,0.0,0.0,0.0,0.0,0.0,0.0,0.0,0.0,0.0,0.0,0.0,0.0,0.0,0.0,0.0,0.0,0.0,0.0,0.0,0.0,0.0,0.0,0.0,0.0,0.0,0.0,0.0,0.0,0.0,0.0,0.0,0.0,0.0,0.0,0.0,0.0,0.0,0.0,0.0,0.0,0.0,0.0,0.0,0.0,0.0,0.0,0.0,0.0,0.0,0.0,0.0,0.0,0.0,0.0,0.0,0.0,0.0,0.0,0.0,0.0,0.0,0.0,0.0,0.0,0.0,0.0,0.0,0.0,0.0,0.0,0.0,0.0,0.0,0.0,0.0,0.0,0.0,0.0,0.0,0.0,0.0,0.0,0.0,0.0,0.0,0.0,0.0,0.0,0.0,0.0,0.0,0.0,0.0,0.0,0.0,0.0,0.0,0.0,0.0,0.0,0.0,0.0,0.0,0.0,0.0,0.0,0.0,0.0,0.0,0.0,0.0,0.0,0.0,0.0,0.0,0.0,0.0,0.0,0.0,0.0,0.0,0.0,0.0,0.0,0.0,0.0,0.0,0.0,0.0,0.0,0.0,0.0,0.0,0.0,0.0,0.0,0.0,0.0,0.0,0.0,0.0,0.0,0.0,0.0,0.0,0.0,0.0,0.0,0.0,0.0,0.0,0.0,0.0,0.0,0.0,0.0,0.0,0.0,0.0,0.0,0.0,0.0,0.0,0.0,0.0,0.0,0.0,0.0,0.0,0.0,0.0,0.0,0.0,0.0,0.0,0.0,0.0,0.0,0.0,0.0,0.0,0.0,0.0,0.0,0.0,0.0,0.0,0.0,0.0,0.0,0.0,0.0,0.0,0.0,0.0,0.0,0.0,0.0,0.0,0.0,0.0,0.0,0.0,0.0,0.0,0.0,0.0,0.0,0.0,0.0,0.0,0.0,0.0,0.0,0.0,0.0,0.0,0.0,0.0,0.0,0.0,0.0,0.0,0.0,0.0,0.0,0.0,0.0,0.0,0.0,0.0,0.0,0.0,0.0,0.0,0.0,0.0,0.0,0.0,0.0,0.0,0.0,0.0,0.0,0.0,0.0,0.0,0.0,0.0,0.0,0.0,0.0,0.0,0.0,0.0,0.0,0.0,0.0,0.0,0.0,0.0,0.0,0.0,0.0,0.0,0.0,0.0,0.0,0.0,0.0,0.0,0.0,0.0,0.0,0.0,0.0,0.0,0.0,0.0,0.0,0.0,0.0,0.0,0.0,0.0,0.0,0.0,0.0,0.0,0.0,0.0,0.0,0.0,0.0,0.0,0.0,0.0,0.0,0.0,0.0,0.0,0.0,0.0,0.0,0.0,0.0,0.0,0.0,0.0,0.0,0.0,0.0,0.0,0.0,0.0,0.0,0.0,0.0,0.0,0.0,0.0,0.0,0.0,0.0,0.0,0.0,0.0,0.0,0.0,0.0,0.0,0.0,0.0,0.0,0.0,0.0,0.0,0.0,0.0,0.0,0.0,0.0,0.0,0.0,0.0,0.0,0.0,0.0,0.0,0.0,0.0,0.0,0.0,0.0,0.0,0.0,0.0,0.0,0.0,0.0,0.0,0.0,0.0,0.0,0.0,0.0,0.0,0.0,0.0,0.0,0.0,0.0,0.0,0.0,0.0,0.0,0.0,0.0,0.0,0.0,0.0,0.0,0.0,0.0,0.0,0.0,0.0,0.0,0.0,0.0,0.0,0.0,0.0,0.0,0.0,0.0,0.0,0.0,0.0,0.0,0.0,0.0,0.0,0.0,0.0,0.0,0.0,0.0,0.0,0.0,0.0,0.0,0.0,0.0,0.0,0.0,0.0,0.0,0.0,0.0,0.0,0.0,0.0,0.0,0.0,0.0,0.0,0.0,0.0,0.0,0.0,0.0,0.0,0.0,0.0,0.0,0.0,0.0,0.0,0.0,0.0,0.0,0.0,0.0,0.0,0.0,0.0,0.0,0.0,0.0,0.0,0.0,0.0,0.0,0.0,0.0,0.0,0.0,0.0,0.0,0.0,0.0,0.0,0.0,0.0,0.0,0.0,0.0,0.0,0.0,0.0,0.0,0.0,0.0,0.0,0.0,0.0,0.0,0.0,0.0,0.0,0.0,0.0,0.0,0.0,0.0,0.0,0.0,0.0,0.0,0.0,0.0,0.0,0.0,0.0,0.0,0.0,0.0,0.0,0.0,0.0,0.0,0.0,0.0,0.0,0.0,0.0,0.0,0.0,0.0,0.0,0.0,0.0,0.0,0.0,0.0,0.0,0.0,0.0,0.0,0.0,0.0,0.0,0.0,0.0,0.0,0.0,0.0,0.0,0.0,0.0,0.0,0.0,0.0,0.0,0.0,0.0,0.0,0.0,0.0,0.0,0.0,0.0,0.0,0.0,0.0,0.0,0.0,0.0,0.0,0.0,0.0,0.0,0.0,0.0,0.0,0.0,0.0,0.0,0.0,0.0,0.0,0.0,0.0,0.0,0.0,0.0,0.0,0.0,0.0,0.0,0.0,0.0,0.0,0.0,0.0,0.0,0.0,0.0,0.0,0.0,0.0,0.0,0.0,0.0,0.0,0.0,0.0,0.0,0.0,0.0,0.0,0.0,0.0,0.0,0.0,0.0,0.0,0.0,0.0,0.0,0.0,0.0,0.0,0.0,0.0,0.0,0.0,0.0,0.0,0.0,0.0,0.0,0.0,0.0,0.0,0.0,0.0,0.0,0.0,0.0,0.0,0.0,0.0,0.0,0.0,0.0,0.0,0.0,0.0,0.0,0.0,0.0,0.0,0.0,0.0,0.0,0.0,0.0,0.0,0.0,0.0,0.0,0.0,0.0,0.0,0.0,0.0,0.0,0.0,0.0,0.0,0.0,0.0,0.0,0.0,0.0,0.0,0.0,0.0,0.0,0.0,0.0,0.0,0.0,0.0,0.0,0.0,0.0,0.0,0.0,0.0,0.0,0.0,0.0,0.0,0.0,0.0,0.0,0.0,0.0,0.0,0.0,0.0,0.0,0.0,0.0,0.0,-0.1803,0.0,0.0,0.0,0.0,0.0,0.0,0.0,0.0,0.0,0.0,0.0,0.0,0.0,0.0,0.0,0.0,0.0,0.0,0.0,0.0,0.0,0.0,0.0,0.0,0.0,0.0,0.0,0.0,0.0,0.0,0.0,0.0,0.0,0.0,0.0,0.0,0.0,0.0,0.0,0.0,0.0,0.0,0.0,0.0,0.0,0.0,0.0,0.0,0.0,0.0,0.0,0.0,0.0,0.0,0.0,0.0,0.0,0.0,0.0,0.0,0.0,0.0,0.0,0.0,0.0,0.0,0.0,0.0,0.0,0.0,0.0,0.0,0.0,0.0,0.0,0.0,0.0,0.0,0.0,0.0,0.0,0.0,0.0,0.0,0.0,0.0,0.0,0.0,0.0,0.0,0.0,0.0,0.0,0.0,0.0,0.0,0.0,0.0,0.0,0.0,0.0,0.0,0.0,0.0,0.0,0.0,0.0,0.0,0.0,0.0,-0.1803,-0.1803,-0.1803,-0.1803,-0.1803,0.0,0.0,0.0,0.0,0.0,0.0,0.0,0.0,0.0,0.0,0.0,0.0,0.0,0.0,0.0,0.0,0.0,0.0,0.0,0.0,0.0,0.0,0.0,0.0,0.0,0.0,0.0,0.0,0.0,0.0,0.0,0.0,0.0,0.0,0.0,0.0,0.0,0.0,0.0,0.0,0.0,0.0,0.0,0.0,0.0,0.0,0.0,0.0,0.0,0.0,0.0,0.0,0.0,0.0,0.0,0.0,0.0,0.0,0.0,0.0,0.0,0.0,0.0,0.0,0.0,0.0,0.0,0.0,0.0,0.0,0.0,0.0,0.0,0.0,0.0,0.0,0.0,0.0,0.0,0.0,0.0,0.0,0.0,0.0,0.0,0.0,0.0,0.0,0.0,0.0,0.0,0.0,0.0,0.0,0.0,0.0,0.0,0.0,0.0,0.0,0.0,0.0,0.0,0.0,0.0,0.0,0.0,0.0,0.0,0.0,0.0,0.0,-0.1897,-0.1897,-0.1894,0.0,0.0,0.0,0.0,0.0,0.0,0.0,0.0,0.0,0.0,0.0,0.0,0.0,0.0,0.0,0.0,0.0,0.0,0.0,0.0,0.0,0.0,0.0,0.0,0.0,0.0,0.0,0.0,0.0,0.0,0.0,0.0,0.0,0.0,0.0,0.0,0.0,0.0,0.0,0.0,0.0,0.0,0.0,0.0,0.0,0.0,0.0,0.0,0.0,0.0,0.0,0.0,0.0,0.0,0.0,0.0,0.0,0.0,0.0,0.0,0.0,0.0,0.0,0.0,0.0,0.0,0.0,0.0,0.0,0.0,0.0,0.0,0.0,0.0,0.0,0.0,0.0,0.0,0.0,0.0,0.0,0.0,0.0,0.0,0.0,0.0,0.0,0.0,0.0,0.0,0.0,0.0,0.0,0.0,0.0,0.0,0.0,0.0,0.0,0.0,0.0,0.0,0.0,0.0,0.0,0.0,0.0,0.0,0.0,0.0,-0.1925,-0.216,-0.2167,0.0,-0.2167,0.0,0.0,0.0,0.0,0.0,0.0,0.0,0.0,0.0,0.0,0.0,0.0,0.0,0.0,0.0,0.0,0.0,0.0,0.0,0.0,0.0,0.0,0.0,0.0,0.0,0.0,0.0,0.0,0.0,0.0,0.0,0.0,0.0,0.0,0.0,0.0,0.0,0.0,0.0,0.0,0.0,0.0,0.0,0.0,0.0,0.0,0.0,0.0,0.0,0.0,0.0,0.0,0.0,0.0,0.0,0.0,0.0,0.0,0.0,0.0,0.0,0.0,0.0,0.0,0.0,0.0,0.0,0.0,0.0,0.0,0.0,0.0,0.0,0.0,0.0,0.0,0.0,0.0,0.0,0.0,0.0,0.0,0.0,0.0,0.0,0.0,0.0,0.0,0.0,0.0,0.0,0.0,0.0,0.0,0.0,0.0,0.0,0.0,0.0,0.0,0.0,0.0,0.0,0.0,0.0,0.0,0.0,0.0,0.0,0.0,0.0,-0.2194,-0.2197,-0.2197,0.0,0.0,0.0,0.0,0.0,0.0,0.0,0.0,0.0,0.0,0.0,0.0,0.0,0.0,0.0,0.0,0.0,0.0,0.0,0.0,0.0,0.0,0.0,0.0,0.0,0.0,0.0,0.0,0.0,0.0,0.0,0.0,0.0,0.0,0.0,0.0,0.0,0.0,0.0,0.0,0.0,0.0,0.0,0.0,0.0,0.0,0.0,0.0,0.0,0.0,0.0,0.0,0.0,0.0,0.0,0.0,0.0,0.0,0.0,0.0,0.0,0.0,0.0,0.0,0.0,0.0,0.0,0.0,0.0,0.0,0.0,0.0,0.0,0.0,0.0,0.0,0.0,0.0,0.0,0.0,0.0,0.0,0.0,0.0,0.0,0.0,0.0,0.0,0.0,0.0,0.0,0.0,0.0,0.0,0.0,0.0,0.0,0.0,0.0,0.0,0.0,0.0,0.0,0.0,0.0,0.0,0.0,0.0,0.0,0.0,-0.214,0.0,-0.2325,-0.2331,-0.2309,-0.22,0.0,0.0,0.0,0.0,0.0,0.0,0.0,0.0,0.0,0.0,0.0,0.0,0.0,0.0,0.0,0.0,0.0,0.0,0.0,0.0,0.0,0.0,0.0,0.0,0.0,0.0,0.0,0.0,0.0,0.0,0.0,0.0,0.0,0.0,0.0,0.0,0.0,0.0,0.0,0.0,0.0,0.0,0.0,0.0,0.0,0.0,0.0,0.0,0.0,0.0,0.0,0.0,0.0,0.0,0.0,0.0,0.0,0.0,0.0,0.0,0.0,0.0,0.0,0.0,0.0,0.0,0.0,0.0,0.0,0.0,0.0,0.0,0.0,0.0,0.0,0.0,0.0,0.0,0.0,0.0,0.0,0.0,0.0,0.0,0.0,0.0,0.0,0.0,0.0,0.0,0.0,0.0,0.0,0.0,0.0,0.0,0.0,0.0,0.0,0.0,0.0,0.0,0.0,0.0,0.0,0.0,0.0,0.0,0.0,-0.2341,-0.2359,-0.2652,-0.2692,-0.2527,0.0,0.0,0.0,0.0,0.0,0.0,0.0,0.0,0.0,0.0,0.0,0.0,0.0,0.0,0.0,0.0,0.0,0.0,0.0,0.0,0.0,0.0,0.0,0.0,0.0,0.0,0.0,0.0,0.0,0.0,0.0,0.0,0.0,0.0,0.0,0.0,0.0,0.0,0.0,0.0,0.0,0.0,0.0,0.0,0.0,0.0,0.0,0.0,0.0,0.0,0.0,0.0,0.0,0.0,0.0,0.0,0.0,0.0,0.0,0.0,0.0,0.0,0.0,0.0,0.0,0.0,0.0,0.0,0.0,0.0,0.0,0.0,0.0,0.0,0.0,0.0,0.0,0.0,0.0,0.0,0.0,0.0,0.0,0.0,0.0,0.0,0.0,0.0,0.0,0.0,0.0,0.0,0.0,0.0,0.0,0.0,0.0,0.0,0.0,0.0,0.0,0.0,0.0,0.0,0.0,0.0,0.0,0.0,0.0,-0.2122,-0.2174,-0.2442,-0.2924,-0.2582,-0.2435,0.0,0.0,0.0,0.0,0.0,0.0,0.0,0.0,0.0,0.0,0.0,0.0,0.0,0.0,0.0,0.0,0.0,0.0,0.0,0.0,0.0,0.0,0.0,0.0,0.0,0.0,0.0,0.0,0.0,0.0,0.0,0.0,0.0,0.0,0.0,0.0,0.0,0.0,0.0,0.0,0.0,0.0,0.0,0.0,0.0,0.0,0.0,0.0,0.0,0.0,0.0,0.0,0.0,0.0,0.0,0.0,0.0,0.0,0.0,0.0,0.0,0.0,0.0,0.0,0.0,0.0,0.0,0.0,0.0,0.0,0.0,0.0,0.0,0.0,0.0,0.0,0.0,0.0,0.0,0.0,0.0,0.0,0.0,0.0,0.0,0.0,0.0,0.0,0.0,0.0,0.0,0.0,0.0,0.0,0.0,0.0,0.0,0.0,0.0,0.0,0.0,0.0,0.0,0.0,0.0,0.0,0.0,0.0,0.0,-0.2098,0.0,-0.2656,0.0,-0.2559,-0.2384,0.0,0.0,0.0,0.0,0.0,0.0,0.0,0.0,0.0,0.0,0.0,0.0,0.0,0.0,0.0,0.0,0.0,0.0,0.0,0.0,0.0,0.0,0.0,0.0,0.0,0.0,0.0,0.0,0.0,0.0,0.0,0.0,0.0,0.0,0.0,0.0,0.0,0.0,0.0,0.0,0.0,0.0,0.0,0.0,0.0,0.0,0.0,0.0,0.0,0.0,0.0,0.0,0.0,0.0,0.0,0.0,0.0,0.0,0.0,0.0,0.0,0.0,0.0,0.0,0.0,0.0,0.0,0.0,0.0,0.0,0.0,0.0,0.0,0.0,0.0,0.0,0.0,0.0,0.0,0.0,0.0,0.0,0.0,0.0,0.0,0.0,0.0,0.0,0.0,0.0,0.0,0.0,0.0,0.0,0.0,0.0,0.0,0.0,0.0,0.0,0.0,0.0,0.0,0.0,0.0,0.0,0.0,0.0,-0.2112,-0.2662,-0.2944,-0.2964,-0.274,-0.2689,-0.2398,0.0,0.0,0.0,0.0,0.0,0.0,0.0,0.0,0.0,0.0,0.0,0.0,0.0,0.0,0.0,0.0,0.0,0.0,0.0,0.0,0.0,0.0,0.0,0.0,0.0,0.0,0.0,0.0,0.0,0.0,0.0,0.0,0.0,0.0,0.0,0.0,0.0,0.0,0.0,0.0,0.0,0.0,0.0,0.0,0.0,0.0,0.0,0.0,0.0,0.0,0.0,0.0,0.0,0.0,0.0,0.0,0.0,0.0,0.0,0.0,0.0,0.0,0.0,0.0,0.0,0.0,0.0,0.0,0.0,0.0,0.0,0.0,0.0,0.0,0.0,0.0,0.0,0.0,0.0,0.0,0.0,0.0,0.0,0.0,0.0,0.0,0.0,0.0,0.0,0.0,0.0,0.0,0.0,0.0,0.0,0.0,0.0,0.0,0.0,0.0,0.0,0.0,0.0,0.0,0.0,0.0,0.0,0.0,0.0,-0.2561,-0.2822,-0.301,-0.3098,-0.2626,-0.2435,0.0,0.0,0.0,0.0,0.0,0.0,0.0,0.0,0.0,0.0,0.0,0.0,0.0,0.0,0.0,0.0,0.0,0.0,0.0,0.0,0.0,0.0,0.0,0.0,0.0,0.0,0.0,0.0,0.0,0.0,0.0,0.0,0.0,0.0,0.0,0.0,0.0,0.0,0.0,0.0,0.0,0.0,0.0,0.0,0.0,0.0,0.0,0.0,0.0,0.0,0.0,0.0,0.0,0.0,0.0,0.0,0.0,0.0,0.0,0.0,0.0,0.0,0.0,0.0,0.0,0.0,0.0,0.0,0.0,0.0,0.0,0.0,0.0,0.0,0.0,0.0,0.0,0.0,0.0,0.0,0.0,0.0,0.0,0.0,0.0,0.0,0.0,0.0,0.0,0.0,0.0,0.0,0.0,0.0,0.0,0.0,0.0,0.0,0.0,0.0,0.0,0.0,0.0,0.0,0.0,0.0,0.0,0.0,0.0,-0.2925,-0.3171,-0.331,-0.3289,-0.2804,-0.2562,-0.2629,0.0,0.0,0.0,0.0,0.0,0.0,0.0,0.0,0.0,0.0,0.0,0.0,0.0,0.0,0.0,0.0,0.0,0.0,0.0,0.0,0.0,0.0,0.0,0.0,0.0,0.0,0.0,0.0,0.0,0.0,0.0,0.0,0.0,0.0,0.0,0.0,0.0,0.0,0.0,0.0,0.0,0.0,0.0,0.0,0.0,0.0,0.0,0.0,0.0,0.0,0.0,0.0,0.0,0.0,0.0,0.0,0.0,0.0,0.0,0.0,0.0,0.0,0.0,0.0,0.0,0.0,0.0,0.0,0.0,0.0,0.0,0.0,0.0,0.0,0.0,0.0,0.0,0.0,0.0,0.0,0.0,0.0,0.0,0.0,0.0,0.0,0.0,0.0,0.0,0.0,0.0,0.0,0.0,0.0,0.0,0.0,0.0,0.0,0.0,0.0,0.0,0.0,0.0,0.0,0.0,0.0,0.0,0.0,-0.361,-0.3887,-0.3812,-0.3359,-0.3175,-0.2845,0.0,0.0,0.0,0.0,0.0,0.0,0.0,0.0,0.0,0.0,0.0,0.0,0.0,0.0,0.0,0.0,0.0,0.0,0.0,0.0,0.0,0.0,0.0,0.0,0.0,0.0,0.0,0.0,0.0,0.0,0.0,0.0,0.0,0.0,0.0,0.0,0.0,0.0,0.0,0.0,0.0,0.0,0.0,0.0,0.0,0.0,0.0,0.0,0.0,0.0,0.0,0.0,0.0,0.0,0.0,0.0,0.0,0.0,0.0,0.0,0.0,0.0,0.0,0.0,0.0,0.0,0.0,0.0,0.0,0.0,0.0,0.0,0.0,0.0,0.0,0.0,0.0,0.0,0.0,0.0,0.0,0.0,0.0,0.0,0.0,0.0,0.0,0.0,0.0,0.0,0.0,0.0,0.0,0.0,0.0,0.0,0.0,0.0,0.0,0.0,0.0,0.0,0.0,0.0,0.0,0.0,0.0,0.0,0.0,-0.3737,-0.416,-0.4239,-0.3959,-0.3414,-0.3065,0.0,0.0,0.0,0.0,0.0,0.0,0.0,0.0,0.0,0.0,0.0,0.0,0.0,0.0,0.0,0.0,0.0,0.0,0.0,0.0,0.0,0.0,0.0,0.0,0.0,0.0,0.0,0.0,0.0,0.0,0.0,0.0,0.0,0.0,0.0,0.0,0.0,0.0,0.0,0.0,0.0,0.0,0.0,0.0,0.0,0.0,0.0,0.0,0.0,0.0,0.0,0.0,0.0,0.0,0.0,0.0,0.0,0.0,0.0,0.0,0.0,0.0,0.0,0.0,0.0,0.0,0.0,0.0,0.0,0.0,0.0,0.0,0.0,0.0,0.0,0.0,0.0,0.0,0.0,0.0,0.0,0.0,0.0,0.0,0.0,0.0,0.0,0.0,0.0,0.0,0.0,0.0,0.0,0.0,0.0,0.0,0.0,0.0,0.0,0.0,0.0,0.0,0.0,0.0,0.0,0.0,0.0,0.0,-0.3596,-0.3975,-0.4324,-0.445,-0.4341,-0.3768,-0.3398,0.0,0.0,0.0,0.0,0.0,0.0,0.0,0.0,0.0,0.0,0.0,0.0,0.0,0.0,0.0,0.0,0.0,0.0,0.0,0.0,0.0,0.0,0.0,0.0,0.0,0.0,0.0,0.0,0.0,0.0,0.0,0.0,0.0,0.0,0.0,0.0,0.0,0.0,0.0,0.0,0.0,0.0,0.0,0.0,0.0,0.0,0.0,0.0,0.0,0.0,0.0,0.0,0.0,0.0,0.0,0.0,0.0,0.0,0.0,0.0,0.0,0.0,0.0,0.0,0.0,0.0,0.0,0.0,0.0,0.0,0.0,0.0,0.0,0.0,0.0,0.0,0.0,0.0,0.0,0.0,0.0,0.0,0.0,0.0,0.0,0.0,0.0,0.0,0.0,0.0,0.0,0.0,0.0,0.0,0.0,0.0,0.0,0.0,0.0,0.0,0.0,0.0,0.0,0.0,0.0,0.0,0.0,0.0,-0.3812,-0.4184,-0.4412,-0.4491,-0.4481,-0.4175,-0.3731,0.0,0.0,0.0,0.0,0.0,0.0,0.0,0.0,0.0,0.0,0.0,0.0,0.0,0.0,0.0,0.0,0.0,0.0,0.0,0.0,0.0,0.0,0.0,0.0,0.0,0.0,0.0,0.0,0.0,0.0,0.0,0.0,0.0,0.0,0.0,0.0,0.0,0.0,0.0,0.0,0.0,0.0,0.0,0.0,0.0,0.0,0.0,0.0,0.0,0.0,0.0,0.0,0.0,0.0,0.0,0.0,0.0,0.0,0.0,0.0,0.0,0.0,0.0,0.0,0.0,0.0,0.0,0.0,0.0,0.0,0.0,0.0,0.0,0.0,0.0,0.0,0.0,0.0,0.0,0.0,0.0,0.0,0.0,0.0,0.0,0.0,0.0,0.0,0.0,0.0,0.0,0.0,0.0,0.0,0.0,0.0,0.0,0.0,0.0,0.0,0.0,0.0,0.0,0.0,0.0,0.0,0.0,0.0,-0.3886,-0.4184,-0.4389,-0.4491,-0.4491,-0.4172,-0.3829,0.0,0.0,0.0,0.0,0.0,0.0,0.0,0.0,0.0,0.0,0.0,0.0,0.0,0.0,0.0,0.0,0.0,0.0,0.0,0.0,0.0,0.0,0.0,0.0,0.0,0.0,0.0,0.0,0.0,0.0,0.0,0.0,0.0,0.0,0.0,0.0,0.0,0.0,0.0,0.0,0.0,0.0,0.0,0.0,0.0,0.0,0.0,0.0,-0.5586,0.0,0.0,0.0,0.0,0.0,0.0,0.0,0.0,0.0,0.0,0.0,0.0,0.0,0.0,0.0,0.0,0.0,0.0,0.0,0.0,0.0,0.0,0.0,0.0,0.0,0.0,0.0,0.0,0.0,0.0,0.0,0.0,0.0,0.0,0.0,0.0,0.0,0.0,0.0,0.0,0.0,0.0,0.0,0.0,0.0,0.0,0.0,0.0,0.0,0.0,0.0,0.0,0.0,0.0,0.0,0.0,0.0,0.0,0.0,-0.4046,-0.4338,-0.445,-0.4491,-0.4484,-0.4334,-0.4022,0.0,0.0,0.0,0.0,0.0,0.0,0.0,0.0,0.0,0.0,0.0,0.0,0.0,0.0,0.0,0.0,0.0,0.0,0.0,0.0,0.0,0.0,0.0,0.0,0.0,0.0,0.0,0.0,0.0,0.0,0.0,0.0,0.0,0.0,0.0,0.0,0.0,0.0,0.0,0.0,0.0,0.0,0.0,0.0,0.0,0.0,0.0,0.0,0.0,0.0,0.0,0.0,0.0,0.0,0.0,0.0,0.0,0.0,0.0,0.0,0.0,0.0,0.0,0.0,0.0,0.0,0.0,0.0,0.0,0.0,0.0,0.0,0.0,0.0,0.0,0.0,0.0,0.0,0.0,0.0,0.0,0.0,0.0,0.0,0.0,0.0,0.0,0.0,0.0,0.0,0.0,0.0,0.0,0.0,0.0,0.0,0.0,0.0,0.0,0.0,0.0,0.0,0.0,0.0,0.0,0.0,0.0,-0.3714,-0.4141,-0.4474,-0.4491,-0.4491,-0.4491,-0.4491,-0.4237,-0.3624,0.0,0.0,0.0,0.0,0.0,0.0,0.0,0.0,0.0,0.0,0.0,0.0,0.0,0.0,0.0,0.0,0.0,0.0,0.0,0.0,0.0,0.0,0.0,0.0,0.0,0.0,0.0,0.0,0.0,0.0,0.0,0.0,0.0,0.0,0.0,0.0,0.0,0.0,-0.4402,-0.5239,0.0,0.0,0.0,0.0,0.0,0.0,0.0,0.0,-0.5508,0.0,0.0,0.0,0.0,0.0,0.0,0.0,0.0,0.0,0.0,0.0,0.0,0.0,0.0,0.0,0.0,0.0,0.0,0.0,0.0,0.0,0.0,0.0,0.0,0.0,0.0,0.0,0.0,0.0,0.0,0.0,0.0,0.0,0.0,0.0,0.0,0.0,0.0,0.0,0.0,0.0,0.0,0.0,0.0,0.0,0.0,0.0,0.0,0.0,0.0,0.0,0.0,0.0,0.0,0.0,0.0,-0.3832,-0.3822,-0.4036,-0.4477,-0.4491,-0.4491,-0.4491,-0.4491,-0.4211,-0.3631,0.0,0.0,0.0,0.0,0.0,0.0,0.0,0.0,0.0,0.0,0.0,0.0,0.0,0.0,0.0,0.0,0.0,0.0,0.0,0.0,0.0,0.0,0.0,0.0,0.0,0.0,0.0,0.0,0.0,0.0,0.0,0.0,0.0,0.0,0.0,0.0,0.0,0.0,0.0,-0.5973,-0.6279,0.0,0.0,0.0,0.0,0.0,0.0,0.0,0.0,-0.5822,0.0,0.0,0.0,0.0,0.0,0.0,0.0,0.0,0.0,0.0,0.0,0.0,0.0,0.0,0.0,0.0,0.0,0.0,0.0,0.0,0.0,0.0,0.0,0.0,0.0,0.0,0.0,0.0,0.0,0.0,0.0,0.0,0.0,0.0,0.0,0.0,0.0,0.0,0.0,0.0,0.0,0.0,0.0,0.0,0.0,0.0,0.0,0.0,0.0,0.0,0.0,0.0,0.0,0.0,0.0,-0.363,-0.3978,-0.4269,-0.4481,-0.4491,-0.4491,-0.4487,-0.4337,-0.4026,0.0,0.0,0.0,0.0,0.0,0.0,0.0,0.0,0.0,0.0,0.0,0.0,0.0,0.0,0.0,0.0,0.0,0.0,0.0,0.0,0.0,0.0,0.0,0.0,0.0,0.0,0.0,0.0,0.0,0.0,0.0,0.0,0.0,0.0,0.0,0.0,0.0,0.0,0.0,0.0,-0.6143,-0.6416,-0.6416,0.0,0.0,0.0,0.0,0.0,0.0,-0.6234,-0.5929,0.0,0.0,0.0,0.0,0.0,0.0,0.0,0.0,0.0,0.0,0.0,0.0,0.0,0.0,0.0,0.0,0.0,0.0,0.0,0.0,0.0,0.0,0.0,0.0,0.0,0.0,0.0,0.0,0.0,0.0,0.0,0.0,0.0,0.0,0.0,0.0,0.0,0.0,0.0,0.0,0.0,0.0,0.0,0.0,0.0,0.0,0.0,0.0,0.0,0.0,0.0,0.0,0.0,0.0,0.0,-0.3387,-0.4039,-0.4429,-0.4484,-0.4491,-0.4491,-0.4487,-0.4259,-0.3944,0.0,0.0,0.0,0.0,0.0,0.0,0.0,0.0,0.0,0.0,0.0,0.0,0.0,0.0,0.0,0.0,0.0,0.0,0.0,0.0,0.0,0.0,0.0,0.0,0.0,0.0,0.0,0.0,0.0,0.0,0.0,0.0,0.0,0.0,0.0,0.0,0.0,0.0,0.0,0.0,0.0,-0.6807,-0.6794,-0.7051,0.0,0.0,0.0,0.0,-0.7295,-0.6771,0.0,0.0,0.0,0.0,0.0,0.0,0.0,0.0,0.0,0.0,0.0,0.0,0.0,0.0,0.0,0.0,0.0,0.0,0.0,0.0,0.0,0.0,0.0,0.0,0.0,0.0,0.0,0.0,0.0,0.0,0.0,0.0,0.0,0.0,0.0,0.0,0.0,0.0,0.0,0.0,0.0,0.0,0.0,0.0,0.0,0.0,0.0,0.0,0.0,0.0,0.0,0.0,0.0,0.0,0.0,0.0,-0.3563,-0.3894,-0.4199,-0.4474,-0.4491,-0.4491,-0.4491,-0.4457,-0.4177,0.0,0.0,0.0,0.0,0.0,0.0,0.0,0.0,0.0,0.0,0.0,0.0,0.0,0.0,0.0,0.0,0.0,0.0,0.0,0.0,0.0,0.0,0.0,0.0,0.0,0.0,0.0,0.0,0.0,0.0,0.0,0.0,0.0,0.0,0.0,0.0,0.0,0.0,0.0,0.0,0.0,-0.817,-0.817,-0.7846,-0.7759,0.0,0.0,-0.772,-0.8179,-0.816,0.0,0.0,0.0,0.0,0.0,0.0,0.0,0.0,0.0,0.0,0.0,0.0,0.0,0.0,0.0,0.0,0.0,0.0,0.0,0.0,0.0,0.0,0.0,0.0,0.0,0.0,0.0,0.0,0.0,0.0,0.0,0.0,0.0,0.0,0.0,0.0,0.0,0.0,0.0,0.0,0.0,0.0,0.0,0.0,0.0,0.0,0.0,0.0,0.0,0.0,0.0,0.0,0.0,0.0,0.0,-0.3144,-0.36,-0.4061,-0.4361,-0.4484,-0.4491,-0.4491,-0.4487,-0.4242,-0.3907,0.0,0.0,0.0,0.0,0.0,0.0,0.0,0.0,0.0,0.0,0.0,0.0,0.0,0.0,0.0,0.0,0.0,0.0,0.0,0.0,0.0,0.0,0.0,0.0,0.0,0.0,0.0,0.0,0.0,0.0,0.0,0.0,0.0,0.0,0.0,0.0,0.0,0.0,0.0,0.0,0.0,0.0,-0.8473,-0.8477,0.0,0.0,0.0,-0.8509,-0.8701,0.0,0.0,0.0,0.0,0.0,0.0,0.0,0.0,0.0,0.0,0.0,0.0,0.0,0.0,0.0,0.0,0.0,0.0,0.0,0.0,0.0,0.0,0.0,0.0,0.0,0.0,0.0,0.0,0.0,0.0,0.0,0.0,0.0,0.0,0.0,0.0,0.0,0.0,0.0,0.0,0.0,0.0,0.0,0.0,0.0,0.0,0.0,0.0,0.0,0.0,0.0,0.0,0.0,0.0,0.0,0.0,0.0,-0.3604,-0.4187,-0.4491,-0.4491,-0.4491,-0.4491,-0.4484,-0.4126,0.0,0.0,0.0,0.0,0.0,0.0,0.0,0.0,0.0,0.0,0.0,0.0,0.0,0.0,0.0,0.0,0.0,0.0,0.0,0.0,0.0,0.0,0.0,0.0,0.0,0.0,0.0,-0.1986,0.0,0.0,0.0,0.0,0.0,0.0,0.0,0.0,0.0,0.0,0.0,0.0,0.0,0.0,-0.8266,-0.8936,-0.9102,-0.9143,0.0,0.0,-0.9192,-0.9307,-0.8789,-0.8139,0.0,0.0,0.0,0.0,0.0,0.0,0.0,0.0,0.0,0.0,0.0,0.0,0.0,0.0,0.0,0.0,0.0,0.0,0.0,0.0,0.0,0.0,0.0,0.0,0.0,0.0,0.0,0.0,0.0,0.0,0.0,0.0,0.0,0.0,0.0,0.0,0.0,0.0,0.0,0.0,0.0,0.0,0.0,0.0,0.0,0.0,0.0,0.0,0.0,0.0,0.0,0.0,0.0,0.0,0.0,-0.3607,-0.4187,-0.4491,-0.4491,-0.4491,-0.4491,-0.4487,-0.4277,-0.3984,0.0,0.0,0.0,0.0,0.0,0.0,0.0,0.0,0.0,0.0,0.0,0.0,0.0,0.0,0.0,0.0,0.0,0.0,0.0,0.0,0.0,0.0,0.0,0.0,0.0,0.0,0.0,0.0,0.0,0.0,0.0,0.0,0.0,0.0,0.0,0.0,0.0,0.0,0.0,0.0,0.0,-0.9219,-1.0049,-0.9815,-0.9854,0.0,0.0,-0.9708,-1.0156,-1.0137,-0.9734,-0.8518,0.0,0.0,0.0,0.0,0.0,0.0,0.0,0.0,0.0,0.0,0.0,0.0,0.0,0.0,0.0,0.0,0.0,0.0,0.0,0.0,0.0,0.0,0.0,0.0,0.0,0.0,0.0,0.0,0.0,0.0,0.0,0.0,0.0,0.0,0.0,0.0,0.0,0.0,0.0,0.0,0.0,0.0,0.0,0.0,0.0,0.0,0.0,0.0,0.0,0.0,0.0,0.0,0.0,-0.3273,-0.3604,-0.4191,-0.4491,-0.4491,-0.4491,-0.4491,-0.4491,-0.4297,-0.3971,0.0,0.0,0.0,0.0,0.0,0.0,0.0,0.0,0.0,0.0,0.0,0.0,0.0,0.0,0.0,0.0,0.0,0.0,0.0,0.0,0.0,0.0,0.0,0.0,0.0,0.0,0.0,0.0,-0.2953,-0.3185,-0.3353,0.0,0.0,0.0,0.0,0.0,0.0,0.0,0.0,0.0,0.0,-0.9667,-1.0652,-1.0544,0.0,0.0,-1.1143,-1.0781,-1.0684,-1.0225,-0.9523,-0.8577,-0.7808,0.0,0.0,0.0,0.0,0.0,0.0,0.0,0.0,0.0,0.0,0.0,0.0,0.0,0.0,0.0,0.0,0.0,0.0,0.0,0.0,0.0,0.0,0.0,0.0,0.0,0.0,0.0,0.0,0.0,0.0,0.0,0.0,0.0,0.0,0.0,0.0,0.0,0.0,0.0,0.0,0.0,0.0,0.0,0.0,0.0,0.0,0.0,0.0,0.0,0.0,0.0,0.0,-0.3269,-0.36,-0.4187,-0.4491,-0.4491,-0.4491,-0.4491,-0.4487,-0.4324,-0.3956,0.0,0.0,0.0,0.0,0.0,0.0,0.0,0.0,0.0,0.0,0.0,0.0,0.0,0.0,0.0,0.0,0.0,0.0,0.0,0.0,0.0,0.0,0.0,0.0,0.0,0.0,0.0,0.0,-0.3176,-0.3339,-0.3542,0.0,0.0,0.0,0.0,0.0,0.0,0.0,0.0,0.0,0.0,-0.9695,-1.0844,-1.0894,-1.1047,-1.1715,-1.1572,-1.1271,-1.0957,-1.039,-0.9708,-0.8896,0.0,0.0,0.0,0.0,0.0,0.0,0.0,0.0,0.0,0.0,0.0,0.0,0.0,0.0,0.0,0.0,0.0,0.0,0.0,0.0,0.0,0.0,0.0,0.0,0.0,0.0,0.0,0.0,0.0,0.0,-0.141,0.0,0.0,0.0,0.0,0.0,0.0,0.0,0.0,0.0,0.0,0.0,0.0,0.0,0.0,0.0,0.0,0.0,0.0,0.0,0.0,0.0,0.0,-0.3276,-0.3607,-0.4191,-0.4491,-0.4491,-0.4491,-0.4491,-0.4487,-0.4324,-0.405,-0.3782,0.0,0.0,0.0,0.0,0.0,0.0,0.0,0.0,0.0,0.0,0.0,0.0,0.0,0.0,0.0,0.0,0.0,0.0,0.0,0.0,0.0,0.0,0.0,0.0,0.0,0.0,-0.3109,-0.339,-0.3615,0.0,0.0,0.0,0.0,0.0,0.0,0.0,0.0,0.0,0.0,-0.8625,-0.9305,-1.0591,-1.0816,-1.0999,-1.1392,-1.1176,-1.0947,-1.0937,-1.0889,-1.0576,0.0,0.0,0.0,0.0,0.0,0.0,0.0,0.0,0.0,0.0,0.0,0.0,0.0,0.0,0.0,0.0,0.0,0.0,0.0,0.0,0.0,0.0,0.0,0.0,0.0,0.0,0.0,-0.2136,-0.193,0.0,0.0,0.0,0.0,0.0,0.0,0.0,0.0,0.0,0.0,0.0,-0.3816,-0.418,0.0,0.0,0.0,0.0,0.0,0.0,0.0,0.0,0.0,0.0,0.0,0.0,-0.3398,-0.3727,-0.4238,-0.4491,-0.4491,-0.4491,-0.4491,-0.4491,-0.4443,-0.4184,-0.3686,0.0,0.0,0.0,0.0,0.0,0.0,0.0,0.0,0.0,0.0,0.0,0.0,0.0,0.0,0.0,0.0,0.0,0.0,0.0,0.0,0.0,0.0,0.0,0.0,0.0,-0.3377,0.0,0.0,0.0,0.0,0.0,0.0,0.0,0.0,0.0,0.0,0.0,-0.7499,-0.7881,-0.9115,-1.0103,-1.0422,-1.1152,-1.1829,0.0,0.0,0.0,0.0,0.0,0.0,0.0,0.0,0.0,0.0,0.0,0.0,0.0,0.0,-0.9536,-0.8248,-0.7821,-0.779,-0.8192,0.0,0.0,0.0,0.0,0.0,0.0,0.0,0.0,0.0,0.0,0.0,0.0,0.0,0.0,-0.2584,0.0,-0.2398,0.0,0.0,0.0,0.0,0.0,0.0,0.0,0.0,-0.4022,-0.4324,-0.4318,-0.4633,-0.4619,0.0,-0.4233,-0.3829,0.0,0.0,0.0,0.0,0.0,0.0,0.0,0.0,-0.3553,-0.3873,-0.4286,-0.4491,-0.4491,-0.4491,-0.4491,-0.4487,-0.4443,-0.4182,-0.3744,-0.33,-0.2879,0.0,0.0,0.0,0.0,0.0,0.0,0.0,0.0,0.0,0.0,0.0,0.0,0.0,0.0,0.0,0.0,0.0,0.0,0.0,0.0,0.0,0.0,0.0,-0.3506,0.0,0.0,0.0,0.0,0.0,0.0,0.0,0.0,0.0,-0.6299,-0.7217,-0.7975,-0.8223,-0.9331,-1.0123,-1.0119,0.0,0.0,0.0,0.0,0.0,0.0,0.0,-1.1287,-1.1162,-1.079,-1.0507,-1.0508,-1.085,-1.1084,-1.0917,0.0,0.0,-0.9283,-0.8642,-0.848,-0.888,-0.9024,-0.917,-0.954,-0.9956,-1.0236,0.0,0.0,0.0,0.0,0.0,0.0,0.0,0.0,-0.3043,-0.3035,0.0,-0.2941,0.0,0.0,0.0,0.0,0.0,-0.3299,0.0,0.0,-0.4389,-0.466,-0.4884,-0.4928,-0.4897,-0.4925,-0.4881,-0.4655,-0.418,-0.349,0.0,0.0,0.0,0.0,0.0,0.0,-0.3734,-0.4022,-0.4341,-0.4491,-0.4491,-0.4491,-0.4491,-0.4487,-0.4331,-0.4133,-0.3994,-0.3624,-0.3249,-0.2912,-0.2462,0.0,0.0,0.0,0.0,0.0,0.0,0.0,0.0,0.0,0.0,0.0,0.0,0.0,0.0,0.0,0.0,0.0,0.0,0.0,0.0,-0.3506,0.0,0.0,0.0,0.0,0.0,0.0,0.0,0.0,0.0,0.0,-0.6812,-0.7615,-0.8471,-0.9157,0.0,0.0,0.0,0.0,-1.1259,-1.1301,-1.1809,-1.2233,-1.2233,-1.2213,-1.2057,-1.1714,0.0,0.0,-1.1133,-1.1349,-1.1506,-1.1064,-1.1359,-1.1467,-1.0996,-0.9932,-0.939,-1.0065,-0.9894,-0.9799,-1.0473,-1.1002,-1.1259,-0.4051,0.0,0.0,0.0,0.0,-0.3638,-0.3752,-0.3905,-0.3819,-0.3713,-0.3545,-0.3454,0.0,0.0,0.0,0.0,0.0,0.0,-0.4324,-0.4547,-0.4807,-0.4964,-0.5039,-0.5186,-0.5179,-0.507,-0.5039,-0.4921,-0.4695,-0.4479,-0.3981,-0.3199,0.0,0.0,0.0,0.0,-0.3964,-0.4153,-0.4368,-0.4491,-0.4491,-0.4491,-0.4491,-0.4491,-0.445,-0.4331,-0.4137,-0.3849,-0.3549,-0.3276,-0.2815,0.0,0.0,0.0,0.0,0.0,0.0,0.0,0.0,0.0,0.0,0.0,0.0,0.0,0.0,0.0,0.0,0.0,0.0,0.0,-0.3506,-0.3506,-0.369,0.0,0.0,0.0,0.0,0.0,0.0,0.0,0.0,0.0,-0.8019,-0.8379,-0.8625,0.0,0.0,-1.0166,-1.0472,-1.1274,-1.1968,-1.2338,-1.257,0.0,-1.2719,-1.2418,-1.2272,-1.2494,-1.2617,-1.2598,-1.2377,-1.2422,-1.2484,-1.2347,-1.2158,-1.1992,-1.1833,-1.1309,-1.095,-1.1164,-1.1323,-1.1553,-1.1837,-1.2148,-1.2442,-0.4806,-0.4409,-0.4177,-0.4087,-0.4051,-0.4129,-0.423,-0.4363,-0.4289,-0.4232,-0.4134,-0.4019,-0.3857,-0.364,-0.3635,0.0,0.0,0.0,-0.4776,-0.4956,-0.5097,-0.5239,-0.5396,-0.5433,-0.5406,-0.5315,-0.5254,-0.5148,-0.4972,-0.5003,-0.4626,-0.3883,0.0,0.0,-0.3849,-0.3998,-0.4156,-0.4301,-0.4447,-0.4491,-0.4491,-0.4491,-0.4491,-0.4491,-0.4491,-0.4447,-0.4331,-0.4043,-0.3771,-0.3578,-0.3116,-0.2703,0.0,0.0,0.0,0.0,0.0,0.0,0.0,0.0,0.0,0.0,0.0,-0.1992,0.0,0.0,0.0,0.0,-0.3543,-0.3898,-0.3992,-0.4143,0.0,0.0,0.0,0.0,0.0,0.0,0.0,-0.687,-0.7412,-0.7972,-0.8628,-0.888,-0.8984,-0.9033,-0.9841,-1.0451,-1.0615,0.0,-1.22,-1.2529,-1.2774,-1.2915,-1.2905,-1.2656,-1.2578,-1.2866,-1.2915,-1.2915,-1.2915,-1.2915,-1.2915,-1.2886,-1.2666,-1.248,-1.249,-1.2279,-1.1998,-1.1675,-1.1953,-1.2261,-1.2311,-1.278,-1.3166,-0.5336,-0.5178,-0.4775,-0.452,-0.4384,-0.4517,-0.4529,-0.4561,-0.4553,-0.4608,-0.4692,-0.4575,-0.442,-0.4342,-0.4531,0.0,-0.4272,-0.4804,-0.5153,-0.5322,-0.5322,-0.5492,-0.5789,-0.5667,-0.5641,-0.5603,-0.5498,-0.5315,-0.5143,-0.5137,-0.4985,-0.4728,-0.4614,-0.4436,-0.4264,-0.4241,-0.4335,-0.4508,-0.4508,-0.4505,-0.4491,-0.4491,-0.4491,-0.4491,-0.4481,-0.447,-0.4464,-0.4158,-0.3913,-0.3788,-0.3344,-0.2973,-0.2727,0.0,0.0,0.0,0.0,0.0,0.0,0.0,0.0,0.0,0.0,0.0,0.0,0.0,0.0,0.0,-0.3849,0.0,-0.4821,-0.5144,0.0,0.0,0.0,-0.5919,-0.6297,-0.6855,-0.7302,-0.7569,0.0,0.0,-0.8841,-0.919,-0.9465,-0.9588,-1.0028,-1.0352,-1.0403,-1.1334,-1.2051,-1.2101,-1.2554,-1.2915,-1.2915,-1.2886,-1.2876,-1.2905,-1.2915,-1.2915,-1.2915,-1.2915,-1.2915,-1.2915,-1.2905,-1.2895,-1.2905,-1.2856,-1.2661,-1.1868,-1.2034,-1.2264,-1.2339,-1.2907,-1.3368,-0.5654,-0.5413,-0.53,-0.5173,-0.498,-0.5043,-0.5018,-0.5007,-0.4923,-0.4852,-0.4781,-0.4701,-0.4577,-0.4468,-0.4708,-0.4737,-0.4591,-0.5129,-0.54,-0.5467,-0.561,-0.573,-0.5796,-0.5769,-0.5749,-0.5749,-0.5715,-0.562,-0.5484,-0.5481,-0.5325,-0.5005,-0.4961,-0.4813,-0.4599,-0.4672,-0.4718,-0.4636,-0.4636,-0.461,-0.4494,-0.4491,-0.4491,-0.4487,-0.4355,-0.4274,-0.4267,-0.4009,-0.3829,-0.3805,-0.3361,-0.302,-0.2862,-0.2447,0.0,0.0,0.0,0.0,0.0,0.0,0.0,0.0,0.0,-0.2777,-0.2394,0.0,-0.394,0.0,-0.4361,-0.4891,-0.5148,-0.5444,0.0,0.0,-0.6339,-0.668,-0.7399,-0.7444,-0.7682,-0.8266,-0.8591,-0.889,-0.9193,-0.9415,-0.9562,-0.9588,-0.9718,-0.9925,-1.0344,-1.0956,-1.1594,-1.2051,-1.2554,-1.2905,-1.2915,-1.2915,-1.2915,-1.2915,-1.2915,-1.2915,-1.2915,-1.2915,-1.2915,-1.2915,-1.2915,-1.2915,-1.2915,-1.2915,-1.2846,-1.2635,-1.2723,-1.2818,-1.283,-1.2968,-1.3165,-0.5874,-0.5664,-0.5708,-0.56,-0.542,-0.5314,-0.5309,-0.5303,-0.5203,-0.5135,-0.5067,-0.498,-0.4862,-0.4755,-0.497,-0.497,-0.479,-0.5276,-0.5563,-0.5563,-0.5743,-0.5929,-0.6003,-0.5932,-0.5901,-0.5901,-0.5833,-0.5759,-0.5684,-0.5655,-0.5501,-0.5335,-0.5267,-0.5152,-0.5023,-0.4942,-0.4877,-0.4792,-0.4724,-0.4644,-0.4498,-0.4491,-0.4491,-0.4491,-0.4385,-0.4314,-0.422,-0.3994,-0.3863,-0.3812,-0.3429,-0.3208,-0.3062,-0.273,-0.25,0.0,0.0,0.0,0.0,0.0,0.0,0.0,0.0,0.0,0.0,0.0,-0.4479,-0.492,-0.5388,-0.584,-0.6233,-0.652,-0.6813,-0.7154,-0.7308,-0.7582,-0.8076,-0.809,-0.8246,-0.8626,-0.8762,-0.8926,-0.9183,-0.929,-0.9354,-0.9413,-0.9491,-0.9725,-1.0344,-1.1082,-1.1744,-1.2085,-1.2554,-1.2915,-1.2915,-1.2915,-1.2915,-1.2915,-1.2915,-1.2915,-1.2915,-1.2915,-1.2915,-1.2915,-1.2915,-1.2915,-1.2915,-1.2915,-1.2915,-1.29,-1.2914,-1.2956,-1.2959,-1.3099,-1.3357,-0.6037,-0.5926,-0.5926,-0.586,-0.5694,-0.5526,-0.5462,-0.5393,-0.539,-0.5385,-0.5405,-0.5257,-0.5156,-0.5061,-0.5196,-0.5132,-0.4887,-0.536,-0.5562,-0.5598,-0.5825,-0.6018,-0.6293,-0.6122,-0.6057,-0.6013,-0.5925,-0.585,-0.5827,-0.5705,-0.5627,-0.5586,-0.5491,-0.5416,-0.5382,-0.5104,-0.4928,-0.4918,-0.4769,-0.4648,-0.4494,-0.4491,-0.4491,-0.4491,-0.447,-0.4368,-0.417,-0.4068,-0.3923,-0.3795,-0.3574,-0.3399,-0.3329,-0.3064,-0.2892,0.0,-0.2836,0.0,0.0,0.0,0.0,0.0,0.0,0.0,0.0,-0.4209,-0.5069,-0.626,-0.6633,-0.6974,-0.7504,-0.7802,-0.7959,-0.7972,-0.825,-0.8462,-0.8469,-0.8657,-0.8778,-0.8778,-0.8811,-0.8883,-0.8982,-0.9008,-0.9087,-0.9185,-0.9309,-0.9595,-1.019,-1.1108,-1.1778,-1.1977,-1.2495,-1.2915,-1.2915,-1.2915,-1.2915,-1.2915,-1.2915,-1.2915,-1.2915,-1.2915,-1.2915,-1.2915,-1.2915,-1.2915,-1.2915,-1.2915,-1.2915,-1.2905,-1.291,-1.2914,-1.2939,-1.3236,-1.364,-0.6162,-0.6053,-0.6053,-0.5983,-0.5869,-0.5822,-0.5695,-0.5472,-0.5472,-0.5461,-0.541,-0.5385,-0.5361,-0.5336,-0.5238,-0.518,-0.5155,-0.528,-0.5443,-0.5595,-0.5786,-0.6018,-0.63,-0.6269,-0.6255,-0.6252,-0.619,-0.6108,-0.5949,-0.5922,-0.5823,-0.5596,-0.5562,-0.5518,-0.5399,0.0,0.0,0.0,-0.4769,-0.4644,-0.4498,-0.4491,-0.4491,-0.4487,-0.4348,0.0,-0.4048,-0.4011,-0.3923,-0.3795,-0.3651,0.0,0.0,0.0,0.0,0.0,0.0,0.0,0.0,0.0,0.0,0.0,-0.3806,-0.3932,-0.4389,-0.5658,-0.6695,-0.7214,-0.7495,-0.7699,-0.7836,-0.8116,-0.829,-0.8303,-0.855,-0.8724,-0.8731,-0.8745,-0.8778,-0.8804,-0.891,-0.8962,-0.8982,-0.9087,-0.9159,-0.9192,-0.9237,-0.9342,-0.9543,-1.0285,-1.088,-1.1334,-1.2224,-1.2856,-1.2915,-1.2891,-1.2915,-1.2915,-1.2915,-1.2915,-1.2915,-1.2915,-1.2915,-1.2915,-1.2915,-1.2915,-1.2915,-1.2915,-1.2915,-1.2915,-1.2915,-1.2915,-1.2915,-1.3272,-1.3708,-0.6282,0.0,-0.6224,-0.6105,0.0,-0.5994,-0.589,-0.5722,-0.5621,-0.5564,-0.5545,-0.5485,-0.5458,-0.5453,-0.5333,-0.5276,-0.5314,-0.5419,-0.5556,-0.5692,-0.589,-0.609,-0.63,-0.63,-0.63,-0.63,-0.63,-0.6259,-0.6142,-0.603,-0.5911,-0.5698,-0.5627,-0.5545,-0.5399,-0.5395,-0.5279,-0.4995,-0.4877,-0.4728,-0.461,-0.4528,-0.4491,-0.4487,-0.4392,0.0,0.0,0.0,0.0,0.0,0.0,0.0,0.0,0.0,0.0,-0.3482,-0.3427,-0.3458,-0.3638,-0.3776,-0.3989,-0.4311,-0.4707,-0.5055,-0.5313,-0.6186,-0.7048,-0.7848,-0.8087,-0.821,-0.8325,-0.8497,-0.8616,-0.8597,-0.8717,-0.8778,-0.8778,-0.8778,-0.8778,-0.8804,-0.8857,-0.8883,-0.8903,-0.8956,-0.9008,-0.9015,-0.9061,-0.9113,-0.923,-0.9847,-1.0515,-1.1099,-1.1918,-1.2471,-1.2529,-1.2759,-1.2905,-1.2915,-1.2915,-1.2915,-1.2915,-1.2915,-1.2915,-1.2915,-1.2915,-1.2915,-1.2915,-1.2915,-1.2915,-1.2915,-1.2915,-1.2915,-1.2915,-1.3089,-1.3478,-0.6382,-0.6301,-0.6298,-0.6276,-0.6119,-0.6119,-0.6048,-0.5926,0.0,0.0,0.0,-0.5583,-0.554,-0.5532,-0.5455,-0.5443,-0.5443,-0.5594,-0.5729,-0.5863,-0.5966,-0.6136,-0.6337,-0.6313,-0.63,-0.63,-0.63,-0.63,-0.6296,-0.6132,-0.5993,-0.584,-0.5698,-0.5538,-0.5405,-0.5395,-0.5334,-0.514,-0.4999,-0.487,-0.4697,-0.4593,-0.4515,-0.4491,-0.4491,-0.4392,-0.4227,-0.4217,-0.419,-0.4038,-0.3829,-0.3809,-0.4008,-0.3805,-0.3765,-0.3971,-0.3994,-0.4058,-0.4185,-0.4361,-0.4522,-0.4708,-0.5379,-0.5874,-0.6042,-0.6425,-0.7121,-0.8247,-0.8425,-0.855,-0.8784,-0.8778,-0.8778,-0.8778,-0.8778,-0.8778,-0.8778,-0.8778,-0.8778,-0.8778,-0.8811,-0.8778,-0.8804,-0.8804,-0.8778,-0.8811,-0.8877,-0.8982,-0.9087,-0.9692,-1.0397,-1.0947,-1.1544,-1.1943,-1.2017,-1.2406,-1.2735,-1.271,-1.2808,-1.2915,-1.2915,-1.2915,-1.2915,-1.2915,-1.2915,-1.2915,-1.2915,-1.2915,-1.2915,-1.2915,-1.2915,-1.2915,-1.2915,-1.2915,-1.3186,-0.6376,-0.6365,-0.6363,-0.6347,-0.6241,-0.6292,-0.6221,-0.6043,-0.5831,-0.5688,-0.5688,-0.5672,-0.5664,-0.5659,-0.5534,-0.5483,-0.5478,-0.5459,-0.5651,-0.5956,-0.5882,-0.6058,-0.6477,-0.6358,-0.63,-0.63,-0.63,-0.63,-0.6296,-0.6276,-0.6152,-0.5996,-0.5847,-0.5665,-0.5416,-0.5395,-0.5382,-0.5361,-0.5143,-0.4935,-0.4697,-0.467,-0.4624,-0.4498,-0.4491,-0.4395,-0.4207,-0.4365,-0.4365,-0.4174,-0.4153,-0.4149,-0.418,-0.4028,-0.3975,-0.3991,-0.3994,-0.4051,-0.418,-0.4476,-0.4824,-0.5155,-0.5326,-0.5548,-0.5926,-0.7019,-0.7749,-0.7976,-0.8429,-0.8758,-0.8778,-0.8778,-0.8778,-0.8778,-0.8778,-0.8778,-0.8778,-0.8778,-0.8778,-0.8778,-0.8778,-0.8778,-0.8778,-0.8778,-0.8778,-0.8811,-0.8831,-0.8883,-0.908,-0.9692,-1.0226,-1.0523,-1.0981,-1.1284,-1.1376,-1.1843,-1.2209,-1.2209,-1.2603,-1.2915,-1.2915,-1.2915,-1.2915,-1.2915,-1.2915,-1.2915,-1.2915,-1.2915,-1.2915,-1.2915,-1.2915,-1.2915,-1.2915,-1.2915,-1.3065,-0.6387,-0.6387,-0.6387,-0.6357,-0.6355,-0.6295,-0.6238,-0.617,-0.5999,-0.5885,-0.5775,-0.5718,-0.5688,-0.5686,-0.5629,-0.5607,-0.5605,-0.5591,-0.5703,-0.5927,-0.5868,-0.6011,-0.6241,-0.6208,-0.6218,-0.6303,-0.63,-0.63,-0.63,-0.63,-0.6221,-0.5986,-0.58,-0.5576,-0.5412,-0.5395,-0.5395,-0.5392,-0.5209,-0.4995,-0.4819,-0.4735,-0.4648,-0.4494,-0.4491,-0.446,-0.4365,-0.4457,-0.446,-0.4368,-0.4264,-0.4257,-0.4355,-0.4196,-0.4153,-0.4253,-0.426,-0.429,-0.4358,-0.4631,-0.4961,-0.5262,-0.5301,-0.5374,-0.5556,-0.6421,-0.7257,-0.7818,-0.8176,-0.8454,-0.8752,-0.8778,-0.8778,-0.8778,-0.8778,-0.8778,-0.8778,-0.8778,-0.8778,-0.8778,-0.8778,-0.8778,-0.8778,-0.8778,-0.8778,-0.8778,-0.8778,-0.8831,-0.8982,-0.9309,-0.9614,-0.9847,-1.0362,-1.0727,-1.0795,-1.1544,-1.2002,-1.2076,-1.2554,-1.2856,-1.2915,-1.2915,-1.2915,-1.2915,-1.2915,-1.2915,-1.2915,-1.2915,-1.2915,-1.2915,-1.2915,-1.2915,-1.2915,-1.2915,-1.3065,-0.6387,-0.6387,-0.6387,-0.6387,-0.6429,-0.6344,-0.6306,-0.6293,-0.6179,-0.6059,-0.5937,-0.5822,-0.5712,-0.5688,-0.5688,-0.5688,-0.5688,-0.5688,-0.5813,-0.5938,-0.5904,-0.5996,-0.6097,-0.6068,-0.6099,-0.6234,-0.6239,-0.6219,-0.63,-0.63,-0.6183,-0.6017,-0.5766,-0.5562,-0.545,-0.5412,-0.5395,-0.5385,-0.5247,-0.5079,-0.4938,-0.4819,-0.4699,-0.4556,-0.4508,-0.4491,-0.4491,-0.4491,-0.4491,-0.4484,-0.4355,-0.4348,-0.4477,-0.4355,-0.4345,-0.4474,-0.4491,-0.4546,-0.4601,-0.4791,-0.5014,-0.5274,-0.5301,-0.5301,-0.5325,-0.5727,-0.648,-0.7498,-0.7851,-0.8176,-0.8666,-0.8778,-0.8778,-0.8778,-0.8778,-0.8778,-0.8778,-0.8778,-0.8778,-0.8778,-0.8778,-0.8778,-0.8778,-0.8778,-0.8778,-0.8778,-0.8778,-0.8857,-0.8936,-0.8989,-0.9087,-0.9335,-0.9803,-1.0164,-1.0267,-1.1006,-1.1619,-1.1843,-1.2348,-1.2676,-1.2808,-1.2915,-1.2915,-1.2915,-1.2915,-1.2915,-1.2915,-1.2915,-1.2915,-1.2915,-1.2915,-1.2915,-1.2915,-1.2915,-1.3065,-0.6387,-0.6387,-0.6387,-0.6387,-0.6384,-0.6373,-0.6418,-0.6352,-0.6301,-0.6184,-0.6053,-0.5939,-0.5828,-0.5696,-0.5688,-0.5688,-0.5688,-0.5688,-0.5811,-0.6007,-0.5941,-0.6006,-0.6123,-0.5946,-0.5944,-0.6078,-0.6002,-0.606,-0.6257,-0.63,-0.6183,-0.603,-0.5864,-0.5708,-0.5569,-0.5463,-0.5395,-0.5395,-0.5382,-0.5267,-0.5083,-0.4941,-0.4826,-0.4702,-0.4559,-0.4491,-0.4491,-0.4491,-0.4491,-0.4491,-0.4474,-0.4474,-0.4484,-0.4474,-0.4474,-0.4491,-0.4491,-0.4601,-0.4818,-0.4873,-0.5014,-0.5274,-0.5301,-0.5301,-0.5301,-0.5352,-0.5896,-0.6945,-0.7584,-0.8064,-0.8699,-0.8752,-0.8752,-0.8778,-0.8778,-0.8778,-0.8778,-0.8778,-0.8778,-0.8778,-0.8778,-0.8778,-0.8778,-0.8778,-0.8778,-0.8778,-0.8778,-0.8811,-0.8857,-0.8903,-0.8982,-0.9087,-0.9316,-0.9543,-0.9744,-1.0131,-1.0804,-1.1234,-1.1769,-1.2274,-1.2627,-1.2832,-1.2915,-1.2905,-1.2915,-1.2915,-1.2915,-1.2915,-1.2915,-1.2915,-1.2915,-1.2915,-1.2915,-1.2915,-1.3089,-0.6387,-0.6387,-0.6387,-0.6387,-0.6387,-0.6387,-0.6387,-0.6381,-0.6391,-0.6263,-0.6094,-0.6034,-0.5909,-0.5694,-0.5688,-0.5688,-0.5688,-0.5688,-0.5777,-0.5861,-0.5811,-0.5877,-0.5961,-0.5841,-0.5834,-0.5944,-0.593,-0.5941,-0.606,-0.6219,-0.6183,-0.6003,-0.5962,-0.582,-0.5606,-0.5562,-0.5487,-0.5399,-0.5395,-0.5365,-0.5247,-0.504,-0.4817,-0.4694,-0.4569,-0.4491,-0.4491,-0.4491,-0.4491,-0.4491,-0.4491,-0.4491,-0.4491,-0.4491,-0.4491,-0.4491,-0.4491,-0.4574,-0.477,-0.4873,-0.4987,-0.5187,-0.5242,-0.5301,-0.5301,-0.5301,-0.565,-0.6404,-0.6777,-0.7257,-0.8117,-0.8289,-0.8421,-0.8725,-0.8778,-0.8778,-0.8778,-0.8778,-0.8778,-0.8778,-0.8778,-0.8778,-0.8778,-0.8778,-0.8778,-0.8778,-0.8785,-0.8798,-0.8811,-0.8857,-0.8903,-0.8982,-0.908,-0.9237,-0.9465,-0.9943,-1.0362,-1.0719,-1.1209,-1.176,-1.2274,-1.2431,-1.2505,-1.2832,-1.2905,-1.2915,-1.2915,-1.2915,-1.2915,-1.2915,-1.2915,-1.2915,-1.2915,-1.2915,-1.3017,-0.6387,-0.6387,-0.6387,-0.6387,-0.6387,-0.6387,-0.6387,-0.6387,-0.6387,-0.6323,-0.6143,-0.6102,-0.5975,-0.5795,-0.5704,-0.5688,-0.5688,-0.5688,-0.5688,-0.5688,-0.5688,-0.5728,-0.5852,-0.5732,-0.569,-0.5763,-0.5796,-0.5827,-0.5909,-0.6099,-0.6161,-0.6064,-0.6054,-0.5905,-0.5671,-0.5616,-0.5549,-0.5409,-0.5395,-0.5395,-0.5361,-0.5111,-0.4908,-0.4758,-0.4634,-0.4535,-0.4491,-0.4491,-0.4491,-0.4491,-0.4491,-0.4491,-0.4491,-0.4491,-0.4491,-0.4491,-0.4491,-0.4546,-0.4688,-0.4794,-0.4904,-0.5042,-0.5187,-0.5242,-0.5242,-0.5274,-0.5489,-0.5859,-0.5968,-0.6453,-0.7477,-0.7824,-0.809,-0.8507,-0.8672,-0.8778,-0.8778,-0.8778,-0.8778,-0.8778,-0.8778,-0.8778,-0.8791,-0.8851,-0.8945,-0.8918,-0.8911,-0.8898,-0.8905,-0.8871,-0.8831,-0.8936,-0.8929,-0.9061,-0.9316,-0.9621,-0.9994,-1.0328,-1.0736,-1.1191,-1.1859,-1.2051,-1.2249,-1.2725,-1.2832,-1.2915,-1.2915,-1.2915,-1.2915,-1.2915,-1.2915,-1.2915,-1.2915,-1.2915,-1.2915,-0.6387,-0.6387,-0.6387,-0.6387,-0.6387,-0.6387,-0.6387,-0.6387,-0.6387,-0.6366,-0.6292,-0.6132,-0.6015,-0.5882,-0.5734,-0.5688,-0.5688,-0.5688,-0.5688,-0.5688,-0.5688,-0.5686,-0.5672,-0.5559,-0.5565,-0.5693,-0.5592,-0.5668,-0.5867,-0.5899,-0.6057,-0.6276,-0.6074,-0.5919,-0.5796,-0.5664,-0.5552,-0.5429,-0.5399,-0.5395,-0.5378,-0.5203,-0.5026,-0.4911,-0.4758,-0.4638,-0.4518,-0.4491,-0.4491,-0.4491,-0.4491,-0.4491,-0.4491,-0.4491,-0.4491,-0.4491,-0.4491,-0.4546,-0.466,-0.4719,-0.4767,-0.4901,-0.5014,-0.5101,-0.5101,-0.5215,-0.5325,-0.5352,-0.5419,-0.5918,-0.6891,-0.7417,-0.7765,-0.7957,-0.8448,-0.8699,-0.8778,-0.8778,-0.8778,-0.8811,-0.8838,-0.8831,-0.8844,-0.9024,-0.9164,-0.9198,-0.9198,-0.9198,-0.9158,-0.8978,-0.8864,-0.8831,-0.8851,-0.891,-0.9133,-0.9309,-0.9588,-0.9899,-1.02,-1.0652,-1.1426,-1.2067,-1.2314,-1.2618,-1.2808,-1.2915,-1.2915,-1.2915,-1.2915,-1.2915,-1.2915,-1.2915,-1.2915,-1.2915,-1.2915,-0.6387,-0.6387,-0.6387,-0.6387,-0.6387,-0.6387,-0.6387,-0.6387,-0.6387,-0.6372,-0.626,-0.614,-0.6018,-0.5896,-0.5739,-0.5688,-0.5688,-0.5688,-0.5688,-0.5688,-0.5688,-0.5688,-0.5675,-0.5564,-0.5532,-0.5551,-0.5533,-0.5567,-0.5688,-0.5712,-0.5828,-0.6018,-0.597,-0.5944,-0.5912,-0.58,-0.5654,-0.5549,-0.545,-0.5395,-0.5392,-0.5337,-0.5206,-0.505,-0.4816,-0.4692,-0.4641,-0.4542,-0.4491,-0.4491,-0.4491,-0.4491,-0.4491,-0.4491,-0.4491,-0.4491,-0.4491,-0.4519,-0.4574,-0.4632,-0.4719,-0.4767,-0.4873,-0.4987,-0.4987,-0.5101,-0.5187,-0.5203,-0.5406,-0.5694,-0.5918,-0.648,-0.6961,-0.7369,-0.7883,-0.8229,-0.8309,-0.8527,-0.8778,-0.8805,-0.8924,-0.9058,-0.9104,-0.9311,-0.9512,-0.9519,-0.9519,-0.9519,-0.9479,-0.9272,-0.9058,-0.9018,-0.8904,-0.8837,-0.891,-0.9008,-0.9185,-0.9387,-0.9692,-1.0244,-1.0906,-1.1392,-1.1692,-1.2544,-1.2808,-1.2915,-1.2915,-1.2915,-1.2915,-1.2915,-1.2915,-1.2915,-1.2915,-1.2915,-1.2915,-0.6387,-0.6387,-0.6387,-0.6387,-0.6387,-0.6387,-0.6387,-0.6387,-0.6387,-0.6393,-0.6306,-0.6198,-0.6097,-0.6002,-0.586,-0.5787,-0.5737,-0.5707,-0.5688,-0.5688,-0.5688,-0.5688,-0.5677,-0.5605,-0.5543,-0.5475,-0.5427,-0.5465,-0.5547,-0.5539,-0.5598,-0.5789,-0.5789,-0.5835,-0.5878,-0.5768,-0.5661,-0.5589,-0.547,-0.5395,-0.5395,-0.5395,-0.5344,-0.5186,-0.4962,-0.4782,-0.4697,-0.4589,-0.4535,-0.4498,-0.4491,-0.4491,-0.4491,-0.4491,-0.4491,-0.4491,-0.4491,-0.4491,-0.4491,-0.4605,-0.4632,-0.4632,-0.4739,-0.4846,-0.4846,-0.4956,-0.5065,-0.5218,-0.5389,-0.5482,-0.5575,-0.5891,-0.6304,-0.6769,-0.7316,-0.7637,-0.767,-0.8176,-0.8605,-0.8911,-0.9084,-0.9224,-0.9364,-0.9646,-0.9793,-0.982,-0.982,-0.982,-0.9786,-0.9579,-0.9357,-0.9337,-0.9111,-0.9005,-0.8971,-0.8985,-0.9009,-0.9173,-0.9263,-0.9788,-1.0415,-1.0821,-1.1434,-1.2323,-1.2783,-1.2856,-1.2915,-1.2915,-1.2915,-1.2915,-1.2915,-1.2915,-1.2915,-1.2915,-1.2915,-0.6387,-0.6387,-0.6387,-0.6337,-0.6237,-0.6237,-0.6337,-0.6287,-0.6184,-0.6077,-0.6101,-0.6208,-0.6093,-0.6152,-0.58,-0.5847,-0.5869,-0.5644,-0.5599,-0.5688,-0.5688,-0.5688,-0.5688,-0.5677,-0.5607,-0.5499,-0.5309,-0.5315,-0.5451,-0.5384,-0.5398,-0.5556,-0.5598,-0.565,-0.5697,-0.5612,-0.5535,-0.554,-0.5464,-0.5409,-0.5395,-0.5395,-0.5388,-0.5365,-0.5192,-0.4989,-0.4728,-0.4691,-0.4613,-0.4522,-0.4494,-0.4491,-0.4491,-0.4491,-0.4491,-0.4491,-0.4491,-0.4491,-0.4491,-0.4519,-0.4519,-0.4519,-0.4632,-0.4695,-0.4744,-0.4851,-0.505,-0.5276,-0.5395,-0.5526,-0.5767,-0.5886,-0.6028,-0.6225,-0.6783,-0.7144,-0.722,-0.7618,-0.8234,-0.8958,-0.92,-0.9364,-0.9653,-0.994,-1.0107,-1.012,-1.012,-1.012,-1.0094,-0.9866,-0.9706,-0.9633,-0.9446,-0.9259,-0.9111,-0.8998,-0.8991,-0.9009,-0.9041,-0.9342,-1.0115,-1.0669,-1.1292,-1.2092,-1.2735,-1.2856,-1.2915,-1.2915,-1.2915,-1.2915,-1.2915,-1.2915,-1.2915,-1.2915,-1.2915,-0.6387,-0.6387,-0.6387,-0.5934,-0.5334,-0.5286,-0.5284,-0.5183,-0.4528,-0.4578,-0.5216,-0.5232,-0.5189,-0.5142,-0.5024,-0.5303,-0.5799,-0.5155,-0.5062,-0.5555,-0.5688,-0.5688,-0.5688,-0.5688,-0.5626,-0.5499,-0.539,-0.5309,-0.5224,-0.5114,-0.521,-0.5362,-0.5362,-0.5497,-0.5561,-0.551,-0.545,-0.5493,-0.5385,-0.5366,-0.5405,-0.5395,-0.5395,-0.5388,-0.5347,-0.5192,-0.4999,-0.4799,-0.4674,-0.4619,-0.4545,-0.4491,-0.4491,-0.4491,-0.4491,-0.4491,-0.4491,-0.4491,-0.4491,-0.4491,-0.4491,-0.4491,-0.4546,-0.4605,-0.4691,-0.4819,-0.4973,-0.5217,-0.5381,-0.5605,-0.5704,-0.5817,-0.5923,-0.5977,-0.6493,-0.6813,-0.6942,-0.7703,-0.8396,-0.8802,-0.9392,-0.9821,-1.0,-1.0234,-1.0388,-1.0425,-1.0401,-1.0432,-1.0399,-1.0154,-0.9993,-0.996,-0.9733,-0.9546,-0.9459,-0.9257,-0.9072,-0.8998,-0.8984,-0.9048,-0.9795,-1.0397,-1.1065,-1.176,-1.2397,-1.2749,-1.2832,-1.2915,-1.2915,-1.2915,-1.2915,-1.2915,-1.2915,-1.2915,-1.2915,-0.6387,-0.6337,-0.5984,-0.5436,-0.4734,-0.4431,-0.4178,-0.413,-0.3475,-0.3577,-0.4116,-0.4178,-0.4155,-0.4128,-0.4017,-0.4274,-0.4703,-0.4067,-0.4103,-0.475,-0.5508,-0.5688,-0.5644,-0.5285,-0.512,-0.4952,-0.4592,-0.4365,-0.4265,-0.4134,-0.4145,-0.4229,-0.4261,-0.4341,-0.4567,-0.4733,-0.4842,-0.4937,-0.5096,-0.5201,-0.5222,-0.5027,-0.4894,-0.4957,-0.499,-0.4943,-0.4813,-0.4794,-0.483,-0.4762,-0.4629,-0.4556,-0.4501,-0.4491,-0.4491,-0.4491,-0.4491,-0.4491,-0.4491,-0.4491,-0.4491,-0.4491,-0.4491,-0.4556,-0.4679,-0.4781,-0.4919,-0.5218,-0.538,-0.5592,-0.5699,-0.5823,-0.5934,-0.6001,-0.6241,-0.6482,-0.6768,-0.7626,-0.8421,-0.883,-0.9567,-1.0049,-1.0301,-1.0439,-1.0586,-1.0586,-1.0586,-1.0586,-1.0553,-1.0432,-1.0314,-1.0214,-1.0027,-0.9886,-0.982,-0.9544,-0.921,-0.9071,-0.8971,-0.9077,-0.9465,-0.9865,-1.0431,-1.1258,-1.194,-1.2304,-1.2412,-1.2783,-1.2915,-1.2915,-1.2856,-1.2915,-1.2915,-1.2915,-1.2915,-0.6287,-0.6187,-0.5135,-0.4634,-0.4331,-0.3525,-0.3123,-0.3123,-0.2922,-0.2922,-0.3071,-0.3116,-0.3118,-0.3057,-0.2995,-0.3035,-0.2989,-0.2879,-0.2958,-0.3507,-0.4523,-0.524,-0.5151,-0.4523,-0.4202,-0.4051,-0.332,-0.2867,-0.2965,-0.2858,-0.2521,-0.2743,-0.2815,-0.266,-0.308,-0.3476,-0.3808,-0.3993,-0.4472,-0.4743,-0.48,-0.4292,-0.399,-0.4187,-0.4184,-0.4179,-0.4218,-0.4514,-0.4834,-0.4891,-0.4752,-0.4641,-0.4535,-0.4498,-0.4491,-0.4491,-0.4491,-0.4491,-0.4491,-0.4491,-0.4491,-0.4491,-0.4518,-0.4569,-0.4694,-0.4765,-0.4937,-0.5304,-0.5389,-0.5531,-0.5759,-0.5862,-0.5957,-0.6102,-0.6104,-0.6257,-0.6664,-0.734,-0.8094,-0.8887,-0.9635,-1.0203,-1.045,-1.0573,-1.0586,-1.0586,-1.0586,-1.0586,-1.0579,-1.0539,-1.0573,-1.0452,-1.0278,-1.02,-1.0114,-0.9699,-0.9391,-0.9277,-0.9105,-0.903,-0.9211,-0.9588,-0.9909,-1.0745,-1.1375,-1.1717,-1.2024,-1.2338,-1.2627,-1.2652,-1.27,-1.2832,-1.2915,-1.2915,-1.2915,-0.5236,-0.5085,-0.4079,-0.3173,-0.2469,-0.2116,-0.2017,-0.1915,-0.116,-0.1412,-0.1865,-0.2016,-0.2016,-0.2011,-0.1977,-0.2325,-0.2612,-0.2143,-0.2283,-0.2873,-0.3315,-0.3628,-0.3628,-0.3405,-0.327,-0.3215,-0.2766,-0.2701,-0.2684,-0.2423,-0.2404,-0.2506,-0.2387,-0.2465,-0.2655,-0.2719,-0.2876,-0.2956,-0.3103,-0.3334,-0.3372,-0.3182,-0.3082,-0.3113,-0.3213,-0.3282,-0.3282,-0.3526,-0.4137,-0.484,-0.4775,-0.4706,-0.4648,-0.4549,-0.4491,-0.4491,-0.4491,-0.4491,-0.4491,-0.4491,-0.4491,-0.4501,-0.4586,-0.4694,-0.4817,-0.4924,-0.5129,-0.5361,-0.5403,-0.5475,-0.5646,-0.5686,-0.5785,-0.5947,-0.6108,-0.6282,-0.6534,-0.7136,-0.7862,-0.8579,-0.9245,-0.9895,-1.0357,-1.0586,-1.0586,-1.0586,-1.0586,-1.0586,-1.0586,-1.0586,-1.0586,-1.0586,-1.0492,-1.0486,-1.0338,-0.9909,-0.9593,-0.9506,-0.9266,-0.8897,-0.9166,-0.9517,-0.9814,-1.0287,-1.072,-1.1107,-1.1375,-1.1674,-1.194,-1.2387,-1.2676,-1.2856,-1.2891,-1.2915,-1.2915,-0.4533,-0.4029,-0.2972,-0.2167,-0.1563,-0.111,-0.0958,-0.0807,-0.0303,-0.0303,-0.0858,-0.0908,-0.0908,-0.0907,-0.0947,-0.1221,-0.1572,-0.1082,-0.1152,-0.1529,-0.1659,-0.2152,-0.2598,-0.2555,-0.2286,-0.2194,-0.1771,-0.1558,-0.1517,-0.1491,-0.1458,-0.1379,-0.1449,-0.1449,-0.141,-0.1838,-0.1999,-0.204,-0.2265,-0.249,-0.2567,-0.2258,-0.2179,-0.2211,-0.2312,-0.2479,-0.2846,-0.3115,-0.3638,-0.4307,-0.4412,-0.4431,-0.4655,-0.4573,-0.4491,-0.4491,-0.4491,-0.4491,-0.4491,-0.4491,-0.4491,-0.4515,-0.4631,-0.4755,-0.487,-0.5015,-0.5196,-0.5361,-0.5392,-0.5425,-0.5521,-0.555,-0.565,-0.5785,-0.602,-0.6189,-0.6189,-0.6915,-0.7479,-0.8064,-0.8839,-0.9614,-1.0136,-1.0364,-1.0561,-1.0586,-1.0586,-1.0586,-1.0586,-1.0586,-1.0586,-1.0586,-1.0586,-1.0559,-1.0412,-1.0023,-0.9659,-0.9566,-0.9218,-0.8891,-0.9008,-0.9342,-0.9439,-0.971,-1.0115,-1.0466,-1.0712,-1.1141,-1.1807,-1.223,-1.2593,-1.2832,-1.2881,-1.2915,-1.2915,-0.3927,-0.2972,-0.1915,-0.1462,-0.1211,0.0,0.0,0.0,0.0,0.0,0.0,0.0,0.0,0.0,0.0,0.0,0.0,0.0,0.0,0.0,0.0,-0.0987,-0.2062,-0.157,-0.1301,-0.1166,-0.0359,0.0,0.0,0.0,0.0,0.0,0.0,0.0,0.0,-0.0862,-0.1044,-0.1132,-0.1555,-0.1839,-0.1818,-0.1438,-0.1253,-0.1375,-0.1476,-0.1844,-0.2412,-0.2778,-0.3175,-0.384,-0.3763,-0.4033,-0.4454,-0.4485,-0.4486,-0.4532,-0.4535,-0.4525,-0.4501,-0.4511,-0.4525,-0.4559,-0.4689,-0.4785,-0.4952,-0.5066,-0.523,-0.5382,-0.5392,-0.5395,-0.5428,-0.5488,-0.555,-0.562,-0.5756,-0.5859,-0.5987,-0.6568,-0.7083,-0.7214,-0.8479,-0.9064,-0.9518,-0.9881,-1.0333,-1.0199,-1.0263,-1.0364,-1.046,-1.0586,-1.0586,-1.0586,-1.0586,-1.0586,-1.0385,-1.01,-0.9806,-0.9559,-0.9138,-0.8844,-0.8811,-0.8982,-0.8956,-0.9159,-0.951,-0.9814,-1.0012,-1.0626,-1.1484,-1.2024,-1.2314,-1.2652,-1.2915,-1.2915,-1.2915,-0.2168,-0.1865,-0.0807,-0.0353,-0.0303,0.0,0.0,0.0,0.0,0.0,0.0,0.0,0.0,0.0,0.0,0.0,0.0,0.0,0.0,0.0,0.0,0.0,0.0,0.0,0.0,0.0,0.0,0.0,0.0,0.0,0.0,0.0,0.0,0.0,0.0,0.0,0.0,0.0,0.0,0.0,0.0,0.0,0.0,0.0,-0.0673,-0.0975,-0.1377,-0.1545,-0.1873,-0.2446,-0.2946,-0.3484,-0.4086,-0.414,-0.4274,-0.4548,-0.4668,-0.4621,-0.457,-0.4607,-0.4643,-0.4692,-0.4853,-0.505,-0.5081,-0.5216,-0.5341,-0.5395,-0.5395,-0.5395,-0.5395,-0.5428,-0.5458,-0.5491,-0.5528,-0.5561,-0.5591,-0.5921,-0.6404,-0.6892,-0.7284,-0.7739,-0.8393,-0.8672,-0.9128,-0.9582,-0.9843,-1.0009,-1.0199,-1.0396,-1.0428,-1.0364,-1.0593,-1.0586,-1.0472,-1.0174,-0.984,-0.9552,-0.9138,-0.8824,-0.8818,-0.8778,-0.8831,-0.8857,-0.8929,-0.9185,-0.951,-1.0295,-1.1174,-1.1592,-1.2082,-1.2544,-1.2856,-1.2881,-1.2915,-0.1311,-0.0807,-0.0252,0.0,0.0,0.0,0.0,0.0,0.0,0.0,0.0,0.0,0.0,0.0,0.0,0.0,0.0,0.0,0.0,0.0,0.0,0.0,0.0,0.0,0.0,0.0,0.0,0.0,0.0,0.0,0.0,0.0,0.0,0.0,0.0,0.0,0.0,0.0,0.0,0.0,0.0,0.0,0.0,0.0,-0.0337,-0.0606,-0.0808,-0.1043,-0.1276,-0.1673,-0.2249,-0.3059,-0.3969,-0.4218,-0.4484,-0.47,-0.4766,-0.4769,-0.4754,-0.4745,-0.4766,-0.4802,-0.4978,-0.5063,-0.5133,-0.527,-0.5385,-0.5395,-0.5395,-0.5395,-0.5395,-0.5395,-0.5395,-0.5395,-0.5395,-0.5395,-0.5428,-0.5624,-0.5851,-0.6334,-0.6789,-0.7251,-0.7642,-0.7827,-0.8318,-0.8973,-0.9037,-0.9198,-0.9358,-0.9588,-0.9907,-1.004,-1.0396,-1.0541,-1.0526,-1.0241,-0.981,-0.9511,-0.9184,-0.8931,-0.8838,-0.8824,-0.8804,-0.8804,-0.8831,-0.891,-0.929,-1.0097,-1.0745,-1.1191,-1.171,-1.2397,-1.2808,-1.2783,-1.2832,-0.0808,0.0,0.0,0.0,0.0,0.0,0.0,0.0,0.0,0.0,0.0,0.0,0.0,0.0,0.0,0.0,0.0,0.0,0.0,0.0,0.0,0.0,0.0,0.0,0.0,0.0,0.0,0.0,0.0,0.0,0.0,0.0,0.0,0.0,0.0,0.0,0.0,0.0,0.0,0.0,0.0,0.0,0.0,0.0,-0.0304,-0.0506,-0.0674,-0.0876,-0.1076,-0.1109,-0.1746,-0.2647,-0.3591,-0.4461,-0.487,-0.49,-0.4918,-0.4914,-0.4887,-0.4887,-0.4921,-0.4924,-0.5091,-0.5162,-0.5209,-0.5281,-0.5375,-0.5395,-0.5395,-0.5395,-0.5395,-0.5395,-0.5395,-0.5395,-0.5395,-0.5395,-0.5425,-0.5488,-0.562,-0.5716,-0.6141,-0.6597,-0.692,-0.7177,-0.7804,-0.8264,-0.8296,-0.8393,-0.8587,-0.8973,-0.9422,-0.9875,-1.0269,-1.053,-1.0546,-1.0321,-0.989,-0.9564,-0.9257,-0.9031,-0.8884,-0.8824,-0.8778,-0.8778,-0.8831,-0.8883,-0.9113,-0.9762,-1.0346,-1.077,-1.1276,-1.1875,-1.2289,-1.2627,-1.2759,-0.0151,0.0,0.0,0.0,0.0,0.0,0.0,0.0,0.0,0.0,0.0,0.0,0.0,0.0,0.0,0.0,0.0,0.0,0.0,0.0,0.0,0.0,0.0,0.0,0.0,0.0,0.0,0.0,0.0,0.0,0.0,0.0,0.0,0.0,0.0,0.0,0.0,0.0,0.0,0.0,0.0,0.0,0.0,-0.0169,-0.0304,-0.0438,-0.0674,-0.0809,-0.0909,-0.1144,-0.1745,-0.2174,-0.2753,-0.3722,-0.4487,-0.4899,-0.4968,-0.4935,-0.4965,-0.5012,-0.5052,-0.5128,-0.5223,-0.5337,-0.5354,-0.5371,-0.5392,-0.5395,-0.5395,-0.5395,-0.5395,-0.5395,-0.5395,-0.5395,-0.5395,-0.5395,-0.5395,-0.5425,-0.5458,-0.5524,-0.5719,-0.5881,-0.6235,-0.6531,-0.6892,-0.7288,-0.7414,-0.7679,-0.7972,-0.8587,-0.9326,-0.9748,-1.0168,-1.0396,-1.0579,-1.0314,-0.9983,-0.9677,-0.9371,-0.9091,-0.8931,-0.8818,-0.8778,-0.8778,-0.8778,-0.8804,-0.9159,-0.9581,-0.9865,-1.0226,-1.0754,-1.1334,-1.1816,-1.2255,-1.2544,0.0,0.0,0.0,0.0,0.0,0.0,0.0,0.0,0.0,0.0,0.0,0.0,0.0,0.0,0.0,0.0,0.0,0.0,0.0,0.0,0.0,0.0,0.0,0.0,0.0,0.0,0.0,0.0,0.0,0.0,0.0,0.0,0.0,0.0,0.0,0.0,0.0,0.0,0.0,0.0,0.0,0.0,0.0,0.0,-0.0236,-0.0371,-0.0506,-0.0607,-0.0741,-0.1043,-0.1612,-0.1946,-0.238,-0.3045,-0.3992,-0.4502,-0.4649,-0.4861,-0.5063,-0.522,-0.5279,-0.5257,-0.5325,-0.5388,-0.5395,-0.5392,-0.5395,-0.5395,-0.5395,-0.5395,-0.5395,-0.5395,-0.5395,-0.5395,-0.5395,-0.5395,-0.5395,-0.5395,-0.5395,-0.5428,-0.5587,-0.5716,-0.5716,-0.5947,-0.6079,-0.6276,-0.6502,-0.6896,-0.7321,-0.8064,-0.8839,-0.939,-0.9779,-1.0301,-1.0523,-1.0414,-1.008,-0.976,-0.9526,-0.9245,-0.8951,-0.8818,-0.8778,-0.8778,-0.8778,-0.8778,-0.8982,-0.9335,-0.951,-0.971,-1.0287,-1.0872,-1.1434,-1.1866,-1.2172,0.0,0.0,0.0,0.0,0.0,0.0,0.0,0.0,0.0,0.0,0.0,0.0,0.0,0.0,0.0,0.0,0.0,0.0,0.0,0.0,0.0,0.0,0.0,0.0,0.0,0.0,0.0,0.0,0.0,0.0,0.0,0.0,0.0,0.0,0.0,0.0,0.0,0.0,0.0,0.0,0.0,0.0,0.0,0.0,-0.0169,-0.027,-0.0337,-0.0405,-0.054,-0.0808,-0.121,-0.1646,-0.188,-0.2382,-0.305,-0.3716,-0.3984,-0.442,-0.4716,-0.511,-0.5034,-0.5001,-0.5286,-0.5392,-0.5395,-0.5395,-0.5395,-0.5395,-0.5395,-0.5395,-0.5395,-0.5395,-0.5395,-0.5395,-0.5395,-0.5395,-0.5395,-0.5395,-0.5395,-0.5458,-0.5521,-0.5554,-0.5554,-0.5587,-0.5785,-0.5881,-0.6112,-0.6181,-0.6638,-0.7354,-0.8096,-0.8775,-0.939,-1.0104,-1.0428,-1.0561,-1.018,-0.9753,-0.9586,-0.9392,-0.9085,-0.8785,-0.8778,-0.8778,-0.8778,-0.8804,-0.8982,-0.9061,-0.9185,-0.9465,-0.9909,-1.0415,-1.0973,-1.145,-1.1792,0.0,0.0,0.0,0.0,0.0,0.0,0.0,0.0,0.0,0.0,0.0,0.0,0.0,0.0,0.0,0.0,0.0,0.0,0.0,0.0,0.0,0.0,0.0,0.0,0.0,0.0,0.0,0.0,0.0,0.0,0.0,0.0,0.0,0.0,0.0,0.0,0.0,0.0,0.0,0.0,0.0,0.0,0.0,0.0,0.0,-0.0135,-0.0236,-0.0304,-0.0405,-0.054,-0.0607,-0.0775,-0.0943,-0.101,-0.1547,-0.2281,-0.2882,-0.3382,-0.3651,-0.4118,-0.4522,-0.4655,-0.499,-0.5292,-0.5395,-0.5395,-0.5395,-0.5395,-0.5395,-0.5395,-0.5395,-0.5395,-0.5395,-0.5395,-0.5395,-0.5395,-0.5395,-0.5395,-0.5395,-0.5395,-0.5458,-0.5458,-0.5458,-0.5458,-0.5491,-0.5587,-0.5653,-0.5752,-0.6017,-0.6798,-0.7642,-0.8382,-0.8807,-0.9454,-1.0009,-1.0174,-1.0094,-0.9685,-0.9633,-0.9486,-0.9105,-0.8778,-0.8778,-0.8778,-0.8778,-0.8778,-0.8883,-0.891,-0.8936,-0.9087,-0.9387,-0.9909,-1.0483,-1.0939,-1.13,0.0,0.0,0.0,0.0,0.0,0.0,0.0,0.0,0.0,0.0,0.0,0.0,0.0,0.0,0.0,0.0,0.0,0.0,0.0,0.0,0.0,0.0,0.0,0.0,0.0,0.0,0.0,0.0,0.0,0.0,0.0,0.0,0.0,0.0,0.0,0.0,0.0,0.0,0.0,0.0,0.0,0.0,0.0,0.0,0.0,0.0,0.0,-0.0135,-0.0236,-0.0371,-0.0405,-0.0472,-0.0573,-0.0674,-0.0876,-0.1111,-0.158,-0.2249,-0.3084,-0.3449,-0.3818,-0.422,-0.4622,-0.4891,-0.5226,-0.5395,-0.5395,-0.5395,-0.5395,-0.5395,-0.5395,-0.5395,-0.5395,-0.5395,-0.5395,-0.5395,-0.5395,-0.5395,-0.5395,-0.5395,-0.5395,-0.5395,-0.5395,-0.5425,-0.5425,-0.5491,-0.5521,-0.5557,-0.5851,-0.64,-0.7279,-0.8188,-0.8447,-0.8742,-0.923,-0.9608,-0.9692,-0.9511,-0.9635,-0.9416,-0.9004,-0.8778,-0.8778,-0.8778,-0.8778,-0.8778,-0.8778,-0.8804,-0.8857,-0.8831,-0.8804,-0.9432,-1.0038,-1.021,-1.0618,0.0,0.0,0.0,0.0,0.0,0.0,0.0,0.0,0.0,0.0,0.0,0.0,0.0,0.0,0.0,0.0,0.0,0.0,0.0,0.0,0.0,0.0,0.0,0.0,0.0,0.0,0.0,0.0,0.0,0.0,0.0,0.0,0.0,0.0,0.0,0.0,0.0,0.0,0.0,0.0,0.0,0.0,0.0,0.0,0.0,0.0,0.0,0.0,-0.0102,-0.0202,-0.0236,-0.0304,-0.0438,-0.0472,-0.0506,-0.0674,-0.0876,-0.1279,-0.2115,-0.2683,-0.3182,-0.3651,-0.4253,-0.4589,-0.499,-0.5226,-0.5395,-0.5395,-0.5395,-0.5395,-0.5395,-0.5395,-0.5395,-0.5395,-0.5395,-0.5395,-0.5395,-0.5395,-0.5395,-0.5395,-0.5395,-0.5395,-0.5395,-0.5395,-0.5395,-0.5395,-0.5395,-0.5395,-0.5686,-0.6108,-0.6625,-0.7442,-0.7665,-0.7962,-0.8544,-0.8925,-0.9057,-0.9277,-0.941,-0.9433,-0.9057,-0.8845,-0.8778,-0.8778,-0.8778,-0.8778,-0.8778,-0.8778,-0.8778,-0.8778,-0.8857,-0.9159,-0.9536,-0.971,-1.0167,0.0,0.0,0.0,0.0,0.0,0.0,0.0,0.0,0.0,0.0,0.0,0.0,0.0,0.0,0.0,0.0,0.0,0.0,0.0,0.0,0.0,0.0,0.0,0.0,0.0,0.0,0.0,0.0,0.0,0.0,0.0,0.0,0.0,0.0,0.0,0.0,0.0,0.0,0.0,0.0,0.0,0.0,0.0,0.0,0.0,0.0,0.0,0.0,0.0,0.0,0.0,-0.0135,-0.027,-0.027,-0.0337,-0.0405,-0.0472,-0.0775,-0.1144,-0.1713,-0.2146,-0.2614,-0.3349,-0.4187,-0.4386,-0.499,-0.5259,-0.5259,-0.5193,-0.5326,-0.5359,-0.5395,-0.5395,-0.5395,-0.5395,-0.5395,-0.5395,-0.5395,-0.5395,-0.5395,-0.5395,-0.5395,-0.5395,-0.5395,-0.5395,-0.5395,-0.5395,-0.5395,-0.5395,-0.5719,-0.5947,-0.6433,-0.6691,-0.7111,-0.7827,-0.8153,-0.8363,-0.8765,-0.9052,-0.916,-0.9134,-0.8983,-0.8878,-0.8778,-0.8778,-0.8778,-0.8778,-0.8778,-0.8778,-0.8778,-0.891,-0.9087,-0.9335,-0.9588,-1.0226,0.0,0.0,0.0,0.0,0.0,0.0,0.0,0.0,0.0,0.0,0.0,0.0,0.0,0.0,0.0,0.0,0.0,0.0,0.0,0.0,0.0,0.0,0.0,0.0,0.0,0.0,0.0,0.0,0.0,0.0,0.0,0.0,0.0,0.0,0.0,0.0,0.0,0.0,0.0,0.0,0.0,0.0,0.0,0.0,0.0,0.0,0.0,0.0,0.0,0.0,0.0,0.0,0.0,0.0,0.0,0.0,-0.0304,-0.0371,-0.0405,-0.0909,-0.1311,-0.2112,-0.2947,-0.3616,-0.3618,-0.3954,-0.432,-0.4489,-0.4725,-0.4821,-0.5359,-0.5395,-0.5395,-0.5395,-0.5395,-0.5395,-0.5395,-0.5395,-0.5395,-0.5395,-0.5395,-0.5395,-0.5395,-0.5395,-0.5395,-0.5395,-0.5395,-0.5395,-0.5395,-0.5395,-0.5653,-0.5785,-0.6042,-0.6301,-0.6985,-0.7367,-0.7678,-0.8189,-0.8695,-0.8929,-0.9105,-0.9155,-0.9058,-0.8918,-0.8785,-0.8778,-0.8778,-0.8778,-0.8778,-0.8778,-0.8804,-0.8883,-0.9159,-0.9439,-0.9976,0.0101,0.0151,0.0202,0.0151,0.0,0.0,0.0,0.0,0.0,0.0,0.0,0.0,0.0,0.0,0.0,0.0,0.0,0.0,0.0,0.0,0.0,0.0,0.0,0.0,0.0,0.0,0.0,0.0,0.0,0.0,0.0,0.0,0.0,0.0,0.0,0.0,0.0,0.0,0.0,0.0,0.0,0.0,0.0,0.0,0.0,0.0,0.0,0.0,0.0,0.0,0.0,0.0,0.0,0.0,0.0,0.0,0.0,0.0,0.0,-0.0472,-0.0775,-0.1411,-0.2178,-0.2648,-0.2815,-0.2982,-0.3518,-0.3885,-0.4018,-0.4287,-0.4957,-0.499,-0.5193,-0.5226,-0.5362,-0.5395,-0.5395,-0.5395,-0.5395,-0.5395,-0.5395,-0.5395,-0.5395,-0.5395,-0.5395,-0.5395,-0.5395,-0.5395,-0.5395,-0.5395,-0.5428,-0.5524,-0.5557,-0.5815,-0.6104,-0.6441,-0.6904,-0.7904,-0.8395,-0.8854,-0.9045,-0.9105,-0.9149,-0.9058,-0.8931,-0.8825,-0.8778,-0.8778,-0.8778,-0.8778,-0.8804,-0.8831,-0.8883,-0.9133,-0.9316,0.0404,0.0455,0.0657,0.0455,0.0,0.0,0.0,0.0,0.0,0.0,0.0,0.0,0.0,0.0,0.0,0.0,0.0,0.0,0.0,0.0,0.0,0.0,0.0,0.0,0.0,0.0,0.0,0.0,0.0,0.0,0.0,0.0,0.0,0.0,0.0,0.0,0.0,0.0,0.0,0.0,0.0,0.0,0.0,0.0,0.0,0.0,0.0,0.0,0.0,0.0,0.0,0.0,0.0,0.0,0.0,0.0,0.0,0.0,0.0,0.0,-0.0539,-0.074,-0.1443,-0.1745,-0.2012,-0.238,-0.2848,-0.3115,-0.3215,-0.3585,-0.402,-0.4353,-0.4688,-0.5057,-0.5193,-0.5395,-0.5395,-0.5395,-0.5395,-0.5395,-0.5395,-0.5395,-0.5395,-0.5395,-0.5395,-0.5395,-0.5395,-0.5395,-0.5395,-0.5395,-0.5395,-0.5395,-0.5395,-0.5524,-0.5752,-0.5683,-0.6183,-0.7274,-0.8022,-0.8356,-0.8771,-0.8915,-0.8976,-0.9067,-0.8957,-0.8745,-0.8752,-0.8778,-0.8778,-0.8778,-0.8778,-0.8804,-0.8778,-0.8857,-0.9113,0.0657,0.0657,0.0758,0.0707,0.0505,0.0353,0.0251,0.0247,0.0,0.0,0.0,0.0,0.0,0.0,0.0,0.0,0.0,0.0,0.0,0.0,0.0,0.0,0.0,0.0,0.0,0.0,0.0,0.0,0.0,0.0,0.0,0.0,0.0,0.0,0.0,0.0,0.0,0.0,0.0,0.0,0.0,0.0,0.0,0.0,0.0,0.0,0.0,0.0,0.0,0.0,0.0,0.0,0.0,0.0,0.0,0.0,0.0,0.0,0.0,-0.0135,-0.0236,-0.0438,-0.0673,-0.0942,-0.1043,-0.1278,-0.1746,-0.2213,-0.238,-0.2815,-0.3382,-0.3551,-0.3885,-0.4556,-0.4858,-0.5259,-0.5395,-0.5395,-0.5395,-0.5395,-0.5395,-0.5395,-0.5395,-0.5395,-0.5395,-0.5395,-0.5395,-0.5395,-0.5395,-0.5395,-0.5395,-0.5395,-0.5395,-0.5428,-0.5458,-0.5488,-0.5844,-0.6824,-0.7362,-0.7636,-0.8027,-0.8504,-0.8691,-0.8739,-0.8712,-0.8659,-0.8692,-0.8718,-0.8778,-0.8778,-0.8778,-0.8778,-0.8778,-0.8883,-0.9035,0.0956,0.095,0.105,0.1046,0.0992,0.0699,0.0543,0.048,0.0327,0.023,0.0,0.0,0.0,0.0,0.0,0.0,0.0,0.0,0.0,0.0,0.0,0.0,0.0,0.0,0.0,0.0,0.0,0.0,0.0,0.0,0.0,0.0,0.0,0.0,0.0,0.0,0.0,0.0,0.0,0.0,0.0,0.0,0.0,0.0,0.0,0.0,0.0,0.0,0.0,0.0,0.0,0.0,0.0,0.0,0.0,0.0,0.0,0.0,0.0,0.0,0.0,-0.0202,0.0,-0.0371,-0.0405,-0.0674,-0.0942,-0.1277,-0.1511,-0.1978,-0.248,-0.2614,-0.3049,-0.3718,-0.4084,-0.4486,-0.4957,-0.4924,-0.5123,-0.5156,-0.5395,-0.5395,-0.5395,-0.5395,-0.5395,-0.5395,-0.5395,-0.5395,-0.5395,-0.5395,-0.5395,-0.5395,-0.5395,-0.5428,-0.5428,-0.5425,-0.5848,-0.6494,-0.6787,-0.7011,-0.7504,-0.8007,-0.8229,-0.8365,-0.826,-0.824,-0.856,-0.8659,-0.8718,-0.8752,-0.8778,-0.8778,-0.8778,-0.8883,-0.8989,0.1197,0.1228,0.1472,0.1555,0.1391,0.1021,0.0815,0.0695,0.0693,0.0548,0.0404,0.0404,0.0314,0.009,0.0,0.0,0.0,0.0,0.0,0.0,0.0,0.0,0.0,0.0,0.0,0.0,0.0,0.0,0.0,0.0,0.0,0.0,0.0,0.0,0.0,0.0,0.0,0.0,0.0,0.0,0.0,0.0,0.0,0.0,0.0,0.0,0.0,0.0,0.0,0.0,0.0,0.0,0.0,0.0,0.0,0.0,0.0,0.0,0.0,0.0,0.0,0.0,0.0,0.0,-0.0236,-0.0337,-0.0573,-0.064,-0.0842,-0.1143,-0.1477,-0.1744,-0.2011,-0.2479,-0.2878,-0.3413,-0.4018,-0.432,-0.4619,-0.4888,-0.5259,-0.5392,-0.5395,-0.5395,-0.5392,-0.5395,-0.5395,-0.5395,-0.5395,-0.5395,-0.5395,-0.5395,-0.5395,-0.5395,-0.5395,-0.5395,-0.5557,-0.6108,-0.6239,-0.6494,-0.7012,-0.7365,-0.7455,-0.754,-0.7621,-0.7842,-0.8381,-0.8626,-0.8659,-0.8718,-0.8778,-0.8778,-0.8778,-0.8778,-0.8857,0.1402,0.1443,0.149,0.1534,0.1477,0.137,0.1075,0.0739,0.0684,0.0631,0.0583,0.0628,0.0538,0.0494,0.0,0.0494,0.0494,0.0,0.0,0.0449,0.0314,0.0269,0.0224,0.0,0.0,0.0,0.0,0.0,0.0,0.0,0.0,0.0,0.0,0.0,0.0,0.0,0.0,0.0,0.0,0.0,0.0,0.0,0.0,0.0,0.0,0.0,0.0,0.0,0.0,0.0,0.0,0.0,0.0,0.0,0.0,0.0,0.0,0.0,0.0,0.0,0.0,0.0,0.0,0.0,-0.0101,-0.0202,-0.0304,-0.0337,-0.0405,-0.0707,-0.0841,-0.1008,-0.131,-0.1677,-0.2011,-0.2412,-0.3013,-0.338,-0.3716,-0.4453,-0.4824,-0.5226,-0.5259,-0.5359,-0.5359,-0.5392,-0.5395,-0.5395,-0.5395,-0.5395,-0.5395,-0.5395,-0.5395,-0.5395,-0.5395,-0.5395,-0.5495,-0.5657,-0.5818,-0.6001,-0.6375,-0.6634,-0.6684,-0.6895,-0.7251,-0.7815,-0.8448,-0.8573,-0.8606,-0.8718,-0.8778,-0.8778,-0.8778,-0.8778,-0.8778,0.1519,0.1508,0.1508,0.1502,0.1442,0.1471,0.128,0.1003,0.0947,0.0942,0.0852,0.0852,0.0807,0.0673,0.0673,0.0673,0.0673,0.0673,0.0673,0.0628,0.0583,0.0538,0.0449,0.0359,0.0,0.0222,0.0175,0.0,0.0125,0.0,0.0,0.0,0.0,0.0,0.0,0.0,0.0,0.0,0.0,0.0,0.0,0.0,0.0,0.0,0.0,0.0,0.0,0.0,0.0,0.0,0.0,0.0,0.0,0.0,0.0,0.0,0.0,0.0,0.0,0.0,0.0,0.0,0.0,0.0,0.0,-0.0101,-0.0135,-0.0169,-0.0236,-0.0304,-0.0304,-0.0371,-0.0707,-0.1008,-0.1242,-0.1442,-0.1877,-0.2277,-0.298,-0.3787,-0.4356,-0.4824,-0.506,-0.5193,-0.5326,-0.5392,-0.5395,-0.5395,-0.5395,-0.5395,-0.5395,-0.5395,-0.5395,-0.5395,-0.5395,-0.5395,-0.5462,-0.5495,-0.5524,-0.5701,-0.5915,-0.5911,-0.5977,-0.6441,-0.7048,-0.7659,-0.8229,-0.8441,-0.8527,-0.8639,-0.8752,-0.8778,-0.8778,-0.8778,-0.8778,0.1502,0.1477,0.1476,0.1463,0.1393,0.1393,0.1393,0.1391,0.1346,0.1301,0.1122,0.1122,0.0987,0.0897,0.0852,0.0852,0.0852,0.0852,0.0897,0.0762,0.0762,0.0762,0.0718,0.0673,0.0581,0.0574,0.0518,0.0378,0.0331,0.0,0.0,0.0,0.0,0.0118,0.0196,0.0196,0.0196,0.0275,0.0196,0.0,0.0,0.0,0.0,0.0,0.0,0.0,0.0,0.0,0.0,0.0,0.0,0.0,0.0,0.0,0.0,0.0,0.0,0.0,0.0,0.0,0.0,0.0,0.0,0.0,0.0,0.0,0.0,0.0,0.0,0.0,0.0,0.0,-0.0371,-0.0505,-0.0639,-0.084,-0.1109,-0.1643,-0.2379,-0.3184,-0.3923,-0.4392,-0.5024,-0.519,-0.5292,-0.5359,-0.5395,-0.5395,-0.5395,-0.5395,-0.5395,-0.5395,-0.5395,-0.5395,-0.5395,-0.5395,-0.5395,-0.5395,-0.5395,-0.5425,-0.5628,-0.5487,-0.5264,-0.5851,-0.6494,-0.7285,-0.7863,-0.8023,-0.8229,-0.8527,-0.8633,-0.8718,-0.8752,-0.8752,-0.8778,0.1407,0.1446,0.1446,0.1396,0.1391,0.1391,0.1391,0.1391,0.1391,0.1346,0.1346,0.1301,0.1256,0.1211,0.1166,0.1166,0.1166,0.1122,0.1211,0.1166,0.1076,0.0984,0.094,0.0848,0.0755,0.0698,0.0639,0.0579,0.0484,0.0356,0.0196,0.0,0.0236,0.0275,0.0354,0.0354,0.0432,0.0511,0.0432,0.0236,0.0,0.0,0.0,0.0,0.0,0.0,0.0,0.0,0.0,0.0,0.0,0.0,0.0,0.0,0.0,0.0,0.0,0.0,0.0,0.0,0.0,0.0,0.0,0.0,0.0,0.0,0.0,0.0,0.0,0.0,0.0,0.0,0.0,0.0,0.0,0.0,0.0,-0.1109,-0.1811,-0.2616,-0.3389,-0.4056,-0.4755,-0.512,-0.5223,-0.5292,-0.5359,-0.5395,-0.5395,-0.5395,-0.5395,-0.5395,-0.5395,-0.5395,-0.5395,-0.5395,-0.5395,-0.5395,-0.5395,-0.5395,-0.5385,-0.5339,-0.5318,-0.5429,-0.5909,-0.6723,-0.7295,-0.745,-0.7717,-0.8037,-0.8362,-0.8395,-0.8553,-0.858,-0.8692,0.1391,0.1391,0.1391,0.1391,0.1391,0.1391,0.1391,0.1391,0.1391,0.1391,0.1391,0.1391,0.1391,0.1391,0.1391,0.1391,0.1391,0.1391,0.1346,0.1346,0.1297,0.1246,0.1155,0.106,0.1046,0.0986,0.0838,0.0774,0.0632,0.055,0.0432,0.0432,0.0432,0.0471,0.055,0.0629,0.0668,0.0707,0.0668,0.0471,0.0236,0.0,0.0,0.0,0.0,0.0,0.0,0.0,0.0,0.0,0.0,0.0,0.0,0.0,0.0,0.0,0.0,0.0,0.0,0.0,0.0,0.0,0.0,0.0,0.0,0.0,0.0,0.0,0.0,0.0,0.0,0.0,0.0,0.0,0.0,0.0,0.0,-0.0505,-0.1344,-0.2281,-0.295,-0.3487,-0.4187,-0.4891,-0.5024,-0.519,-0.5292,-0.5359,-0.5392,-0.5395,-0.5395,-0.5395,-0.5395,-0.5395,-0.5395,-0.5395,-0.5395,-0.5395,-0.5395,-0.5324,-0.5294,-0.5355,-0.5426,-0.5442,-0.5632,-0.6154,-0.6615,-0.6799,-0.6956,-0.7171,-0.7605,-0.8017,-0.817,-0.8355,-0.8553,0.1391,0.1391,0.1391,0.1391,0.1391,0.1391,0.1391,0.1391,0.1391,0.1391,0.1391,0.1391,0.1391,0.1391,0.1391,0.1391,0.1391,0.1391,0.1391,0.1382,0.1381,0.1319,0.1348,0.134,0.1237,0.1173,0.1106,0.0925,0.0787,0.0707,0.0629,0.0668,0.0668,0.0746,0.0786,0.0825,0.0825,0.0904,0.0864,0.0707,0.0589,0.0471,0.0236,0.0118,0.0039,0.0039,0.0,0.0,0.0,0.0,0.0,0.0,0.0,0.0,0.0,0.0,0.0,0.0,0.0,0.0,0.0,0.0,0.0,0.0,0.0,0.0,0.0,0.0,0.0,0.0,0.0,0.0,0.0,0.0,0.0,0.0,0.0,0.0,-0.0908,-0.1879,-0.2348,-0.2883,-0.3553,-0.4323,-0.4725,-0.4921,-0.5156,-0.5259,-0.5359,-0.5392,-0.5395,-0.5395,-0.5395,-0.5395,-0.5395,-0.5395,-0.5395,-0.5395,-0.5378,-0.5266,-0.5178,-0.5205,-0.5255,-0.5286,-0.555,-0.5746,-0.5937,-0.6145,-0.6281,-0.6443,-0.6826,-0.7316,-0.7584,-0.7824,-0.8309,0.1391,0.1391,0.1391,0.1391,0.1391,0.1391,0.1391,0.1391,0.1391,0.1391,0.1391,0.1391,0.1391,0.1391,0.1391,0.1391,0.1391,0.139,0.1416,0.1401,0.1405,0.1383,0.1361,0.1348,0.1335,0.127,0.1245,0.1227,0.1022,0.0904,0.0864,0.0864,0.0864,0.0864,0.0904,0.0982,0.11,0.114,0.114,0.1022,0.0825,0.0668,0.0432,0.0314,0.0236,0.0157,0.0,0.0,0.0,0.0,0.0,0.0,0.0,0.0,0.0,0.0,0.0,0.0,0.0,0.0,0.0,0.0,0.0,0.0,0.0,0.0,0.0,0.0,0.0,0.0,0.0,0.0,0.0,0.0,0.0,0.0,0.0,0.0,-0.0539,-0.1109,-0.1511,-0.2114,-0.2716,-0.3387,-0.3889,-0.422,-0.4755,-0.4924,-0.516,-0.5259,-0.5362,-0.5362,-0.5362,-0.5395,-0.5395,-0.5395,-0.5395,-0.5395,-0.5361,-0.5252,-0.5139,-0.5027,-0.5036,-0.5059,-0.4974,-0.5011,-0.5226,-0.555,-0.5741,-0.59,-0.6177,-0.6534,-0.6826,-0.7337,-0.7877]}]]